GEFSCGP_prec_meanprecacc_150.txt.gz
Total_Precipitation_Accumulation
0.00 0.00 0.01 0.01 0.02 0.02 0.04 0.09 0.22 0.26 0.20 0.28 0.36 0.56 0.66 0.77 0.95 0.95 0.82 0.86 1.16 1.37 1.63 1.99 2.57 3.44 4.51 5.39 5.66 5.11 4.53 4.11 3.66 3.18 2.57 2.15 1.97 1.84 1.66 1.44 1.15 0.99 0.89 0.89
0.00 0.02 0.02 0.01 0.02 0.03 0.06 0.08 0.19 0.26 0.18 0.21 0.35 0.66 0.94 0.91 0.84 0.82 0.84 0.81 0.96 1.35 1.80 2.42 3.41 4.06 4.33 4.44 4.16 3.78 3.45 3.19 2.72 2.25 1.91 1.69 1.59 1.43 1.24 1.14 1.02 0.82 0.72 0.70
0.01 0.03 0.02 0.02 0.03 0.09 0.10 0.10 0.18 0.25 0.15 0.16 0.36 0.80 1.06 1.07 0.85 0.72 0.69 0.64 0.89 1.34 1.92 2.72 3.29 3.41 3.15 2.84 2.73 2.65 2.62 2.31 2.13 2.00 1.84 1.73 1.64 1.43 1.18 1.00 0.87 0.71 0.60 0.55
0.01 0.02 0.02 0.02 0.04 0.08 0.09 0.06 0.06 0.09 0.15 0.33 0.52 1.02 1.17 0.96 0.90 0.74 0.70 0.67 0.80 1.10 1.41 1.86 2.12 2.02 2.10 2.23 2.25 2.30 2.33 2.04 1.99 1.88 1.52 1.31 1.18 1.06 0.90 0.81 0.80 0.81 0.66 0.53
0.02 0.03 0.02 0.02 0.03 0.04 0.04 0.03 0.04 0.11 0.22 0.41 0.60 0.84 0.95 0.75 0.88 0.70 0.57 0.58 0.60 0.79 0.86 0.97 1.10 1.23 1.39 1.50 1.66 1.91 2.09 2.03 1.87 1.66 1.48 1.37 1.17 1.12 1.07 1.01 0.97 0.92 0.81 0.66
0.03 0.04 0.03 0.02 0.02 0.03 0.03 0.05 0.12 0.23 0.39 0.89 0.84 0.81 1.01 0.91 0.89 0.67 0.50 0.44 0.49 0.65 0.72 0.76 0.79 0.91 1.02 1.13 1.27 1.53 1.79 1.90 1.85 1.68 1.52 1.40 1.31 1.23 1.14 1.06 1.01 0.89 0.81 0.76
0.09 0.07 0.05 0.03 0.03 0.05 0.05 0.07 0.24 0.57 0.98 1.13 0.70 0.78 1.04 0.77 0.67 0.50 0.30 0.27 0.40 0.59 0.72 0.76 0.71 0.65 0.68 0.81 0.97 1.06 1.22 1.44 1.54 1.51 1.42 1.34 1.37 1.23 1.02 0.92 0.87 0.86 0.76 0.67
0.14 0.12 0.06 0.04 0.04 0.06 0.05 0.04 0.11 0.22 0.33 0.51 0.66 1.04 1.16 0.81 0.54 0.30 0.18 0.22 0.35 0.49 0.51 0.54 0.54 0.47 0.44 0.54 0.75 0.84 0.99 1.14 1.31 1.30 1.22 1.16 1.19 1.10 0.96 0.96 0.81 0.76 0.73 0.67
0.05 0.05 0.04 0.04 0.05 0.06 0.05 0.03 0.04 0.07 0.12 0.31 0.66 0.95 0.90 0.69 0.49 0.30 0.22 0.20 0.20 0.24 0.30 0.38 0.42 0.42 0.39 0.42 0.60 0.71 0.84 1.00 1.17 1.26 1.23 1.12 1.11 1.05 1.00 0.96 0.88 0.75 0.79 0.77
0.02 0.02 0.04 0.04 0.05 0.06 0.05 0.04 0.04 0.05 0.11 0.23 0.49 0.87 1.03 0.85 0.57 0.33 0.27 0.22 0.22 0.24 0.24 0.29 0.35 0.35 0.34 0.32 0.38 0.50 0.66 0.85 0.97 1.10 1.07 0.98 1.10 1.07 1.06 1.02 0.92 0.82 0.78 0.76
0.02 0.02 0.05 0.05 0.06 0.08 0.07 0.06 0.06 0.05 0.08 0.14 0.33 0.54 0.50 0.44 0.35 0.29 0.30 0.27 0.19 0.19 0.16 0.17 0.22 0.26 0.27 0.26 0.27 0.32 0.44 0.60 0.71 0.78 0.85 0.82 0.90 0.93 0.92 0.95 0.94 0.90 0.83 0.81
0.02 0.02 0.03 0.06 0.09 0.08 0.09 0.09 0.09 0.08 0.08 0.09 0.16 0.33 0.29 0.30 0.29 0.25 0.31 0.26 0.19 0.17 0.14 0.14 0.17 0.22 0.25 0.25 0.24 0.27 0.33 0.39 0.49 0.54 0.63 0.68 0.72 0.77 0.76 0.77 0.85 0.90 0.86 0.82
0.03 0.02 0.03 0.11 0.17 0.15 0.10 0.08 0.09 0.10 0.09 0.08 0.20 0.37 0.30 0.22 0.29 0.25 0.25 0.27 0.29 0.19 0.14 0.14 0.17 0.25 0.27 0.26 0.25 0.27 0.31 0.35 0.40 0.42 0.51 0.59 0.66 0.67 0.65 0.67 0.74 0.82 0.87 0.87
0.03 0.02 0.03 0.09 0.18 0.20 0.16 0.11 0.11 0.10 0.07 0.07 0.13 0.31 0.29 0.26 0.27 0.33 0.37 0.30 0.21 0.16 0.14 0.15 0.19 0.26 0.25 0.23 0.24 0.27 0.34 0.43 0.49 0.53 0.63 0.70 0.75 0.76 0.75 0.73 0.77 0.83 0.90 0.93
0.03 0.02 0.02 0.03 0.06 0.11 0.14 0.15 0.12 0.08 0.05 0.07 0.10 0.19 0.18 0.23 0.28 0.34 0.33 0.27 0.20 0.17 0.17 0.17 0.22 0.34 0.37 0.38 0.35 0.35 0.41 0.51 0.61 0.72 0.88 1.03 1.12 1.11 1.02 0.99 1.02 1.06 1.10 1.14
0.03 0.03 0.03 0.03 0.06 0.10 0.12 0.13 0.10 0.07 0.05 0.05 0.07 0.12 0.14 0.24 0.27 0.29 0.27 0.27 0.26 0.27 0.23 0.24 0.28 0.40 0.39 0.37 0.37 0.38 0.44 0.51 0.56 0.66 0.76 0.90 1.07 1.14 1.09 1.06 1.14 1.21 1.26 1.37
0.06 0.06 0.04 0.04 0.07 0.09 0.15 0.12 0.08 0.08 0.07 0.07 0.09 0.13 0.16 0.23 0.33 0.39 0.37 0.40 0.36 0.29 0.22 0.22 0.28 0.34 0.37 0.33 0.30 0.33 0.38 0.48 0.58 0.71 0.83 0.90 1.01 1.10 1.13 1.15 1.23 1.30 1.31 1.31
0.16 0.14 0.11 0.09 0.10 0.15 0.15 0.11 0.10 0.10 0.10 0.14 0.17 0.18 0.21 0.25 0.31 0.36 0.36 0.35 0.35 0.34 0.37 0.41 0.45 0.45 0.42 0.35 0.33 0.39 0.47 0.57 0.65 0.72 0.81 0.89 1.00 1.10 1.20 1.34 1.40 1.44 1.50 1.49
0.27 0.28 0.22 0.16 0.14 0.17 0.19 0.17 0.16 0.18 0.21 0.21 0.29 0.34 0.33 0.32 0.32 0.38 0.39 0.38 0.43 0.40 0.38 0.46 0.56 0.63 0.54 0.50 0.47 0.54 0.65 0.76 0.82 0.85 0.92 1.00 1.09 1.22 1.30 1.35 1.43 1.51 1.58 1.54
0.32 0.35 0.32 0.24 0.26 0.27 0.25 0.26 0.22 0.22 0.38 0.34 0.38 0.45 0.44 0.45 0.57 0.66 0.67 0.55 0.52 0.51 0.48 0.53 0.54 0.56 0.64 0.68 0.68 0.70 0.77 0.88 0.96 0.98 1.00 1.05 1.22 1.30 1.32 1.31 1.37 1.40 1.43 1.40
0.36 0.42 0.39 0.35 0.34 0.30 0.28 0.28 0.29 0.49 0.69 0.66 0.68 0.66 0.57 0.62 0.68 0.67 0.60 0.62 0.57 0.59 0.65 0.61 0.60 0.62 0.65 0.65 0.67 0.75 0.84 0.93 0.99 1.01 1.00 1.07 1.17 1.31 1.36 1.39 1.37 1.33 1.31 1.31
0.55 0.60 0.58 0.54 0.62 0.59 0.42 0.44 0.58 0.73 0.67 0.79 0.71 0.63 0.61 0.60 0.59 0.56 0.54 0.62 0.66 0.66 0.71 0.67 0.60 0.56 0.57 0.61 0.64 0.73 0.82 0.84 0.89 0.91 0.94 0.98 1.01 1.02 1.10 1.24 1.30 1.30 1.29 1.30
0.70 0.76 0.78 0.72 0.74 0.67 0.57 0.58 0.61 0.56 0.55 0.61 0.58 0.53 0.54 0.52 0.50 0.45 0.48 0.53 0.55 0.59 0.64 0.63 0.63 0.60 0.61 0.65 0.70 0.77 0.79 0.84 0.86 0.93 0.96 0.96 0.97 1.01 1.08 1.14 1.16 1.14 1.10 1.06
0.82 0.64 0.77 0.93 0.91 0.78 0.64 0.52 0.53 0.50 0.50 0.53 0.54 0.56 0.56 0.52 0.48 0.46 0.46 0.49 0.56 0.62 0.63 0.62 0.62 0.63 0.70 0.76 0.81 0.79 0.77 0.83 0.92 0.96 0.98 1.01 1.06 1.04 1.03 1.09 1.08 1.03 1.01 0.97
0.86 0.78 0.93 1.27 1.31 1.10 0.93 0.78 0.68 0.62 0.60 0.60 0.63 0.63 0.66 0.64 0.59 0.58 0.50 0.48 0.49 0.52 0.52 0.54 0.60 0.64 0.71 0.74 0.78 0.82 0.81 0.85 0.91 0.90 0.87 0.95 1.02 0.97 0.92 1.00 1.06 0.98 0.97 1.01
0.81 0.92 1.17 1.43 1.34 1.28 1.17 0.95 0.82 0.76 0.76 0.70 0.72 0.75 0.75 0.72 0.69 0.63 0.59 0.50 0.44 0.45 0.49 0.54 0.59 0.66 0.72 0.75 0.78 0.79 0.81 0.87 0.92 0.95 0.90 0.85 0.85 0.87 0.90 0.94 0.97 0.96 0.85 0.85

GEFSCGP_prec_meanprecacc_156.txt.gz
Total_Precipitation_Accumulation
0.00 0.00 0.01 0.01 0.02 0.02 0.04 0.09 0.22 0.26 0.20 0.28 0.36 0.56 0.66 0.77 0.95 0.95 0.82 0.86 1.16 1.37 1.63 2.00 2.57 3.45 4.52 5.40 5.68 5.14 4.56 4.14 3.69 3.22 2.61 2.20 2.04 1.92 1.71 1.49 1.21 1.05 0.95 0.95
0.00 0.02 0.02 0.01 0.02 0.03 0.06 0.08 0.19 0.26 0.18 0.21 0.35 0.66 0.94 0.91 0.84 0.82 0.84 0.81 0.96 1.35 1.80 2.43 3.42 4.07 4.34 4.45 4.18 3.81 3.48 3.24 2.76 2.29 1.96 1.75 1.67 1.51 1.32 1.20 1.10 0.88 0.77 0.75
0.01 0.03 0.02 0.02 0.03 0.09 0.10 0.10 0.18 0.25 0.15 0.16 0.36 0.80 1.06 1.07 0.85 0.72 0.69 0.64 0.89 1.34 1.92 2.72 3.29 3.43 3.17 2.85 2.75 2.67 2.66 2.37 2.20 2.07 1.91 1.81 1.73 1.53 1.27 1.07 0.95 0.77 0.67 0.62
0.01 0.02 0.02 0.02 0.04 0.08 0.09 0.06 0.06 0.09 0.15 0.33 0.52 1.02 1.17 0.96 0.90 0.74 0.70 0.67 0.80 1.10 1.41 1.86 2.13 2.03 2.13 2.25 2.26 2.33 2.37 2.09 2.05 1.95 1.59 1.39 1.26 1.16 0.99 0.89 0.88 0.90 0.75 0.61
0.02 0.03 0.02 0.02 0.03 0.04 0.04 0.03 0.04 0.11 0.22 0.41 0.60 0.84 0.95 0.75 0.88 0.71 0.57 0.58 0.60 0.79 0.86 0.97 1.10 1.24 1.42 1.51 1.67 1.95 2.14 2.08 1.93 1.74 1.57 1.46 1.27 1.22 1.17 1.11 1.07 1.00 0.89 0.72
0.03 0.04 0.03 0.02 0.02 0.03 0.03 0.05 0.12 0.23 0.39 0.89 0.84 0.81 1.01 0.91 0.89 0.67 0.50 0.44 0.49 0.65 0.72 0.76 0.79 0.91 1.04 1.14 1.29 1.56 1.83 1.95 1.90 1.74 1.58 1.47 1.39 1.32 1.23 1.17 1.11 0.98 0.89 0.84
0.09 0.07 0.05 0.03 0.03 0.05 0.05 0.07 0.24 0.57 0.98 1.14 0.70 0.78 1.04 0.77 0.67 0.50 0.30 0.27 0.40 0.59 0.72 0.77 0.72 0.65 0.68 0.83 0.99 1.09 1.26 1.48 1.59 1.56 1.47 1.39 1.43 1.30 1.11 1.00 0.96 0.94 0.83 0.75
0.14 0.12 0.06 0.04 0.04 0.06 0.05 0.04 0.11 0.22 0.33 0.51 0.66 1.04 1.16 0.81 0.54 0.30 0.18 0.22 0.35 0.49 0.51 0.55 0.54 0.48 0.45 0.56 0.76 0.87 1.04 1.20 1.37 1.35 1.28 1.22 1.27 1.22 1.09 1.05 0.89 0.84 0.81 0.74
0.05 0.05 0.04 0.04 0.05 0.06 0.05 0.03 0.04 0.07 0.12 0.31 0.66 0.95 0.90 0.69 0.49 0.30 0.22 0.20 0.20 0.24 0.31 0.41 0.43 0.43 0.40 0.44 0.63 0.74 0.88 1.06 1.24 1.32 1.30 1.21 1.22 1.20 1.14 1.07 0.96 0.83 0.87 0.84
0.02 0.02 0.04 0.04 0.05 0.06 0.05 0.04 0.04 0.05 0.11 0.23 0.49 0.87 1.03 0.85 0.57 0.33 0.27 0.23 0.22 0.25 0.24 0.32 0.38 0.37 0.36 0.35 0.43 0.56 0.72 0.91 1.03 1.17 1.18 1.08 1.23 1.20 1.17 1.11 1.00 0.89 0.85 0.84
0.02 0.02 0.05 0.05 0.06 0.08 0.07 0.06 0.06 0.05 0.08 0.14 0.33 0.55 0.51 0.45 0.35 0.29 0.31 0.27 0.19 0.20 0.17 0.19 0.24 0.29 0.29 0.28 0.32 0.41 0.52 0.64 0.76 0.85 0.94 0.93 0.98 0.98 0.97 1.01 1.01 0.97 0.92 0.89
0.02 0.02 0.03 0.06 0.09 0.08 0.09 0.09 0.09 0.08 0.08 0.09 0.16 0.34 0.29 0.30 0.29 0.25 0.31 0.28 0.20 0.19 0.19 0.18 0.18 0.23 0.25 0.26 0.25 0.30 0.36 0.41 0.52 0.59 0.69 0.74 0.78 0.83 0.83 0.85 0.93 0.99 0.94 0.89
0.03 0.02 0.03 0.11 0.17 0.15 0.10 0.08 0.09 0.10 0.09 0.08 0.20 0.38 0.30 0.22 0.29 0.25 0.25 0.30 0.31 0.19 0.16 0.17 0.18 0.26 0.28 0.26 0.26 0.28 0.32 0.36 0.42 0.45 0.53 0.64 0.71 0.72 0.71 0.73 0.81 0.88 0.94 0.95
0.03 0.02 0.03 0.09 0.18 0.20 0.16 0.11 0.11 0.10 0.07 0.07 0.13 0.31 0.30 0.26 0.28 0.34 0.37 0.30 0.22 0.16 0.14 0.15 0.19 0.27 0.27 0.26 0.26 0.28 0.36 0.45 0.50 0.54 0.65 0.73 0.79 0.81 0.80 0.77 0.81 0.88 0.95 0.97
0.03 0.02 0.02 0.03 0.06 0.11 0.14 0.15 0.12 0.08 0.05 0.07 0.10 0.19 0.18 0.23 0.28 0.36 0.33 0.27 0.20 0.17 0.17 0.17 0.22 0.35 0.39 0.40 0.38 0.38 0.44 0.53 0.62 0.73 0.89 1.05 1.16 1.16 1.08 1.05 1.06 1.10 1.14 1.17
0.03 0.03 0.03 0.03 0.06 0.10 0.12 0.13 0.10 0.07 0.05 0.05 0.07 0.12 0.15 0.24 0.28 0.30 0.27 0.27 0.26 0.27 0.23 0.24 0.28 0.41 0.41 0.38 0.39 0.41 0.47 0.54 0.58 0.67 0.77 0.93 1.11 1.18 1.14 1.11 1.19 1.26 1.30 1.41
0.06 0.06 0.04 0.04 0.07 0.09 0.15 0.12 0.08 0.08 0.07 0.07 0.09 0.13 0.16 0.23 0.33 0.39 0.37 0.40 0.36 0.29 0.22 0.22 0.28 0.34 0.39 0.35 0.33 0.35 0.40 0.51 0.60 0.73 0.85 0.92 1.04 1.14 1.19 1.19 1.26 1.33 1.34 1.35
0.16 0.14 0.11 0.09 0.10 0.15 0.15 0.11 0.10 0.10 0.10 0.14 0.17 0.18 0.21 0.25 0.31 0.36 0.36 0.35 0.35 0.35 0.38 0.41 0.45 0.46 0.45 0.40 0.39 0.44 0.51 0.60 0.67 0.75 0.84 0.91 1.03 1.15 1.26 1.38 1.43 1.47 1.52 1.51
0.27 0.28 0.22 0.16 0.14 0.17 0.19 0.17 0.16 0.18 0.21 0.21 0.29 0.34 0.33 0.32 0.32 0.38 0.39 0.38 0.43 0.40 0.38 0.47 0.57 0.63 0.56 0.55 0.55 0.60 0.70 0.79 0.84 0.87 0.94 1.02 1.11 1.24 1.33 1.39 1.46 1.54 1.59 1.56
0.32 0.35 0.32 0.24 0.26 0.27 0.25 0.27 0.22 0.22 0.39 0.34 0.38 0.45 0.44 0.45 0.57 0.68 0.67 0.55 0.52 0.51 0.48 0.54 0.55 0.57 0.65 0.69 0.70 0.72 0.79 0.89 0.97 0.99 1.01 1.07 1.23 1.32 1.33 1.32 1.39 1.42 1.45 1.41
0.36 0.42 0.39 0.35 0.34 0.31 0.29 0.29 0.30 0.50 0.71 0.67 0.68 0.66 0.57 0.62 0.69 0.68 0.60 0.63 0.58 0.60 0.66 0.62 0.60 0.63 0.66 0.65 0.68 0.76 0.84 0.94 1.00 1.02 1.01 1.08 1.19 1.33 1.36 1.40 1.38 1.34 1.32 1.32
0.55 0.60 0.58 0.54 0.62 0.62 0.43 0.44 0.60 0.75 0.68 0.79 0.71 0.63 0.61 0.60 0.59 0.56 0.55 0.63 0.66 0.67 0.73 0.69 0.62 0.58 0.59 0.62 0.65 0.74 0.84 0.86 0.91 0.93 0.95 0.99 1.02 1.03 1.11 1.26 1.32 1.32 1.32 1.33
0.71 0.76 0.79 0.73 0.76 0.68 0.57 0.59 0.63 0.57 0.55 0.61 0.58 0.53 0.55 0.52 0.50 0.47 0.52 0.55 0.56 0.60 0.65 0.65 0.65 0.63 0.64 0.68 0.72 0.79 0.82 0.86 0.88 0.94 0.98 0.98 0.98 1.03 1.10 1.16 1.19 1.17 1.13 1.09
0.83 0.65 0.78 0.94 0.92 0.79 0.65 0.52 0.53 0.51 0.51 0.53 0.54 0.57 0.56 0.52 0.48 0.47 0.48 0.51 0.57 0.64 0.65 0.65 0.65 0.67 0.75 0.80 0.85 0.82 0.79 0.84 0.92 0.97 0.98 1.02 1.07 1.04 1.04 1.11 1.09 1.05 1.03 1.00
0.88 0.79 0.95 1.30 1.34 1.12 0.94 0.78 0.68 0.62 0.60 0.61 0.64 0.63 0.66 0.64 0.61 0.59 0.51 0.49 0.50 0.53 0.54 0.57 0.65 0.70 0.77 0.79 0.81 0.84 0.83 0.87 0.93 0.91 0.89 0.96 1.02 0.98 0.93 1.01 1.08 1.00 0.99 1.03
0.82 0.95 1.20 1.49 1.38 1.31 1.19 0.97 0.83 0.77 0.77 0.71 0.73 0.76 0.76 0.73 0.69 0.64 0.61 0.52 0.45 0.46 0.52 0.58 0.64 0.70 0.76 0.77 0.81 0.81 0.82 0.88 0.94 0.97 0.92 0.87 0.87 0.89 0.92 0.96 0.99 0.98 0.87 0.87

GEFSCGP_prec_meanprecacc_162.txt.gz
Total_Precipitation_Accumulation
0.00 0.00 0.01 0.01 0.02 0.02 0.04 0.09 0.22 0.26 0.20 0.28 0.36 0.56 0.66 0.77 0.95 0.95 0.82 0.87 1.17 1.38 1.64 2.01 2.58 3.46 4.53 5.41 5.69 5.15 4.58 4.17 3.72 3.26 2.64 2.26 2.13 2.01 1.80 1.57 1.28 1.12 1.02 1.01
0.00 0.02 0.02 0.01 0.02 0.04 0.06 0.08 0.19 0.26 0.18 0.21 0.35 0.66 0.94 0.92 0.84 0.82 0.85 0.82 0.98 1.36 1.81 2.44 3.43 4.08 4.35 4.47 4.20 3.83 3.50 3.26 2.79 2.33 2.00 1.79 1.74 1.59 1.40 1.29 1.17 0.94 0.84 0.83
0.01 0.03 0.02 0.02 0.03 0.09 0.10 0.10 0.18 0.25 0.15 0.16 0.36 0.80 1.07 1.08 0.85 0.73 0.71 0.67 0.92 1.37 1.95 2.74 3.31 3.44 3.18 2.87 2.77 2.69 2.68 2.40 2.24 2.11 1.95 1.84 1.79 1.60 1.33 1.15 1.02 0.83 0.72 0.68
0.01 0.02 0.02 0.02 0.04 0.08 0.09 0.06 0.06 0.09 0.15 0.33 0.52 1.03 1.18 0.97 0.91 0.75 0.72 0.70 0.83 1.14 1.47 1.89 2.14 2.04 2.15 2.26 2.28 2.36 2.41 2.12 2.09 1.99 1.63 1.43 1.32 1.20 1.03 0.94 0.94 0.96 0.80 0.66
0.02 0.03 0.02 0.02 0.03 0.04 0.04 0.03 0.04 0.11 0.22 0.41 0.60 0.85 0.96 0.76 0.89 0.72 0.59 0.61 0.63 0.81 0.89 0.99 1.12 1.25 1.43 1.53 1.69 1.97 2.17 2.12 1.96 1.78 1.61 1.50 1.33 1.27 1.23 1.18 1.14 1.06 0.95 0.78
0.03 0.04 0.03 0.02 0.02 0.03 0.03 0.05 0.12 0.23 0.40 0.89 0.84 0.82 1.02 0.92 0.90 0.69 0.51 0.46 0.53 0.67 0.75 0.78 0.81 0.92 1.06 1.16 1.31 1.58 1.87 2.00 1.94 1.78 1.63 1.54 1.47 1.39 1.30 1.25 1.20 1.05 0.96 0.90
0.09 0.07 0.05 0.03 0.03 0.05 0.05 0.07 0.24 0.58 0.98 1.14 0.71 0.78 1.04 0.79 0.68 0.51 0.30 0.27 0.41 0.60 0.73 0.78 0.73 0.67 0.71 0.86 1.02 1.13 1.29 1.53 1.64 1.61 1.53 1.48 1.54 1.41 1.21 1.10 1.04 1.00 0.88 0.80
0.14 0.12 0.06 0.04 0.04 0.06 0.05 0.04 0.11 0.22 0.33 0.51 0.66 1.05 1.18 0.83 0.55 0.30 0.19 0.22 0.36 0.51 0.53 0.58 0.57 0.50 0.47 0.58 0.79 0.91 1.08 1.24 1.43 1.41 1.35 1.31 1.36 1.30 1.18 1.14 0.96 0.88 0.85 0.80
0.05 0.05 0.04 0.04 0.05 0.06 0.05 0.03 0.04 0.07 0.12 0.32 0.66 0.96 0.91 0.72 0.50 0.31 0.22 0.22 0.22 0.27 0.35 0.46 0.49 0.47 0.43 0.46 0.65 0.77 0.93 1.12 1.31 1.40 1.37 1.27 1.28 1.30 1.24 1.14 1.01 0.88 0.93 0.90
0.02 0.02 0.04 0.04 0.05 0.06 0.05 0.04 0.04 0.05 0.11 0.23 0.50 0.87 1.05 0.86 0.58 0.34 0.30 0.28 0.28 0.30 0.30 0.42 0.50 0.44 0.39 0.38 0.46 0.59 0.76 0.97 1.11 1.26 1.25 1.13 1.26 1.25 1.21 1.14 1.03 0.93 0.89 0.88
0.02 0.02 0.05 0.05 0.06 0.08 0.07 0.06 0.06 0.05 0.08 0.14 0.33 0.55 0.51 0.45 0.36 0.31 0.34 0.32 0.26 0.30 0.28 0.37 0.42 0.42 0.40 0.34 0.36 0.44 0.58 0.74 0.84 0.93 1.00 0.98 1.04 1.02 1.01 1.04 1.03 1.00 0.97 0.93
0.02 0.02 0.03 0.06 0.09 0.08 0.09 0.09 0.09 0.08 0.08 0.09 0.16 0.34 0.29 0.30 0.30 0.29 0.37 0.38 0.31 0.30 0.38 0.34 0.29 0.35 0.42 0.34 0.29 0.33 0.42 0.55 0.63 0.68 0.73 0.77 0.83 0.89 0.88 0.88 0.96 1.03 0.99 0.94
0.03 0.02 0.03 0.11 0.17 0.15 0.10 0.08 0.09 0.10 0.09 0.08 0.20 0.39 0.30 0.22 0.30 0.28 0.31 0.48 0.52 0.27 0.26 0.26 0.26 0.32 0.36 0.32 0.29 0.30 0.34 0.42 0.49 0.50 0.57 0.67 0.74 0.76 0.75 0.77 0.86 0.95 1.00 1.00
0.03 0.02 0.03 0.09 0.18 0.20 0.16 0.11 0.11 0.10 0.07 0.07 0.13 0.32 0.30 0.26 0.28 0.36 0.46 0.43 0.33 0.21 0.18 0.19 0.23 0.32 0.35 0.33 0.29 0.30 0.37 0.46 0.51 0.55 0.66 0.76 0.82 0.83 0.83 0.81 0.85 0.92 1.00 1.02
0.03 0.02 0.02 0.03 0.06 0.11 0.15 0.15 0.12 0.08 0.05 0.07 0.10 0.19 0.18 0.24 0.29 0.37 0.36 0.31 0.31 0.27 0.22 0.24 0.28 0.41 0.44 0.44 0.41 0.41 0.47 0.56 0.65 0.75 0.90 1.07 1.19 1.19 1.11 1.08 1.11 1.13 1.18 1.22
0.03 0.03 0.03 0.03 0.06 0.10 0.12 0.13 0.10 0.07 0.05 0.05 0.07 0.13 0.15 0.24 0.29 0.34 0.30 0.29 0.34 0.36 0.29 0.29 0.38 0.48 0.46 0.42 0.41 0.43 0.50 0.58 0.62 0.70 0.80 0.96 1.14 1.21 1.17 1.15 1.23 1.31 1.35 1.47
0.06 0.06 0.04 0.04 0.07 0.09 0.15 0.12 0.09 0.08 0.07 0.07 0.10 0.13 0.16 0.23 0.34 0.40 0.39 0.42 0.41 0.34 0.27 0.27 0.34 0.39 0.44 0.38 0.35 0.37 0.43 0.56 0.68 0.80 0.91 0.98 1.08 1.18 1.21 1.22 1.30 1.38 1.38 1.38
0.16 0.14 0.11 0.09 0.10 0.15 0.15 0.11 0.11 0.10 0.11 0.14 0.17 0.18 0.22 0.25 0.32 0.38 0.39 0.38 0.38 0.40 0.44 0.47 0.55 0.54 0.51 0.45 0.42 0.46 0.55 0.66 0.74 0.82 0.91 0.96 1.06 1.17 1.28 1.41 1.48 1.52 1.56 1.55
0.27 0.28 0.22 0.16 0.15 0.17 0.19 0.17 0.17 0.19 0.22 0.22 0.30 0.35 0.33 0.33 0.33 0.40 0.45 0.44 0.49 0.47 0.47 0.55 0.63 0.68 0.59 0.58 0.58 0.65 0.73 0.84 0.90 0.94 1.01 1.07 1.13 1.26 1.35 1.42 1.52 1.60 1.67 1.63
0.32 0.35 0.32 0.24 0.26 0.27 0.26 0.27 0.22 0.23 0.44 0.39 0.41 0.46 0.45 0.46 0.59 0.71 0.71 0.60 0.57 0.58 0.57 0.63 0.63 0.61 0.68 0.71 0.73 0.79 0.88 0.98 1.05 1.06 1.08 1.12 1.26 1.34 1.35 1.35 1.41 1.46 1.50 1.48
0.36 0.42 0.39 0.35 0.34 0.32 0.29 0.29 0.30 0.52 0.77 0.73 0.70 0.68 0.59 0.64 0.70 0.70 0.64 0.67 0.63 0.64 0.72 0.68 0.65 0.67 0.70 0.69 0.72 0.81 0.92 1.01 1.05 1.07 1.06 1.11 1.21 1.34 1.38 1.42 1.39 1.35 1.33 1.34
0.55 0.60 0.58 0.54 0.63 0.63 0.43 0.44 0.61 0.78 0.77 0.89 0.78 0.68 0.65 0.62 0.61 0.58 0.59 0.68 0.73 0.73 0.78 0.73 0.66 0.63 0.64 0.69 0.73 0.81 0.89 0.91 0.95 0.96 0.97 1.01 1.03 1.05 1.12 1.28 1.33 1.33 1.33 1.34
0.72 0.77 0.80 0.73 0.78 0.70 0.57 0.60 0.65 0.61 0.63 0.74 0.70 0.60 0.59 0.56 0.53 0.50 0.55 0.61 0.63 0.66 0.70 0.69 0.69 0.68 0.69 0.73 0.78 0.86 0.88 0.91 0.92 0.99 1.03 1.01 1.00 1.05 1.11 1.18 1.20 1.18 1.15 1.11
0.85 0.67 0.79 0.97 0.96 0.81 0.67 0.56 0.56 0.55 0.55 0.58 0.65 0.68 0.63 0.56 0.51 0.49 0.50 0.54 0.63 0.69 0.69 0.69 0.69 0.71 0.78 0.84 0.89 0.87 0.84 0.89 0.96 0.99 1.01 1.04 1.08 1.05 1.05 1.11 1.10 1.06 1.04 1.01
0.90 0.83 1.00 1.35 1.40 1.17 1.00 0.84 0.73 0.66 0.63 0.64 0.69 0.72 0.73 0.69 0.63 0.61 0.54 0.53 0.54 0.59 0.59 0.62 0.68 0.74 0.81 0.84 0.88 0.91 0.89 0.91 0.96 0.93 0.90 0.97 1.03 0.98 0.93 1.02 1.09 1.01 1.00 1.04
0.86 1.00 1.27 1.57 1.45 1.38 1.27 1.02 0.86 0.80 0.81 0.75 0.77 0.79 0.78 0.75 0.71 0.66 0.64 0.56 0.50 0.51 0.59 0.66 0.69 0.75 0.81 0.84 0.87 0.87 0.87 0.93 0.97 1.00 0.94 0.89 0.89 0.90 0.93 0.98 1.01 1.00 0.87 0.87

GEFSCGP_prec_meanprecacc_168.txt.gz
Total_Precipitation_Accumulation
0.00 0.00 0.01 0.01 0.02 0.02 0.04 0.09 0.22 0.26 0.20 0.28 0.36 0.56 0.66 0.77 0.95 0.95 0.83 0.87 1.17 1.39 1.65 2.02 2.60 3.48 4.55 5.43 5.71 5.16 4.60 4.22 3.78 3.33 2.73 2.34 2.21 2.09 1.87 1.63 1.35 1.19 1.09 1.11
0.00 0.02 0.02 0.01 0.02 0.04 0.06 0.08 0.19 0.26 0.18 0.21 0.35 0.66 0.94 0.92 0.84 0.82 0.85 0.83 0.99 1.37 1.82 2.45 3.45 4.11 4.38 4.49 4.21 3.85 3.53 3.32 2.86 2.39 2.06 1.85 1.80 1.65 1.47 1.36 1.25 1.00 0.90 0.91
0.01 0.03 0.02 0.02 0.03 0.09 0.10 0.10 0.18 0.25 0.15 0.16 0.36 0.80 1.07 1.08 0.86 0.73 0.73 0.69 0.93 1.38 1.96 2.76 3.33 3.47 3.21 2.89 2.79 2.71 2.72 2.45 2.29 2.17 2.01 1.90 1.85 1.65 1.38 1.22 1.12 0.92 0.81 0.79
0.01 0.02 0.02 0.02 0.04 0.08 0.09 0.06 0.06 0.09 0.15 0.33 0.52 1.03 1.18 0.98 0.92 0.76 0.74 0.72 0.85 1.16 1.49 1.92 2.16 2.07 2.19 2.31 2.31 2.40 2.45 2.17 2.14 2.04 1.68 1.49 1.38 1.25 1.08 1.00 1.03 1.07 0.91 0.79
0.02 0.03 0.02 0.02 0.03 0.04 0.04 0.03 0.04 0.11 0.22 0.41 0.60 0.85 0.96 0.76 0.90 0.73 0.61 0.63 0.65 0.83 0.92 1.02 1.14 1.28 1.49 1.59 1.74 2.03 2.22 2.15 1.99 1.81 1.66 1.56 1.39 1.33 1.29 1.24 1.21 1.16 1.07 0.90
0.03 0.04 0.03 0.02 0.02 0.03 0.03 0.05 0.12 0.23 0.40 0.89 0.84 0.82 1.02 0.92 0.91 0.69 0.52 0.47 0.55 0.70 0.78 0.81 0.85 0.98 1.14 1.26 1.40 1.65 1.94 2.05 1.98 1.81 1.66 1.58 1.51 1.44 1.35 1.30 1.26 1.12 1.04 0.98
0.09 0.07 0.05 0.03 0.03 0.05 0.05 0.07 0.24 0.58 0.98 1.14 0.71 0.78 1.05 0.79 0.68 0.51 0.31 0.29 0.43 0.64 0.77 0.83 0.79 0.75 0.82 0.97 1.13 1.21 1.37 1.60 1.70 1.65 1.58 1.53 1.58 1.44 1.24 1.14 1.09 1.05 0.93 0.85
0.14 0.12 0.06 0.04 0.04 0.06 0.05 0.04 0.11 0.22 0.33 0.51 0.66 1.05 1.18 0.84 0.56 0.31 0.20 0.24 0.39 0.55 0.59 0.65 0.67 0.62 0.59 0.69 0.87 0.98 1.15 1.30 1.48 1.47 1.41 1.36 1.40 1.32 1.21 1.18 0.99 0.91 0.88 0.83
0.05 0.05 0.04 0.04 0.05 0.06 0.05 0.03 0.04 0.07 0.12 0.32 0.66 0.96 0.92 0.73 0.51 0.32 0.23 0.23 0.25 0.33 0.40 0.50 0.58 0.62 0.62 0.62 0.73 0.84 1.02 1.18 1.35 1.45 1.44 1.33 1.32 1.33 1.29 1.18 1.04 0.91 0.95 0.93
0.02 0.02 0.04 0.04 0.05 0.06 0.05 0.04 0.04 0.05 0.11 0.23 0.50 0.87 1.05 0.87 0.58 0.35 0.30 0.29 0.34 0.36 0.32 0.44 0.56 0.58 0.52 0.45 0.52 0.66 0.82 1.02 1.15 1.31 1.32 1.20 1.33 1.30 1.27 1.18 1.05 0.94 0.91 0.90
0.02 0.02 0.05 0.05 0.06 0.08 0.07 0.06 0.06 0.05 0.08 0.14 0.33 0.55 0.51 0.45 0.36 0.31 0.34 0.32 0.28 0.31 0.29 0.38 0.45 0.47 0.43 0.38 0.40 0.48 0.63 0.79 0.88 0.97 1.08 1.07 1.12 1.08 1.06 1.07 1.05 1.02 0.98 0.94
0.02 0.02 0.03 0.06 0.09 0.08 0.09 0.09 0.09 0.08 0.08 0.09 0.16 0.34 0.29 0.30 0.30 0.29 0.37 0.39 0.31 0.30 0.39 0.35 0.31 0.38 0.45 0.38 0.33 0.37 0.49 0.62 0.68 0.75 0.79 0.83 0.90 0.94 0.92 0.91 0.99 1.06 1.01 0.96
0.03 0.02 0.03 0.11 0.17 0.15 0.10 0.08 0.09 0.10 0.09 0.08 0.20 0.39 0.30 0.23 0.30 0.28 0.32 0.49 0.53 0.27 0.26 0.27 0.28 0.33 0.38 0.35 0.32 0.37 0.43 0.51 0.59 0.59 0.63 0.71 0.77 0.79 0.79 0.81 0.89 0.99 1.03 1.04
0.03 0.02 0.03 0.09 0.18 0.20 0.16 0.11 0.11 0.10 0.07 0.07 0.13 0.32 0.30 0.27 0.28 0.37 0.46 0.43 0.33 0.21 0.18 0.20 0.24 0.33 0.37 0.34 0.31 0.34 0.41 0.52 0.57 0.61 0.73 0.82 0.88 0.87 0.87 0.85 0.90 0.97 1.03 1.05
0.03 0.02 0.02 0.03 0.06 0.11 0.15 0.15 0.12 0.08 0.05 0.07 0.10 0.19 0.18 0.24 0.29 0.38 0.36 0.31 0.31 0.28 0.23 0.24 0.28 0.42 0.47 0.47 0.44 0.43 0.49 0.58 0.67 0.78 0.93 1.11 1.23 1.23 1.15 1.12 1.16 1.19 1.23 1.26
0.03 0.03 0.03 0.03 0.06 0.10 0.12 0.13 0.10 0.07 0.05 0.05 0.07 0.13 0.15 0.24 0.29 0.34 0.30 0.29 0.34 0.37 0.30 0.30 0.39 0.50 0.49 0.45 0.45 0.45 0.51 0.60 0.64 0.72 0.82 0.99 1.17 1.26 1.22 1.20 1.29 1.36 1.41 1.52
0.06 0.06 0.04 0.04 0.07 0.09 0.15 0.12 0.09 0.08 0.07 0.07 0.10 0.13 0.16 0.23 0.34 0.41 0.39 0.43 0.41 0.35 0.28 0.28 0.36 0.41 0.46 0.40 0.38 0.39 0.45 0.59 0.70 0.83 0.93 1.01 1.12 1.22 1.25 1.25 1.34 1.43 1.43 1.42
0.16 0.14 0.11 0.09 0.10 0.15 0.15 0.12 0.11 0.10 0.11 0.14 0.17 0.18 0.22 0.25 0.33 0.39 0.40 0.39 0.39 0.41 0.46 0.49 0.57 0.57 0.52 0.48 0.48 0.51 0.58 0.69 0.77 0.84 0.93 0.99 1.09 1.20 1.31 1.44 1.51 1.56 1.60 1.60
0.27 0.28 0.22 0.16 0.15 0.17 0.20 0.18 0.17 0.19 0.23 0.23 0.30 0.35 0.34 0.33 0.34 0.41 0.45 0.46 0.50 0.48 0.49 0.58 0.66 0.70 0.61 0.62 0.62 0.69 0.77 0.87 0.94 0.96 1.04 1.11 1.17 1.30 1.38 1.45 1.56 1.64 1.70 1.66
0.32 0.35 0.32 0.24 0.26 0.27 0.26 0.27 0.22 0.24 0.45 0.41 0.42 0.49 0.47 0.48 0.61 0.72 0.72 0.61 0.59 0.60 0.60 0.66 0.66 0.65 0.71 0.75 0.77 0.83 0.93 1.04 1.11 1.10 1.13 1.18 1.32 1.40 1.40 1.39 1.45 1.49 1.52 1.52
0.36 0.42 0.39 0.35 0.34 0.32 0.29 0.29 0.30 0.53 0.77 0.75 0.72 0.70 0.62 0.66 0.72 0.71 0.65 0.68 0.65 0.68 0.75 0.72 0.70 0.72 0.74 0.74 0.76 0.86 0.97 1.09 1.16 1.16 1.15 1.21 1.29 1.43 1.46 1.47 1.43 1.37 1.35 1.35
0.55 0.60 0.58 0.54 0.63 0.63 0.43 0.45 0.61 0.79 0.78 0.90 0.79 0.69 0.67 0.65 0.64 0.60 0.61 0.71 0.77 0.79 0.83 0.80 0.76 0.71 0.70 0.75 0.79 0.86 0.97 1.01 1.05 1.05 1.06 1.10 1.13 1.14 1.20 1.32 1.36 1.35 1.35 1.35
0.72 0.77 0.80 0.74 0.78 0.70 0.58 0.60 0.65 0.62 0.63 0.75 0.71 0.62 0.62 0.59 0.56 0.53 0.58 0.65 0.67 0.71 0.76 0.76 0.77 0.76 0.75 0.79 0.84 0.92 0.94 0.97 0.98 1.05 1.11 1.12 1.09 1.11 1.17 1.22 1.23 1.21 1.17 1.13
0.86 0.68 0.80 0.98 0.96 0.82 0.68 0.57 0.57 0.56 0.56 0.59 0.67 0.71 0.67 0.61 0.56 0.55 0.57 0.62 0.70 0.76 0.76 0.75 0.74 0.76 0.85 0.91 0.97 0.94 0.89 0.94 1.02 1.06 1.06 1.08 1.11 1.08 1.08 1.16 1.13 1.08 1.06 1.03
0.91 0.84 1.01 1.37 1.41 1.19 1.01 0.85 0.74 0.68 0.65 0.66 0.72 0.76 0.80 0.79 0.76 0.73 0.65 0.62 0.63 0.69 0.68 0.68 0.74 0.80 0.87 0.90 0.95 1.00 0.97 0.97 1.01 0.98 0.94 1.00 1.05 1.01 0.96 1.04 1.11 1.02 1.02 1.05
0.88 1.02 1.29 1.59 1.47 1.40 1.29 1.04 0.88 0.83 0.83 0.77 0.79 0.81 0.81 0.80 0.80 0.77 0.75 0.65 0.58 0.58 0.67 0.73 0.76 0.82 0.87 0.88 0.90 0.91 0.92 0.97 1.02 1.05 0.98 0.92 0.92 0.93 0.96 1.00 1.02 1.01 0.89 0.88

GEFSCGP_prec_meanprecacc_174.txt.gz
Total_Precipitation_Accumulation
0.00 0.00 0.01 0.01 0.02 0.02 0.04 0.09 0.22 0.26 0.20 0.28 0.36 0.56 0.66 0.77 0.95 0.95 0.83 0.87 1.18 1.39 1.65 2.02 2.60 3.49 4.56 5.46 5.74 5.21 4.65 4.28 3.83 3.38 2.81 2.42 2.32 2.20 1.97 1.72 1.43 1.26 1.17 1.22
0.00 0.02 0.02 0.01 0.02 0.04 0.06 0.08 0.19 0.26 0.18 0.21 0.35 0.66 0.94 0.92 0.84 0.82 0.85 0.83 0.99 1.38 1.82 2.46 3.46 4.12 4.39 4.50 4.26 3.89 3.58 3.37 2.91 2.47 2.19 1.94 1.90 1.74 1.57 1.47 1.36 1.08 0.98 1.00
0.01 0.03 0.02 0.02 0.03 0.09 0.10 0.10 0.18 0.25 0.15 0.16 0.36 0.80 1.07 1.08 0.86 0.73 0.73 0.70 0.94 1.39 1.97 2.77 3.34 3.48 3.22 2.90 2.81 2.74 2.77 2.51 2.36 2.25 2.12 2.00 1.94 1.73 1.48 1.34 1.21 1.00 0.87 0.86
0.01 0.02 0.02 0.02 0.04 0.08 0.09 0.06 0.06 0.09 0.15 0.33 0.52 1.03 1.18 0.98 0.92 0.76 0.74 0.72 0.85 1.16 1.49 1.92 2.18 2.08 2.21 2.34 2.33 2.42 2.50 2.24 2.21 2.13 1.78 1.60 1.49 1.34 1.21 1.15 1.13 1.19 1.00 0.86
0.02 0.03 0.02 0.02 0.03 0.04 0.04 0.03 0.04 0.11 0.22 0.41 0.60 0.85 0.96 0.76 0.90 0.73 0.61 0.63 0.65 0.84 0.92 1.03 1.16 1.30 1.51 1.62 1.78 2.05 2.26 2.20 2.04 1.86 1.71 1.65 1.48 1.41 1.40 1.42 1.34 1.29 1.19 1.00
0.03 0.04 0.03 0.02 0.02 0.03 0.03 0.05 0.12 0.23 0.40 0.89 0.84 0.82 1.02 0.92 0.91 0.69 0.52 0.47 0.55 0.70 0.79 0.82 0.86 0.99 1.16 1.30 1.45 1.69 1.98 2.09 2.01 1.85 1.71 1.63 1.58 1.51 1.42 1.39 1.33 1.19 1.11 1.06
0.09 0.07 0.05 0.03 0.03 0.05 0.05 0.07 0.24 0.58 0.98 1.14 0.71 0.78 1.05 0.79 0.68 0.51 0.31 0.29 0.43 0.64 0.77 0.83 0.79 0.75 0.83 0.99 1.14 1.23 1.39 1.62 1.73 1.69 1.64 1.57 1.63 1.50 1.30 1.20 1.13 1.10 0.98 0.90
0.14 0.12 0.06 0.04 0.04 0.06 0.05 0.04 0.11 0.22 0.33 0.51 0.66 1.05 1.18 0.84 0.56 0.31 0.20 0.24 0.39 0.55 0.59 0.65 0.67 0.62 0.60 0.69 0.88 0.99 1.16 1.33 1.51 1.50 1.45 1.40 1.44 1.36 1.25 1.23 1.03 0.94 0.92 0.87
0.05 0.05 0.04 0.04 0.05 0.06 0.05 0.03 0.04 0.07 0.12 0.32 0.66 0.96 0.92 0.73 0.51 0.32 0.23 0.23 0.25 0.33 0.40 0.51 0.58 0.62 0.62 0.62 0.73 0.84 1.03 1.20 1.37 1.47 1.47 1.38 1.37 1.38 1.32 1.23 1.08 0.94 0.99 0.96
0.02 0.02 0.04 0.04 0.05 0.06 0.05 0.04 0.04 0.05 0.11 0.23 0.50 0.87 1.05 0.87 0.58 0.35 0.30 0.29 0.34 0.36 0.32 0.44 0.56 0.59 0.53 0.46 0.52 0.67 0.83 1.03 1.17 1.33 1.35 1.25 1.39 1.36 1.32 1.24 1.11 0.99 0.95 0.93
0.02 0.02 0.05 0.05 0.06 0.08 0.07 0.06 0.06 0.05 0.08 0.14 0.33 0.55 0.51 0.45 0.36 0.31 0.34 0.32 0.28 0.31 0.29 0.39 0.45 0.49 0.45 0.38 0.40 0.48 0.64 0.80 0.90 1.00 1.11 1.11 1.17 1.15 1.11 1.12 1.12 1.06 1.01 0.97
0.02 0.02 0.03 0.06 0.09 0.08 0.09 0.09 0.09 0.08 0.08 0.09 0.16 0.34 0.29 0.30 0.30 0.29 0.37 0.39 0.32 0.30 0.39 0.35 0.32 0.40 0.46 0.38 0.33 0.39 0.51 0.64 0.71 0.78 0.82 0.88 0.95 0.99 0.95 0.94 1.03 1.09 1.04 0.98
0.03 0.02 0.03 0.11 0.17 0.15 0.10 0.08 0.09 0.10 0.09 0.08 0.20 0.39 0.30 0.23 0.30 0.28 0.32 0.49 0.53 0.28 0.26 0.27 0.28 0.34 0.39 0.36 0.33 0.39 0.46 0.54 0.62 0.63 0.67 0.76 0.83 0.84 0.83 0.85 0.94 1.02 1.07 1.08
0.03 0.02 0.03 0.09 0.18 0.20 0.16 0.11 0.11 0.10 0.07 0.07 0.13 0.32 0.30 0.27 0.28 0.37 0.46 0.43 0.33 0.21 0.18 0.20 0.25 0.33 0.37 0.35 0.32 0.35 0.43 0.55 0.61 0.65 0.77 0.88 0.93 0.93 0.93 0.90 0.95 1.01 1.09 1.11
0.03 0.02 0.02 0.03 0.06 0.11 0.15 0.15 0.12 0.08 0.05 0.07 0.10 0.19 0.18 0.24 0.29 0.38 0.36 0.32 0.31 0.28 0.23 0.25 0.28 0.42 0.47 0.47 0.44 0.44 0.50 0.60 0.70 0.79 0.94 1.12 1.26 1.28 1.18 1.14 1.18 1.22 1.29 1.35
0.03 0.03 0.03 0.03 0.06 0.10 0.12 0.13 0.10 0.07 0.05 0.05 0.07 0.13 0.15 0.24 0.29 0.34 0.30 0.29 0.35 0.37 0.30 0.30 0.39 0.50 0.49 0.45 0.46 0.46 0.52 0.61 0.65 0.73 0.83 1.00 1.18 1.27 1.24 1.21 1.30 1.39 1.44 1.57
0.06 0.06 0.04 0.04 0.07 0.09 0.15 0.12 0.09 0.08 0.07 0.07 0.10 0.13 0.16 0.23 0.34 0.41 0.40 0.43 0.42 0.35 0.29 0.29 0.36 0.41 0.47 0.41 0.39 0.41 0.46 0.59 0.71 0.83 0.94 1.02 1.14 1.23 1.26 1.26 1.36 1.45 1.47 1.47
0.16 0.14 0.11 0.09 0.10 0.15 0.15 0.12 0.11 0.10 0.11 0.14 0.17 0.18 0.22 0.25 0.33 0.39 0.40 0.40 0.39 0.41 0.46 0.50 0.57 0.57 0.53 0.51 0.50 0.53 0.59 0.69 0.77 0.84 0.94 1.00 1.10 1.22 1.33 1.47 1.56 1.61 1.65 1.65
0.27 0.28 0.22 0.16 0.15 0.17 0.20 0.18 0.17 0.19 0.23 0.23 0.31 0.35 0.34 0.33 0.34 0.42 0.46 0.46 0.50 0.48 0.49 0.58 0.66 0.71 0.64 0.66 0.65 0.72 0.79 0.89 0.94 0.97 1.05 1.12 1.19 1.31 1.40 1.48 1.60 1.69 1.76 1.72
0.32 0.35 0.32 0.24 0.26 0.27 0.26 0.27 0.22 0.24 0.45 0.41 0.42 0.49 0.47 0.48 0.61 0.72 0.72 0.61 0.59 0.60 0.61 0.67 0.68 0.68 0.76 0.79 0.81 0.88 0.96 1.06 1.12 1.11 1.15 1.19 1.34 1.42 1.43 1.43 1.49 1.52 1.58 1.59
0.36 0.42 0.39 0.35 0.34 0.32 0.29 0.29 0.31 0.53 0.78 0.75 0.72 0.70 0.62 0.67 0.73 0.72 0.65 0.69 0.66 0.69 0.76 0.73 0.72 0.75 0.78 0.78 0.81 0.90 1.00 1.11 1.17 1.17 1.17 1.23 1.31 1.46 1.50 1.51 1.47 1.41 1.39 1.41
0.55 0.60 0.58 0.54 0.63 0.63 0.43 0.45 0.62 0.79 0.78 0.91 0.79 0.70 0.68 0.66 0.65 0.61 0.62 0.72 0.79 0.81 0.86 0.83 0.79 0.75 0.75 0.81 0.85 0.91 1.00 1.04 1.07 1.07 1.10 1.15 1.18 1.19 1.24 1.36 1.40 1.39 1.37 1.38
0.72 0.77 0.80 0.74 0.78 0.70 0.58 0.61 0.66 0.62 0.64 0.76 0.72 0.63 0.63 0.60 0.57 0.54 0.59 0.66 0.69 0.73 0.80 0.80 0.81 0.80 0.80 0.84 0.90 0.97 0.99 1.01 1.01 1.08 1.15 1.19 1.20 1.23 1.24 1.27 1.27 1.24 1.20 1.15
0.86 0.68 0.80 0.98 0.97 0.82 0.69 0.58 0.58 0.57 0.57 0.60 0.68 0.71 0.68 0.62 0.57 0.56 0.58 0.63 0.72 0.78 0.78 0.79 0.78 0.81 0.88 0.95 1.01 0.97 0.92 0.97 1.05 1.08 1.08 1.10 1.15 1.14 1.13 1.19 1.17 1.12 1.10 1.06
0.91 0.85 1.02 1.38 1.42 1.20 1.03 0.86 0.76 0.70 0.67 0.68 0.73 0.78 0.82 0.81 0.78 0.74 0.66 0.64 0.66 0.71 0.71 0.72 0.78 0.83 0.90 0.93 0.98 1.03 0.99 0.99 1.03 0.99 0.96 1.02 1.07 1.02 0.97 1.06 1.12 1.04 1.04 1.07
0.88 1.02 1.29 1.60 1.48 1.42 1.30 1.04 0.89 0.84 0.85 0.80 0.82 0.83 0.82 0.81 0.81 0.80 0.78 0.68 0.61 0.61 0.70 0.76 0.79 0.85 0.90 0.91 0.93 0.94 0.94 0.99 1.04 1.07 1.00 0.95 0.93 0.94 0.97 1.01 1.03 1.02 0.89 0.89

GEFSCGP_prec_meanprecacc_180.txt.gz
Total_Precipitation_Accumulation
0.00 0.00 0.01 0.01 0.02 0.02 0.04 0.09 0.22 0.26 0.20 0.28 0.36 0.57 0.66 0.77 0.95 0.95 0.83 0.87 1.18 1.39 1.65 2.03 2.61 3.49 4.57 5.47 5.76 5.23 4.69 4.33 3.88 3.45 2.89 2.50 2.40 2.28 2.04 1.78 1.48 1.32 1.22 1.27
0.00 0.02 0.02 0.01 0.02 0.04 0.06 0.08 0.19 0.26 0.18 0.21 0.36 0.67 0.95 0.92 0.85 0.82 0.85 0.84 0.99 1.38 1.82 2.46 3.47 4.12 4.39 4.52 4.28 3.93 3.65 3.42 2.96 2.54 2.27 2.03 1.97 1.80 1.63 1.53 1.44 1.15 1.02 1.04
0.01 0.03 0.02 0.02 0.03 0.09 0.10 0.10 0.18 0.25 0.15 0.16 0.37 0.84 1.11 1.10 0.87 0.74 0.73 0.70 0.94 1.39 1.97 2.77 3.35 3.48 3.22 2.92 2.82 2.77 2.81 2.56 2.41 2.31 2.20 2.08 2.02 1.80 1.56 1.41 1.30 1.06 0.92 0.91
0.01 0.02 0.02 0.02 0.04 0.08 0.09 0.06 0.06 0.09 0.15 0.33 0.52 1.07 1.25 1.02 0.96 0.79 0.76 0.74 0.85 1.16 1.49 1.93 2.18 2.08 2.21 2.34 2.34 2.44 2.53 2.28 2.25 2.17 1.85 1.72 1.60 1.45 1.30 1.23 1.22 1.26 1.06 0.92
0.02 0.03 0.02 0.02 0.03 0.04 0.04 0.03 0.04 0.11 0.22 0.42 0.61 0.87 1.02 0.82 0.97 0.78 0.65 0.65 0.65 0.84 0.92 1.03 1.16 1.30 1.51 1.62 1.78 2.07 2.30 2.25 2.08 1.90 1.77 1.75 1.61 1.52 1.49 1.51 1.46 1.40 1.27 1.06
0.03 0.04 0.03 0.02 0.02 0.03 0.03 0.05 0.12 0.23 0.40 0.89 0.85 0.83 1.05 0.96 0.99 0.75 0.55 0.48 0.55 0.70 0.79 0.82 0.86 0.99 1.17 1.30 1.45 1.70 2.00 2.13 2.05 1.88 1.75 1.70 1.68 1.61 1.52 1.50 1.44 1.28 1.18 1.11
0.09 0.07 0.05 0.03 0.03 0.05 0.05 0.07 0.24 0.58 0.98 1.14 0.71 0.78 1.05 0.80 0.71 0.55 0.34 0.30 0.43 0.64 0.77 0.83 0.80 0.76 0.83 0.99 1.15 1.23 1.40 1.65 1.76 1.72 1.67 1.63 1.70 1.57 1.39 1.30 1.21 1.16 1.01 0.93
0.14 0.12 0.06 0.04 0.04 0.06 0.05 0.04 0.11 0.22 0.33 0.52 0.67 1.05 1.18 0.84 0.56 0.31 0.20 0.24 0.39 0.55 0.59 0.66 0.67 0.62 0.60 0.69 0.88 0.99 1.17 1.34 1.53 1.53 1.49 1.45 1.49 1.42 1.32 1.31 1.09 0.99 0.95 0.90
0.05 0.05 0.04 0.04 0.05 0.06 0.05 0.03 0.04 0.07 0.12 0.32 0.67 0.96 0.92 0.73 0.51 0.32 0.23 0.23 0.25 0.33 0.40 0.51 0.59 0.63 0.62 0.62 0.74 0.85 1.05 1.22 1.39 1.50 1.51 1.42 1.42 1.42 1.39 1.32 1.14 0.99 1.04 0.99
0.02 0.02 0.04 0.04 0.05 0.06 0.05 0.04 0.04 0.05 0.11 0.24 0.51 0.88 1.05 0.88 0.59 0.35 0.30 0.29 0.34 0.36 0.32 0.44 0.56 0.59 0.53 0.46 0.53 0.68 0.84 1.06 1.20 1.36 1.39 1.29 1.44 1.41 1.39 1.31 1.19 1.05 1.01 0.99
0.02 0.02 0.05 0.05 0.06 0.08 0.07 0.06 0.06 0.05 0.08 0.14 0.35 0.57 0.52 0.47 0.38 0.32 0.35 0.32 0.28 0.32 0.30 0.39 0.45 0.49 0.45 0.38 0.40 0.49 0.66 0.83 0.93 1.03 1.15 1.15 1.22 1.19 1.18 1.20 1.19 1.13 1.09 1.05
0.02 0.02 0.03 0.06 0.09 0.08 0.09 0.09 0.09 0.08 0.08 0.09 0.17 0.35 0.29 0.31 0.32 0.30 0.39 0.40 0.32 0.31 0.39 0.35 0.32 0.40 0.49 0.39 0.33 0.39 0.52 0.66 0.74 0.81 0.85 0.91 0.99 1.03 1.00 0.99 1.08 1.15 1.10 1.03
0.03 0.02 0.03 0.11 0.17 0.15 0.10 0.08 0.09 0.10 0.09 0.08 0.20 0.39 0.31 0.23 0.30 0.28 0.32 0.49 0.54 0.32 0.28 0.27 0.28 0.35 0.46 0.39 0.34 0.40 0.48 0.56 0.65 0.67 0.72 0.80 0.86 0.87 0.86 0.89 0.99 1.08 1.12 1.13
0.03 0.02 0.03 0.10 0.19 0.20 0.16 0.11 0.11 0.10 0.07 0.07 0.13 0.32 0.30 0.27 0.29 0.37 0.46 0.43 0.34 0.25 0.21 0.20 0.25 0.33 0.40 0.38 0.34 0.37 0.47 0.62 0.66 0.68 0.81 0.92 0.96 0.95 0.95 0.94 0.99 1.07 1.16 1.18
0.03 0.02 0.02 0.03 0.06 0.11 0.15 0.15 0.12 0.08 0.05 0.07 0.10 0.19 0.21 0.27 0.32 0.38 0.36 0.32 0.32 0.32 0.27 0.25 0.28 0.42 0.48 0.49 0.46 0.46 0.52 0.65 0.76 0.84 0.97 1.14 1.28 1.30 1.20 1.16 1.20 1.27 1.34 1.40
0.03 0.03 0.03 0.03 0.06 0.10 0.12 0.13 0.10 0.07 0.05 0.05 0.07 0.13 0.18 0.30 0.32 0.36 0.31 0.29 0.35 0.38 0.32 0.30 0.39 0.50 0.49 0.46 0.46 0.47 0.53 0.61 0.66 0.75 0.85 1.01 1.19 1.28 1.25 1.23 1.33 1.44 1.50 1.62
0.06 0.06 0.04 0.04 0.07 0.09 0.15 0.12 0.09 0.08 0.07 0.07 0.10 0.14 0.18 0.24 0.34 0.41 0.40 0.43 0.42 0.35 0.29 0.29 0.36 0.41 0.47 0.42 0.40 0.42 0.47 0.60 0.71 0.84 0.95 1.02 1.15 1.24 1.28 1.29 1.39 1.49 1.52 1.53
0.16 0.14 0.11 0.09 0.10 0.15 0.15 0.12 0.11 0.10 0.11 0.15 0.18 0.20 0.25 0.26 0.33 0.39 0.40 0.40 0.39 0.41 0.47 0.50 0.57 0.58 0.54 0.51 0.51 0.57 0.61 0.71 0.78 0.85 0.94 1.00 1.11 1.23 1.35 1.50 1.60 1.66 1.71 1.71
0.27 0.28 0.22 0.16 0.15 0.17 0.20 0.18 0.17 0.19 0.23 0.23 0.31 0.36 0.36 0.35 0.34 0.42 0.46 0.46 0.50 0.49 0.49 0.58 0.66 0.71 0.65 0.67 0.67 0.75 0.81 0.90 0.96 0.98 1.06 1.13 1.21 1.34 1.43 1.51 1.64 1.74 1.82 1.79
0.32 0.35 0.32 0.24 0.26 0.28 0.27 0.28 0.23 0.24 0.46 0.41 0.43 0.49 0.48 0.48 0.62 0.74 0.73 0.63 0.60 0.61 0.61 0.67 0.68 0.69 0.77 0.81 0.83 0.90 0.98 1.08 1.14 1.13 1.16 1.21 1.37 1.45 1.46 1.47 1.55 1.59 1.64 1.67
0.36 0.42 0.39 0.35 0.34 0.33 0.31 0.31 0.31 0.54 0.79 0.75 0.72 0.70 0.62 0.68 0.74 0.73 0.66 0.70 0.66 0.69 0.77 0.75 0.74 0.78 0.81 0.81 0.83 0.92 1.03 1.14 1.19 1.20 1.20 1.26 1.35 1.50 1.53 1.56 1.53 1.47 1.47 1.51
0.56 0.60 0.58 0.55 0.63 0.65 0.45 0.47 0.63 0.81 0.78 0.91 0.79 0.70 0.68 0.67 0.66 0.62 0.62 0.72 0.79 0.81 0.87 0.85 0.82 0.79 0.79 0.84 0.88 0.95 1.06 1.10 1.11 1.10 1.13 1.19 1.22 1.22 1.27 1.42 1.47 1.46 1.45 1.47
0.72 0.77 0.80 0.75 0.81 0.73 0.61 0.62 0.67 0.63 0.64 0.76 0.73 0.63 0.64 0.62 0.59 0.55 0.60 0.67 0.70 0.75 0.82 0.83 0.85 0.85 0.84 0.88 0.94 1.05 1.08 1.08 1.07 1.11 1.18 1.22 1.24 1.27 1.30 1.34 1.37 1.34 1.29 1.23
0.87 0.68 0.81 1.00 1.00 0.86 0.71 0.59 0.59 0.58 0.59 0.61 0.69 0.73 0.70 0.64 0.59 0.58 0.60 0.65 0.74 0.80 0.82 0.84 0.84 0.87 0.96 1.01 1.08 1.06 1.01 1.03 1.11 1.13 1.12 1.13 1.18 1.18 1.21 1.31 1.29 1.23 1.17 1.10
0.95 0.87 1.05 1.41 1.47 1.25 1.07 0.88 0.77 0.71 0.68 0.69 0.75 0.80 0.85 0.84 0.81 0.78 0.70 0.67 0.69 0.76 0.76 0.78 0.84 0.90 0.98 1.00 1.05 1.12 1.10 1.06 1.08 1.04 1.00 1.07 1.11 1.06 1.01 1.11 1.18 1.08 1.06 1.09
0.96 1.09 1.36 1.67 1.53 1.48 1.35 1.08 0.91 0.86 0.87 0.81 0.83 0.85 0.85 0.84 0.84 0.83 0.81 0.70 0.63 0.64 0.73 0.80 0.83 0.89 0.96 0.98 1.00 1.00 1.01 1.04 1.09 1.12 1.06 1.00 0.98 0.97 0.99 1.04 1.06 1.04 0.91 0.90

GEFSCGP_prec_meanprecacc_186.txt.gz
Total_Precipitation_Accumulation
0.00 0.00 0.01 0.01 0.02 0.02 0.05 0.09 0.22 0.27 0.20 0.29 0.37 0.59 0.69 0.80 1.00 1.00 0.87 0.92 1.22 1.42 1.68 2.06 2.63 3.50 4.57 5.48 5.77 5.25 4.72 4.36 3.92 3.48 2.92 2.53 2.44 2.32 2.07 1.80 1.51 1.36 1.27 1.31
0.00 0.02 0.02 0.01 0.02 0.04 0.06 0.08 0.20 0.26 0.18 0.21 0.36 0.69 0.98 0.97 0.90 0.87 0.93 0.94 1.05 1.42 1.86 2.52 3.50 4.13 4.39 4.53 4.29 3.95 3.68 3.45 2.99 2.58 2.31 2.06 2.00 1.83 1.66 1.56 1.48 1.19 1.07 1.08
0.01 0.03 0.02 0.02 0.03 0.09 0.10 0.11 0.18 0.25 0.16 0.16 0.37 0.85 1.13 1.13 0.90 0.78 0.84 0.83 1.02 1.45 2.03 2.82 3.37 3.50 3.23 2.93 2.83 2.78 2.83 2.58 2.43 2.35 2.23 2.12 2.06 1.83 1.59 1.46 1.37 1.12 0.97 0.96
0.01 0.02 0.02 0.02 0.04 0.08 0.09 0.07 0.06 0.09 0.15 0.33 0.52 1.08 1.26 1.03 0.98 0.83 0.84 0.86 0.92 1.20 1.54 1.96 2.20 2.09 2.21 2.35 2.36 2.46 2.55 2.30 2.27 2.20 1.88 1.76 1.64 1.50 1.34 1.27 1.26 1.30 1.11 0.97
0.02 0.03 0.02 0.02 0.03 0.04 0.04 0.03 0.04 0.11 0.22 0.42 0.61 0.87 1.03 0.84 1.02 0.83 0.70 0.69 0.68 0.86 0.94 1.04 1.17 1.31 1.52 1.63 1.79 2.09 2.33 2.28 2.11 1.93 1.81 1.80 1.66 1.59 1.54 1.55 1.49 1.44 1.33 1.12
0.03 0.04 0.03 0.02 0.02 0.03 0.03 0.05 0.12 0.23 0.40 0.89 0.85 0.83 1.06 0.98 1.05 0.80 0.60 0.51 0.57 0.71 0.80 0.83 0.88 1.01 1.18 1.31 1.47 1.71 2.02 2.15 2.07 1.91 1.79 1.74 1.73 1.66 1.56 1.54 1.47 1.32 1.24 1.18
0.09 0.07 0.05 0.03 0.03 0.05 0.05 0.07 0.24 0.58 0.98 1.15 0.72 0.79 1.05 0.81 0.73 0.57 0.36 0.31 0.45 0.66 0.80 0.87 0.82 0.80 0.86 1.01 1.16 1.24 1.41 1.66 1.78 1.75 1.70 1.66 1.73 1.60 1.41 1.33 1.24 1.18 1.04 0.96
0.14 0.12 0.06 0.04 0.04 0.06 0.05 0.04 0.11 0.22 0.33 0.52 0.69 1.07 1.19 0.85 0.57 0.33 0.23 0.27 0.42 0.59 0.63 0.69 0.69 0.65 0.63 0.71 0.89 1.00 1.18 1.35 1.54 1.54 1.51 1.48 1.52 1.45 1.35 1.34 1.12 1.02 0.98 0.93
0.05 0.05 0.04 0.04 0.05 0.06 0.05 0.03 0.04 0.07 0.12 0.32 0.69 0.99 0.94 0.74 0.55 0.37 0.28 0.30 0.32 0.39 0.43 0.53 0.60 0.67 0.65 0.64 0.74 0.86 1.05 1.23 1.40 1.51 1.53 1.45 1.44 1.44 1.41 1.34 1.17 1.02 1.08 1.03
0.02 0.02 0.04 0.04 0.05 0.06 0.05 0.04 0.04 0.05 0.11 0.24 0.52 0.90 1.09 0.91 0.68 0.49 0.39 0.37 0.41 0.40 0.35 0.47 0.59 0.63 0.55 0.48 0.54 0.69 0.85 1.07 1.22 1.38 1.41 1.31 1.46 1.44 1.42 1.35 1.22 1.09 1.04 1.03
0.02 0.02 0.05 0.05 0.06 0.08 0.07 0.06 0.06 0.05 0.08 0.14 0.36 0.58 0.56 0.51 0.44 0.40 0.46 0.43 0.33 0.35 0.32 0.40 0.49 0.52 0.48 0.40 0.42 0.50 0.67 0.84 0.95 1.06 1.17 1.17 1.24 1.23 1.23 1.25 1.23 1.17 1.12 1.09
0.02 0.02 0.03 0.06 0.09 0.08 0.09 0.09 0.09 0.08 0.08 0.09 0.18 0.36 0.31 0.34 0.35 0.35 0.47 0.51 0.42 0.38 0.42 0.37 0.34 0.43 0.53 0.48 0.37 0.43 0.57 0.69 0.76 0.84 0.88 0.93 1.01 1.06 1.04 1.05 1.12 1.19 1.13 1.05
0.03 0.02 0.03 0.11 0.17 0.15 0.10 0.08 0.09 0.10 0.09 0.08 0.20 0.40 0.31 0.24 0.34 0.34 0.38 0.61 0.65 0.38 0.31 0.29 0.30 0.37 0.50 0.47 0.38 0.47 0.55 0.60 0.68 0.70 0.75 0.83 0.88 0.90 0.89 0.92 1.02 1.12 1.15 1.15
0.03 0.02 0.03 0.10 0.19 0.20 0.16 0.11 0.11 0.10 0.07 0.07 0.13 0.33 0.31 0.29 0.36 0.50 0.56 0.61 0.46 0.31 0.27 0.23 0.27 0.36 0.45 0.44 0.39 0.42 0.52 0.67 0.73 0.74 0.86 0.96 0.99 0.97 0.97 0.96 1.02 1.11 1.19 1.20
0.03 0.02 0.02 0.03 0.06 0.11 0.15 0.15 0.12 0.08 0.05 0.08 0.10 0.20 0.22 0.32 0.38 0.44 0.44 0.42 0.38 0.37 0.30 0.28 0.31 0.45 0.51 0.55 0.54 0.53 0.58 0.72 0.86 0.95 1.05 1.20 1.32 1.33 1.22 1.17 1.22 1.29 1.36 1.42
0.03 0.03 0.03 0.03 0.06 0.10 0.12 0.14 0.10 0.07 0.05 0.05 0.08 0.14 0.20 0.33 0.35 0.39 0.37 0.34 0.38 0.40 0.35 0.33 0.41 0.53 0.53 0.50 0.52 0.53 0.58 0.65 0.69 0.78 0.88 1.05 1.22 1.31 1.27 1.25 1.35 1.46 1.53 1.65
0.06 0.06 0.04 0.04 0.07 0.09 0.16 0.13 0.09 0.08 0.07 0.07 0.10 0.15 0.19 0.27 0.38 0.46 0.48 0.52 0.51 0.39 0.34 0.36 0.40 0.46 0.54 0.47 0.44 0.49 0.54 0.63 0.74 0.86 0.97 1.04 1.16 1.27 1.30 1.31 1.41 1.51 1.54 1.56
0.16 0.14 0.11 0.09 0.10 0.15 0.16 0.12 0.11 0.11 0.12 0.15 0.19 0.21 0.26 0.28 0.36 0.47 0.50 0.48 0.46 0.45 0.50 0.54 0.62 0.64 0.62 0.56 0.56 0.64 0.68 0.74 0.81 0.88 0.97 1.03 1.14 1.26 1.38 1.53 1.62 1.68 1.73 1.74
0.27 0.28 0.22 0.16 0.15 0.18 0.20 0.18 0.18 0.21 0.25 0.26 0.34 0.38 0.38 0.37 0.37 0.46 0.54 0.51 0.54 0.52 0.53 0.62 0.70 0.76 0.68 0.70 0.72 0.80 0.85 0.95 1.00 1.01 1.09 1.16 1.23 1.37 1.46 1.54 1.67 1.77 1.84 1.82
0.32 0.35 0.32 0.24 0.26 0.28 0.28 0.29 0.24 0.26 0.50 0.46 0.49 0.53 0.51 0.52 0.65 0.76 0.77 0.68 0.64 0.63 0.64 0.70 0.72 0.74 0.82 0.85 0.89 0.95 1.02 1.13 1.19 1.18 1.22 1.27 1.41 1.49 1.50 1.51 1.58 1.63 1.68 1.71
0.36 0.42 0.40 0.35 0.34 0.33 0.32 0.32 0.32 0.57 0.83 0.83 0.82 0.77 0.68 0.74 0.79 0.75 0.69 0.72 0.69 0.71 0.79 0.77 0.78 0.84 0.87 0.86 0.89 0.99 1.11 1.21 1.27 1.28 1.28 1.34 1.42 1.57 1.60 1.62 1.57 1.51 1.52 1.55
0.56 0.60 0.59 0.55 0.64 0.66 0.46 0.48 0.68 0.87 0.85 1.00 0.91 0.81 0.77 0.72 0.69 0.65 0.65 0.74 0.80 0.83 0.90 0.89 0.87 0.86 0.87 0.91 0.97 1.04 1.15 1.20 1.20 1.19 1.22 1.28 1.33 1.32 1.34 1.47 1.52 1.51 1.50 1.52
0.73 0.78 0.81 0.76 0.82 0.74 0.63 0.65 0.73 0.71 0.72 0.84 0.82 0.72 0.71 0.67 0.63 0.59 0.64 0.69 0.72 0.77 0.83 0.86 0.89 0.92 0.94 0.97 1.04 1.16 1.20 1.21 1.19 1.25 1.35 1.41 1.42 1.41 1.40 1.41 1.42 1.39 1.35 1.29
0.89 0.70 0.82 1.02 1.03 0.89 0.76 0.64 0.65 0.65 0.66 0.69 0.76 0.80 0.78 0.72 0.66 0.65 0.65 0.68 0.77 0.83 0.84 0.86 0.88 0.93 1.03 1.11 1.19 1.19 1.15 1.21 1.35 1.41 1.38 1.36 1.38 1.34 1.32 1.37 1.34 1.29 1.25 1.21
0.99 0.93 1.09 1.46 1.51 1.30 1.12 0.94 0.83 0.78 0.77 0.77 0.83 0.88 0.92 0.90 0.87 0.84 0.75 0.72 0.75 0.80 0.80 0.81 0.87 0.95 1.04 1.08 1.15 1.23 1.24 1.27 1.34 1.29 1.19 1.21 1.23 1.17 1.09 1.16 1.22 1.13 1.12 1.14
1.06 1.20 1.45 1.75 1.60 1.55 1.42 1.15 0.98 0.93 0.99 0.92 0.92 0.93 0.91 0.88 0.87 0.87 0.85 0.74 0.67 0.68 0.76 0.82 0.85 0.93 1.01 1.05 1.08 1.09 1.12 1.19 1.25 1.25 1.15 1.06 1.03 1.02 1.04 1.08 1.11 1.08 0.94 0.93

GEFSCGP_prec_meanprecacc_192.txt.gz
Total_Precipitation_Accumulation
0.00 0.00 0.01 0.01 0.02 0.02 0.05 0.09 0.22 0.27 0.20 0.29 0.37 0.59 0.69 0.80 1.00 1.01 0.87 0.92 1.23 1.42 1.69 2.08 2.68 3.55 4.63 5.53 5.80 5.27 4.74 4.38 3.94 3.50 2.94 2.55 2.46 2.35 2.09 1.82 1.53 1.39 1.31 1.35
0.00 0.02 0.02 0.01 0.02 0.04 0.06 0.08 0.20 0.26 0.18 0.21 0.36 0.69 0.99 0.97 0.90 0.87 0.94 0.94 1.05 1.42 1.87 2.57 3.59 4.18 4.43 4.55 4.31 3.96 3.69 3.46 3.01 2.60 2.33 2.08 2.03 1.85 1.68 1.58 1.50 1.22 1.11 1.13
0.01 0.03 0.02 0.02 0.03 0.09 0.10 0.11 0.18 0.25 0.16 0.17 0.37 0.85 1.13 1.13 0.90 0.78 0.84 0.84 1.03 1.46 2.05 2.85 3.39 3.52 3.25 2.94 2.84 2.78 2.83 2.58 2.44 2.37 2.26 2.14 2.08 1.85 1.60 1.48 1.40 1.17 1.01 1.01
0.01 0.02 0.02 0.02 0.04 0.08 0.09 0.07 0.06 0.09 0.15 0.33 0.52 1.08 1.26 1.03 0.99 0.83 0.84 0.86 0.92 1.21 1.57 1.98 2.22 2.11 2.23 2.37 2.38 2.48 2.56 2.31 2.28 2.21 1.91 1.79 1.67 1.53 1.37 1.31 1.31 1.36 1.15 1.01
0.02 0.03 0.02 0.02 0.03 0.04 0.04 0.03 0.04 0.11 0.22 0.42 0.61 0.87 1.03 0.84 1.02 0.83 0.70 0.70 0.69 0.86 0.95 1.06 1.20 1.34 1.54 1.65 1.82 2.11 2.35 2.29 2.12 1.94 1.83 1.83 1.69 1.62 1.58 1.60 1.54 1.48 1.37 1.17
0.03 0.04 0.03 0.02 0.02 0.03 0.03 0.05 0.12 0.23 0.40 0.89 0.85 0.83 1.06 0.98 1.05 0.80 0.60 0.51 0.58 0.72 0.82 0.86 0.91 1.03 1.20 1.32 1.49 1.73 2.03 2.16 2.08 1.92 1.81 1.77 1.76 1.70 1.61 1.58 1.51 1.35 1.29 1.24
0.09 0.07 0.05 0.03 0.03 0.05 0.05 0.07 0.24 0.58 0.98 1.15 0.72 0.79 1.05 0.81 0.73 0.57 0.36 0.31 0.48 0.69 0.84 0.91 0.85 0.82 0.88 1.02 1.17 1.27 1.43 1.68 1.80 1.77 1.71 1.69 1.77 1.65 1.46 1.36 1.27 1.22 1.07 1.00
0.14 0.12 0.06 0.04 0.04 0.06 0.05 0.04 0.11 0.22 0.33 0.52 0.69 1.07 1.19 0.85 0.57 0.33 0.23 0.29 0.47 0.64 0.69 0.73 0.72 0.67 0.64 0.71 0.90 1.02 1.20 1.37 1.56 1.56 1.53 1.50 1.55 1.48 1.37 1.35 1.14 1.05 1.01 0.97
0.05 0.05 0.04 0.04 0.05 0.06 0.05 0.03 0.04 0.07 0.12 0.32 0.69 0.99 0.94 0.75 0.55 0.38 0.29 0.32 0.42 0.46 0.46 0.54 0.61 0.68 0.66 0.65 0.75 0.87 1.07 1.24 1.42 1.52 1.55 1.47 1.46 1.46 1.44 1.37 1.19 1.04 1.11 1.06
0.02 0.02 0.04 0.04 0.05 0.06 0.05 0.04 0.04 0.05 0.11 0.24 0.52 0.90 1.09 0.92 0.68 0.49 0.40 0.38 0.44 0.43 0.36 0.48 0.60 0.63 0.56 0.49 0.56 0.70 0.86 1.09 1.23 1.39 1.43 1.33 1.48 1.46 1.45 1.38 1.25 1.11 1.08 1.08
0.02 0.02 0.05 0.05 0.06 0.08 0.07 0.06 0.06 0.05 0.08 0.14 0.36 0.58 0.56 0.51 0.44 0.41 0.46 0.44 0.34 0.35 0.32 0.41 0.50 0.53 0.49 0.42 0.44 0.52 0.69 0.87 0.97 1.08 1.18 1.19 1.26 1.25 1.25 1.29 1.27 1.22 1.17 1.14
0.02 0.02 0.03 0.06 0.09 0.08 0.09 0.09 0.09 0.08 0.08 0.09 0.18 0.36 0.31 0.34 0.35 0.36 0.47 0.52 0.43 0.40 0.44 0.40 0.36 0.45 0.55 0.49 0.40 0.46 0.61 0.73 0.80 0.87 0.90 0.95 1.03 1.08 1.07 1.08 1.16 1.23 1.16 1.08
0.03 0.02 0.03 0.11 0.17 0.15 0.10 0.08 0.09 0.10 0.09 0.08 0.20 0.40 0.32 0.24 0.34 0.34 0.39 0.61 0.66 0.40 0.35 0.34 0.36 0.42 0.55 0.50 0.42 0.51 0.61 0.67 0.75 0.74 0.78 0.85 0.91 0.92 0.92 0.95 1.05 1.15 1.18 1.17
0.03 0.02 0.03 0.10 0.19 0.20 0.16 0.11 0.11 0.10 0.07 0.07 0.13 0.33 0.31 0.29 0.37 0.51 0.57 0.63 0.47 0.34 0.30 0.27 0.31 0.42 0.51 0.51 0.46 0.49 0.59 0.76 0.81 0.80 0.90 1.00 1.02 1.00 1.00 0.98 1.05 1.14 1.21 1.23
0.03 0.02 0.02 0.03 0.06 0.11 0.15 0.15 0.12 0.08 0.05 0.08 0.11 0.20 0.23 0.32 0.39 0.44 0.44 0.43 0.39 0.38 0.33 0.32 0.35 0.51 0.56 0.62 0.63 0.60 0.63 0.77 0.91 1.00 1.09 1.24 1.36 1.37 1.26 1.20 1.25 1.31 1.38 1.44
0.03 0.03 0.03 0.03 0.06 0.10 0.12 0.14 0.10 0.07 0.05 0.06 0.08 0.14 0.20 0.33 0.35 0.40 0.37 0.35 0.39 0.40 0.36 0.34 0.44 0.57 0.58 0.56 0.57 0.57 0.61 0.70 0.75 0.85 0.94 1.09 1.26 1.34 1.31 1.28 1.37 1.48 1.55 1.67
0.06 0.06 0.04 0.04 0.07 0.09 0.16 0.13 0.09 0.08 0.07 0.07 0.10 0.15 0.19 0.27 0.39 0.46 0.49 0.53 0.52 0.40 0.35 0.37 0.43 0.50 0.58 0.51 0.47 0.53 0.59 0.70 0.80 0.93 1.03 1.09 1.21 1.31 1.33 1.33 1.43 1.54 1.57 1.58
0.16 0.14 0.11 0.09 0.10 0.15 0.16 0.12 0.11 0.11 0.12 0.15 0.19 0.21 0.26 0.28 0.37 0.47 0.50 0.49 0.48 0.47 0.53 0.59 0.67 0.68 0.66 0.60 0.59 0.67 0.72 0.79 0.85 0.91 1.01 1.08 1.19 1.31 1.42 1.57 1.65 1.70 1.75 1.76
0.27 0.28 0.22 0.16 0.15 0.18 0.20 0.18 0.18 0.21 0.25 0.27 0.34 0.39 0.38 0.37 0.38 0.47 0.55 0.54 0.58 0.56 0.58 0.67 0.76 0.80 0.72 0.72 0.74 0.83 0.88 0.98 1.04 1.05 1.15 1.22 1.30 1.42 1.51 1.58 1.70 1.81 1.89 1.87
0.32 0.35 0.32 0.24 0.26 0.28 0.28 0.29 0.24 0.27 0.50 0.46 0.49 0.53 0.52 0.53 0.67 0.78 0.79 0.70 0.66 0.66 0.67 0.74 0.75 0.77 0.84 0.86 0.90 0.98 1.06 1.17 1.24 1.24 1.29 1.34 1.47 1.56 1.57 1.57 1.65 1.69 1.75 1.76
0.36 0.42 0.40 0.35 0.34 0.33 0.32 0.32 0.32 0.57 0.83 0.83 0.82 0.78 0.68 0.76 0.82 0.78 0.71 0.75 0.72 0.76 0.84 0.81 0.81 0.87 0.89 0.87 0.91 1.02 1.16 1.27 1.33 1.34 1.35 1.41 1.50 1.65 1.68 1.69 1.64 1.58 1.59 1.62
0.56 0.60 0.59 0.55 0.64 0.66 0.46 0.48 0.68 0.87 0.85 1.00 0.91 0.81 0.78 0.77 0.75 0.69 0.70 0.80 0.88 0.92 0.98 0.96 0.94 0.92 0.91 0.95 1.01 1.10 1.22 1.27 1.29 1.27 1.30 1.36 1.41 1.43 1.44 1.56 1.61 1.60 1.58 1.60
0.73 0.78 0.81 0.76 0.83 0.75 0.64 0.65 0.74 0.71 0.73 0.85 0.83 0.73 0.74 0.72 0.69 0.65 0.69 0.76 0.80 0.84 0.90 0.92 0.95 0.97 1.00 1.06 1.14 1.25 1.28 1.32 1.29 1.34 1.42 1.49 1.50 1.49 1.47 1.49 1.52 1.51 1.47 1.39
0.89 0.70 0.83 1.02 1.04 0.90 0.76 0.65 0.65 0.66 0.67 0.70 0.78 0.82 0.80 0.75 0.71 0.70 0.71 0.75 0.85 0.90 0.91 0.92 0.93 0.98 1.09 1.19 1.29 1.30 1.24 1.31 1.45 1.49 1.47 1.45 1.47 1.43 1.41 1.46 1.42 1.38 1.36 1.31
1.00 0.93 1.10 1.47 1.52 1.31 1.13 0.95 0.84 0.80 0.78 0.79 0.85 0.91 0.97 0.96 0.93 0.89 0.82 0.79 0.81 0.88 0.88 0.88 0.94 1.01 1.10 1.16 1.24 1.32 1.33 1.36 1.43 1.37 1.27 1.28 1.29 1.23 1.16 1.24 1.31 1.22 1.21 1.26
1.07 1.21 1.47 1.77 1.62 1.57 1.44 1.17 1.00 0.96 1.01 0.94 0.95 0.97 0.97 0.95 0.95 0.94 0.91 0.80 0.74 0.75 0.83 0.89 0.91 0.98 1.07 1.11 1.14 1.16 1.19 1.27 1.33 1.33 1.23 1.15 1.09 1.07 1.07 1.11 1.14 1.12 0.99 0.98

GEFSCGP_prec_meanprecacc_198.txt.gz
Total_Precipitation_Accumulation
0.00 0.00 0.01 0.01 0.02 0.02 0.05 0.09 0.22 0.27 0.20 0.29 0.37 0.59 0.69 0.80 1.00 1.01 0.87 0.92 1.23 1.42 1.69 2.08 2.68 3.56 4.64 5.53 5.80 5.28 4.76 4.40 3.96 3.52 2.96 2.58 2.50 2.38 2.11 1.85 1.57 1.45 1.35 1.39
0.00 0.02 0.02 0.01 0.02 0.04 0.06 0.08 0.20 0.26 0.18 0.21 0.36 0.69 0.99 0.97 0.90 0.87 0.94 0.94 1.05 1.42 1.87 2.57 3.59 4.19 4.43 4.55 4.32 3.97 3.70 3.47 3.02 2.62 2.37 2.12 2.06 1.88 1.70 1.60 1.54 1.27 1.17 1.20
0.01 0.03 0.02 0.02 0.03 0.09 0.10 0.11 0.18 0.25 0.16 0.17 0.37 0.85 1.13 1.13 0.90 0.78 0.84 0.84 1.03 1.46 2.05 2.85 3.40 3.53 3.26 2.95 2.85 2.79 2.84 2.59 2.45 2.38 2.28 2.16 2.11 1.88 1.62 1.51 1.45 1.22 1.05 1.05
0.01 0.02 0.02 0.02 0.04 0.08 0.09 0.07 0.06 0.09 0.15 0.33 0.52 1.08 1.26 1.03 0.99 0.83 0.84 0.86 0.92 1.21 1.57 1.99 2.22 2.12 2.24 2.38 2.38 2.48 2.57 2.31 2.28 2.22 1.93 1.82 1.70 1.56 1.39 1.34 1.35 1.41 1.19 1.05
0.02 0.03 0.02 0.02 0.03 0.04 0.04 0.03 0.04 0.11 0.22 0.42 0.61 0.87 1.03 0.84 1.02 0.83 0.70 0.70 0.69 0.86 0.95 1.07 1.20 1.34 1.55 1.66 1.83 2.12 2.36 2.30 2.12 1.95 1.86 1.87 1.72 1.65 1.61 1.63 1.56 1.52 1.41 1.20
0.03 0.04 0.03 0.02 0.02 0.03 0.03 0.05 0.12 0.23 0.40 0.89 0.85 0.83 1.06 0.98 1.05 0.80 0.60 0.51 0.58 0.72 0.82 0.86 0.91 1.03 1.20 1.33 1.50 1.75 2.05 2.17 2.09 1.93 1.82 1.80 1.80 1.73 1.64 1.61 1.56 1.40 1.33 1.27
0.09 0.07 0.05 0.03 0.03 0.05 0.05 0.07 0.24 0.58 0.98 1.15 0.72 0.79 1.05 0.81 0.73 0.57 0.36 0.31 0.48 0.69 0.84 0.91 0.86 0.82 0.88 1.03 1.19 1.28 1.44 1.69 1.82 1.78 1.72 1.70 1.79 1.68 1.49 1.40 1.30 1.25 1.11 1.03
0.14 0.12 0.06 0.04 0.04 0.06 0.05 0.04 0.11 0.22 0.33 0.52 0.69 1.07 1.19 0.85 0.57 0.33 0.23 0.29 0.47 0.64 0.69 0.73 0.72 0.68 0.65 0.72 0.91 1.03 1.21 1.38 1.57 1.57 1.54 1.52 1.56 1.50 1.40 1.37 1.16 1.09 1.05 1.00
0.05 0.05 0.04 0.04 0.05 0.06 0.05 0.03 0.04 0.07 0.12 0.32 0.69 0.99 0.94 0.75 0.55 0.38 0.29 0.32 0.42 0.46 0.46 0.54 0.62 0.68 0.66 0.65 0.76 0.87 1.07 1.25 1.42 1.53 1.56 1.48 1.47 1.48 1.45 1.39 1.21 1.06 1.14 1.08
0.02 0.02 0.04 0.04 0.05 0.06 0.05 0.04 0.04 0.05 0.11 0.24 0.52 0.90 1.09 0.92 0.68 0.49 0.40 0.38 0.44 0.43 0.37 0.48 0.61 0.64 0.57 0.49 0.57 0.71 0.87 1.09 1.24 1.40 1.43 1.34 1.49 1.47 1.46 1.40 1.27 1.14 1.12 1.12
0.02 0.02 0.05 0.05 0.06 0.08 0.07 0.06 0.06 0.05 0.08 0.14 0.36 0.58 0.56 0.51 0.44 0.41 0.46 0.44 0.34 0.35 0.33 0.41 0.50 0.54 0.49 0.42 0.45 0.53 0.70 0.88 0.97 1.08 1.19 1.19 1.26 1.26 1.27 1.31 1.30 1.25 1.23 1.19
0.02 0.02 0.03 0.06 0.09 0.08 0.09 0.09 0.09 0.08 0.08 0.09 0.18 0.36 0.31 0.34 0.35 0.36 0.47 0.52 0.43 0.40 0.45 0.41 0.37 0.45 0.55 0.50 0.40 0.47 0.62 0.74 0.80 0.87 0.90 0.96 1.04 1.09 1.09 1.10 1.18 1.26 1.21 1.14
0.03 0.02 0.03 0.11 0.17 0.15 0.10 0.08 0.09 0.10 0.09 0.08 0.20 0.40 0.32 0.24 0.34 0.34 0.39 0.62 0.66 0.40 0.35 0.35 0.36 0.42 0.56 0.52 0.44 0.53 0.62 0.68 0.76 0.74 0.79 0.86 0.91 0.93 0.93 0.97 1.08 1.19 1.22 1.22
0.03 0.02 0.03 0.10 0.19 0.20 0.16 0.11 0.11 0.10 0.07 0.07 0.13 0.33 0.31 0.29 0.37 0.51 0.57 0.63 0.48 0.34 0.31 0.27 0.32 0.43 0.52 0.53 0.47 0.50 0.61 0.78 0.83 0.81 0.91 1.01 1.03 1.01 1.01 1.01 1.08 1.18 1.25 1.27
0.03 0.02 0.02 0.03 0.06 0.11 0.15 0.15 0.12 0.08 0.05 0.08 0.11 0.20 0.23 0.32 0.39 0.44 0.44 0.43 0.39 0.39 0.34 0.32 0.36 0.52 0.57 0.63 0.64 0.62 0.65 0.78 0.93 1.01 1.10 1.25 1.38 1.39 1.27 1.22 1.28 1.34 1.41 1.47
0.03 0.03 0.03 0.03 0.06 0.10 0.12 0.14 0.10 0.07 0.05 0.06 0.08 0.14 0.20 0.33 0.35 0.40 0.37 0.35 0.39 0.41 0.37 0.34 0.44 0.58 0.59 0.57 0.58 0.59 0.64 0.72 0.77 0.87 0.96 1.13 1.30 1.37 1.33 1.30 1.39 1.50 1.56 1.68
0.06 0.06 0.04 0.04 0.07 0.09 0.16 0.13 0.09 0.08 0.07 0.07 0.10 0.15 0.19 0.28 0.39 0.46 0.49 0.53 0.52 0.40 0.35 0.37 0.43 0.51 0.60 0.53 0.49 0.56 0.64 0.74 0.85 0.98 1.09 1.15 1.27 1.36 1.37 1.34 1.44 1.55 1.58 1.60
0.16 0.15 0.11 0.09 0.10 0.15 0.16 0.12 0.11 0.11 0.12 0.16 0.19 0.21 0.26 0.28 0.37 0.47 0.50 0.49 0.49 0.47 0.54 0.59 0.68 0.70 0.68 0.62 0.61 0.68 0.73 0.81 0.87 0.94 1.04 1.11 1.22 1.33 1.43 1.58 1.66 1.72 1.77 1.78
0.27 0.28 0.22 0.16 0.15 0.18 0.20 0.18 0.18 0.21 0.25 0.27 0.34 0.39 0.38 0.37 0.38 0.47 0.55 0.54 0.58 0.56 0.59 0.68 0.77 0.82 0.74 0.74 0.76 0.84 0.89 0.99 1.06 1.07 1.17 1.25 1.33 1.46 1.54 1.60 1.72 1.83 1.90 1.88
0.32 0.35 0.32 0.24 0.26 0.28 0.28 0.29 0.24 0.27 0.50 0.46 0.49 0.53 0.52 0.53 0.67 0.78 0.79 0.70 0.66 0.66 0.68 0.75 0.77 0.78 0.86 0.88 0.92 1.00 1.07 1.19 1.26 1.27 1.31 1.37 1.51 1.60 1.60 1.60 1.66 1.71 1.77 1.79
0.36 0.42 0.40 0.35 0.34 0.33 0.32 0.32 0.32 0.57 0.83 0.84 0.82 0.78 0.68 0.76 0.83 0.78 0.71 0.76 0.73 0.77 0.86 0.84 0.83 0.88 0.90 0.88 0.92 1.05 1.19 1.31 1.37 1.39 1.40 1.46 1.56 1.71 1.72 1.71 1.65 1.59 1.60 1.64
0.56 0.60 0.59 0.55 0.64 0.66 0.46 0.48 0.68 0.87 0.85 1.00 0.91 0.81 0.78 0.77 0.75 0.69 0.70 0.81 0.89 0.93 0.99 0.98 0.96 0.93 0.93 0.97 1.03 1.13 1.25 1.31 1.36 1.36 1.39 1.44 1.48 1.49 1.49 1.59 1.63 1.62 1.60 1.62
0.73 0.78 0.81 0.76 0.83 0.75 0.64 0.66 0.74 0.71 0.73 0.86 0.83 0.73 0.74 0.72 0.69 0.66 0.70 0.77 0.80 0.85 0.92 0.94 0.97 0.99 1.02 1.08 1.17 1.28 1.32 1.35 1.35 1.41 1.50 1.56 1.56 1.53 1.51 1.52 1.55 1.54 1.49 1.41
0.89 0.70 0.83 1.02 1.04 0.90 0.76 0.65 0.65 0.66 0.68 0.71 0.78 0.82 0.80 0.75 0.71 0.72 0.73 0.77 0.86 0.91 0.93 0.95 0.96 1.00 1.12 1.21 1.33 1.34 1.30 1.37 1.50 1.54 1.53 1.51 1.52 1.49 1.46 1.51 1.47 1.42 1.39 1.33
1.00 0.93 1.10 1.47 1.52 1.31 1.14 0.95 0.84 0.80 0.79 0.80 0.86 0.92 0.98 0.98 0.94 0.91 0.84 0.81 0.84 0.89 0.89 0.91 0.97 1.05 1.14 1.20 1.28 1.37 1.39 1.43 1.50 1.44 1.32 1.33 1.37 1.32 1.27 1.32 1.35 1.25 1.23 1.28
1.07 1.22 1.48 1.77 1.63 1.57 1.45 1.18 1.01 0.97 1.03 0.96 0.97 0.98 0.98 0.96 0.96 0.96 0.94 0.83 0.77 0.78 0.86 0.91 0.96 1.04 1.12 1.16 1.21 1.23 1.26 1.35 1.42 1.43 1.35 1.27 1.21 1.19 1.20 1.20 1.19 1.16 1.01 1.01

GEFSCGP_prec_meanprecacc_204.txt.gz
Total_Precipitation_Accumulation
0.00 0.00 0.01 0.01 0.02 0.02 0.05 0.10 0.22 0.27 0.20 0.29 0.37 0.59 0.69 0.80 1.00 1.01 0.87 0.92 1.23 1.42 1.69 2.08 2.68 3.56 4.64 5.54 5.81 5.30 4.78 4.43 4.01 3.59 3.01 2.64 2.57 2.44 2.15 1.89 1.62 1.50 1.40 1.45
0.00 0.02 0.02 0.01 0.02 0.04 0.06 0.09 0.20 0.26 0.18 0.21 0.36 0.69 0.99 0.97 0.90 0.87 0.94 0.94 1.05 1.42 1.87 2.57 3.59 4.19 4.44 4.56 4.33 3.98 3.72 3.50 3.04 2.66 2.42 2.17 2.12 1.93 1.73 1.64 1.59 1.33 1.22 1.26
0.01 0.03 0.02 0.02 0.03 0.09 0.10 0.11 0.18 0.25 0.16 0.17 0.37 0.85 1.13 1.13 0.91 0.78 0.84 0.84 1.03 1.46 2.05 2.85 3.41 3.53 3.26 2.95 2.85 2.80 2.86 2.61 2.48 2.42 2.31 2.19 2.15 1.92 1.66 1.55 1.50 1.27 1.09 1.10
0.01 0.02 0.02 0.02 0.04 0.08 0.09 0.07 0.06 0.09 0.15 0.33 0.53 1.08 1.26 1.05 1.02 0.84 0.84 0.86 0.92 1.21 1.57 1.99 2.23 2.12 2.24 2.38 2.38 2.49 2.59 2.34 2.31 2.25 1.96 1.86 1.74 1.61 1.45 1.40 1.40 1.45 1.22 1.07
0.02 0.03 0.02 0.02 0.03 0.04 0.04 0.03 0.04 0.11 0.22 0.42 0.61 0.87 1.03 0.87 1.06 0.84 0.70 0.70 0.69 0.86 0.95 1.07 1.20 1.35 1.56 1.67 1.84 2.13 2.37 2.31 2.15 1.99 1.90 1.92 1.78 1.71 1.68 1.69 1.63 1.58 1.45 1.22
0.03 0.04 0.03 0.02 0.02 0.03 0.03 0.05 0.12 0.23 0.40 0.89 0.85 0.83 1.06 1.00 1.07 0.82 0.62 0.53 0.58 0.72 0.82 0.86 0.91 1.04 1.21 1.34 1.51 1.76 2.06 2.19 2.11 1.95 1.85 1.84 1.86 1.80 1.70 1.68 1.63 1.46 1.37 1.30
0.09 0.07 0.05 0.03 0.03 0.05 0.05 0.07 0.24 0.58 0.98 1.15 0.73 0.79 1.05 0.82 0.74 0.59 0.38 0.34 0.48 0.69 0.84 0.91 0.86 0.83 0.89 1.04 1.20 1.29 1.45 1.71 1.83 1.80 1.75 1.73 1.83 1.73 1.55 1.45 1.36 1.30 1.14 1.06
0.14 0.12 0.06 0.04 0.04 0.06 0.05 0.04 0.11 0.22 0.34 0.53 0.71 1.08 1.19 0.85 0.57 0.34 0.24 0.30 0.48 0.64 0.69 0.73 0.73 0.68 0.66 0.74 0.91 1.04 1.22 1.39 1.59 1.60 1.57 1.55 1.60 1.55 1.44 1.42 1.21 1.13 1.08 1.02
0.05 0.05 0.04 0.04 0.05 0.06 0.05 0.03 0.04 0.07 0.12 0.33 0.70 1.00 0.94 0.75 0.55 0.38 0.29 0.32 0.42 0.46 0.46 0.55 0.62 0.68 0.67 0.65 0.76 0.88 1.09 1.27 1.44 1.56 1.59 1.52 1.51 1.51 1.49 1.43 1.26 1.10 1.18 1.11
0.02 0.02 0.04 0.04 0.05 0.06 0.05 0.04 0.04 0.05 0.11 0.24 0.53 0.93 1.09 0.92 0.69 0.49 0.40 0.38 0.44 0.43 0.37 0.48 0.61 0.64 0.57 0.49 0.57 0.72 0.89 1.11 1.26 1.43 1.46 1.36 1.52 1.50 1.50 1.44 1.33 1.18 1.17 1.15
0.02 0.02 0.05 0.05 0.06 0.08 0.07 0.06 0.06 0.05 0.08 0.14 0.36 0.60 0.56 0.53 0.45 0.41 0.46 0.44 0.34 0.35 0.33 0.42 0.50 0.54 0.49 0.42 0.46 0.54 0.71 0.90 1.00 1.11 1.22 1.22 1.29 1.28 1.30 1.35 1.34 1.30 1.27 1.24
0.02 0.02 0.03 0.06 0.09 0.08 0.09 0.09 0.09 0.08 0.08 0.09 0.18 0.36 0.31 0.34 0.36 0.36 0.47 0.54 0.46 0.41 0.45 0.41 0.38 0.45 0.55 0.50 0.41 0.48 0.63 0.75 0.82 0.90 0.93 0.99 1.07 1.11 1.11 1.12 1.21 1.29 1.25 1.18
0.03 0.02 0.03 0.11 0.17 0.15 0.10 0.08 0.09 0.10 0.09 0.08 0.20 0.40 0.33 0.26 0.34 0.34 0.39 0.63 0.72 0.42 0.35 0.35 0.40 0.45 0.56 0.52 0.45 0.53 0.63 0.70 0.78 0.77 0.81 0.88 0.93 0.95 0.96 0.99 1.10 1.22 1.26 1.26
0.03 0.02 0.03 0.10 0.19 0.20 0.16 0.11 0.11 0.10 0.07 0.07 0.13 0.33 0.33 0.30 0.37 0.51 0.57 0.63 0.49 0.35 0.32 0.28 0.34 0.45 0.53 0.53 0.48 0.51 0.63 0.81 0.85 0.83 0.92 1.02 1.05 1.03 1.03 1.03 1.11 1.21 1.29 1.31
0.03 0.02 0.02 0.03 0.06 0.11 0.15 0.15 0.12 0.08 0.05 0.08 0.11 0.21 0.24 0.32 0.39 0.44 0.44 0.43 0.40 0.39 0.35 0.33 0.37 0.52 0.58 0.65 0.66 0.63 0.67 0.80 0.94 1.03 1.11 1.27 1.40 1.41 1.30 1.25 1.30 1.37 1.44 1.50
0.03 0.03 0.03 0.03 0.06 0.10 0.12 0.14 0.10 0.07 0.05 0.06 0.08 0.14 0.20 0.33 0.35 0.40 0.37 0.35 0.39 0.42 0.38 0.35 0.45 0.59 0.61 0.59 0.60 0.60 0.66 0.72 0.78 0.88 0.98 1.15 1.34 1.41 1.38 1.34 1.43 1.53 1.58 1.71
0.07 0.06 0.04 0.04 0.07 0.09 0.17 0.13 0.09 0.08 0.07 0.07 0.10 0.15 0.19 0.28 0.39 0.47 0.49 0.53 0.52 0.41 0.36 0.39 0.46 0.54 0.62 0.58 0.55 0.59 0.65 0.75 0.85 0.99 1.11 1.19 1.33 1.43 1.45 1.42 1.50 1.60 1.62 1.63
0.16 0.15 0.11 0.09 0.10 0.15 0.16 0.12 0.11 0.11 0.12 0.16 0.19 0.21 0.26 0.28 0.37 0.47 0.50 0.49 0.49 0.49 0.55 0.61 0.69 0.71 0.72 0.68 0.69 0.76 0.77 0.83 0.89 0.96 1.06 1.14 1.27 1.40 1.52 1.67 1.74 1.77 1.81 1.81
0.28 0.28 0.22 0.16 0.15 0.18 0.20 0.18 0.18 0.21 0.25 0.27 0.34 0.39 0.38 0.37 0.38 0.48 0.55 0.54 0.59 0.57 0.60 0.69 0.78 0.83 0.77 0.81 0.88 0.95 0.94 1.01 1.07 1.09 1.19 1.29 1.37 1.51 1.59 1.67 1.79 1.89 1.95 1.92
0.32 0.35 0.32 0.24 0.26 0.28 0.28 0.29 0.24 0.27 0.50 0.46 0.49 0.53 0.52 0.53 0.68 0.81 0.82 0.72 0.67 0.67 0.69 0.76 0.78 0.79 0.87 0.90 0.97 1.05 1.13 1.24 1.30 1.30 1.34 1.40 1.55 1.65 1.65 1.65 1.72 1.76 1.82 1.84
0.36 0.42 0.40 0.35 0.35 0.34 0.32 0.32 0.32 0.58 0.84 0.84 0.82 0.78 0.69 0.78 0.84 0.80 0.72 0.76 0.74 0.79 0.88 0.85 0.86 0.90 0.92 0.91 0.96 1.09 1.23 1.34 1.40 1.42 1.42 1.49 1.59 1.75 1.76 1.74 1.69 1.64 1.66 1.70
0.56 0.61 0.59 0.55 0.65 0.66 0.47 0.48 0.68 0.88 0.86 1.00 0.91 0.81 0.80 0.80 0.77 0.70 0.71 0.82 0.90 0.94 1.01 1.01 0.98 0.96 0.96 1.00 1.06 1.17 1.29 1.36 1.40 1.39 1.42 1.47 1.51 1.51 1.51 1.62 1.66 1.66 1.67 1.69
0.74 0.79 0.81 0.76 0.84 0.75 0.64 0.66 0.74 0.71 0.73 0.86 0.83 0.74 0.75 0.73 0.70 0.66 0.71 0.78 0.81 0.86 0.94 0.97 1.00 1.02 1.06 1.12 1.21 1.33 1.38 1.42 1.42 1.47 1.56 1.61 1.59 1.56 1.54 1.55 1.59 1.58 1.54 1.46
0.91 0.71 0.83 1.03 1.04 0.90 0.77 0.65 0.66 0.66 0.68 0.71 0.79 0.83 0.81 0.76 0.73 0.73 0.75 0.78 0.87 0.93 0.94 0.97 0.98 1.02 1.14 1.26 1.39 1.41 1.36 1.44 1.58 1.63 1.60 1.57 1.57 1.53 1.50 1.56 1.54 1.50 1.50 1.42
1.02 0.95 1.12 1.48 1.54 1.32 1.15 0.96 0.85 0.81 0.79 0.80 0.86 0.93 0.99 0.99 0.97 0.93 0.86 0.83 0.85 0.91 0.91 0.94 1.00 1.07 1.18 1.24 1.33 1.42 1.45 1.50 1.57 1.51 1.40 1.39 1.41 1.37 1.32 1.40 1.46 1.35 1.31 1.33
1.08 1.24 1.49 1.80 1.67 1.61 1.46 1.19 1.01 0.97 1.03 0.96 0.97 0.99 0.99 0.98 0.98 0.98 0.96 0.85 0.79 0.80 0.88 0.93 0.98 1.06 1.15 1.21 1.25 1.28 1.33 1.42 1.50 1.52 1.44 1.37 1.31 1.30 1.30 1.29 1.27 1.21 1.05 1.04

GEFSCGP_prec_meanprecacc_210.txt.gz
Total_Precipitation_Accumulation
0.00 0.00 0.01 0.01 0.02 0.02 0.05 0.11 0.23 0.27 0.20 0.29 0.38 0.60 0.70 0.82 1.02 1.02 0.88 0.93 1.23 1.43 1.71 2.17 2.72 3.56 4.64 5.54 5.82 5.30 4.79 4.44 4.01 3.59 3.02 2.65 2.58 2.46 2.17 1.90 1.64 1.52 1.44 1.50
0.00 0.02 0.02 0.02 0.02 0.04 0.07 0.10 0.21 0.27 0.18 0.22 0.38 0.71 1.02 1.00 0.93 0.89 0.95 0.95 1.05 1.43 1.88 2.59 3.62 4.21 4.44 4.57 4.33 3.99 3.72 3.50 3.04 2.67 2.43 2.18 2.14 1.94 1.75 1.65 1.61 1.35 1.25 1.29
0.01 0.03 0.02 0.02 0.03 0.09 0.11 0.12 0.20 0.25 0.16 0.17 0.38 0.89 1.18 1.17 0.95 0.81 0.86 0.85 1.04 1.47 2.06 2.86 3.42 3.55 3.27 2.95 2.85 2.80 2.86 2.62 2.48 2.43 2.32 2.21 2.17 1.94 1.68 1.56 1.51 1.29 1.11 1.12
0.01 0.02 0.02 0.02 0.04 0.08 0.09 0.08 0.07 0.10 0.16 0.35 0.54 1.11 1.31 1.09 1.06 0.89 0.88 0.89 0.94 1.22 1.57 1.99 2.23 2.12 2.24 2.38 2.39 2.50 2.59 2.34 2.32 2.26 1.97 1.87 1.75 1.63 1.47 1.41 1.41 1.48 1.24 1.08
0.02 0.03 0.02 0.02 0.03 0.04 0.04 0.04 0.05 0.11 0.23 0.43 0.63 0.89 1.06 0.90 1.09 0.88 0.74 0.73 0.72 0.88 0.96 1.07 1.20 1.35 1.57 1.68 1.84 2.14 2.38 2.32 2.16 1.99 1.92 1.95 1.80 1.74 1.71 1.72 1.66 1.61 1.48 1.25
0.03 0.04 0.03 0.03 0.02 0.03 0.04 0.06 0.13 0.23 0.40 0.90 0.86 0.84 1.09 1.03 1.09 0.85 0.66 0.58 0.63 0.75 0.83 0.86 0.92 1.05 1.22 1.35 1.52 1.77 2.07 2.20 2.13 1.97 1.87 1.88 1.90 1.83 1.74 1.72 1.68 1.50 1.40 1.32
0.09 0.07 0.05 0.03 0.03 0.05 0.06 0.08 0.24 0.58 0.99 1.16 0.74 0.82 1.08 0.84 0.76 0.63 0.42 0.41 0.52 0.72 0.85 0.92 0.86 0.83 0.90 1.05 1.20 1.30 1.47 1.73 1.85 1.81 1.78 1.77 1.86 1.75 1.58 1.48 1.39 1.33 1.17 1.08
0.14 0.12 0.06 0.04 0.05 0.06 0.05 0.04 0.11 0.22 0.34 0.53 0.72 1.09 1.21 0.86 0.58 0.35 0.26 0.35 0.53 0.67 0.72 0.75 0.74 0.69 0.68 0.75 0.93 1.05 1.23 1.41 1.61 1.62 1.60 1.59 1.63 1.57 1.46 1.45 1.23 1.16 1.11 1.05
0.05 0.05 0.04 0.04 0.05 0.06 0.05 0.03 0.04 0.07 0.12 0.33 0.71 1.02 0.97 0.76 0.56 0.39 0.32 0.35 0.45 0.49 0.52 0.62 0.67 0.73 0.70 0.68 0.78 0.90 1.11 1.29 1.47 1.58 1.62 1.54 1.53 1.53 1.51 1.45 1.28 1.12 1.21 1.13
0.02 0.02 0.04 0.05 0.05 0.06 0.05 0.05 0.04 0.05 0.11 0.25 0.54 0.96 1.15 0.94 0.70 0.51 0.43 0.42 0.49 0.50 0.52 0.69 0.80 0.74 0.62 0.53 0.60 0.74 0.91 1.14 1.29 1.45 1.48 1.38 1.54 1.52 1.52 1.45 1.33 1.20 1.18 1.18
0.02 0.02 0.05 0.05 0.07 0.08 0.07 0.06 0.06 0.05 0.08 0.14 0.38 0.61 0.59 0.55 0.46 0.43 0.48 0.47 0.38 0.43 0.53 0.70 0.85 0.79 0.59 0.48 0.49 0.56 0.73 0.91 1.02 1.13 1.24 1.24 1.31 1.30 1.33 1.37 1.35 1.31 1.29 1.26
0.02 0.02 0.03 0.06 0.09 0.08 0.09 0.09 0.09 0.08 0.08 0.09 0.18 0.37 0.32 0.35 0.37 0.39 0.50 0.56 0.50 0.50 0.57 0.54 0.64 0.75 0.68 0.57 0.45 0.50 0.65 0.77 0.84 0.92 0.95 1.00 1.08 1.13 1.13 1.15 1.24 1.31 1.27 1.21
0.03 0.02 0.03 0.11 0.17 0.15 0.10 0.08 0.09 0.10 0.09 0.08 0.20 0.41 0.34 0.29 0.38 0.38 0.42 0.64 0.74 0.47 0.40 0.42 0.51 0.58 0.65 0.59 0.52 0.59 0.69 0.76 0.83 0.81 0.84 0.90 0.96 0.98 0.99 1.04 1.14 1.24 1.28 1.29
0.03 0.02 0.03 0.10 0.19 0.20 0.16 0.11 0.11 0.10 0.07 0.07 0.13 0.34 0.34 0.33 0.38 0.52 0.58 0.64 0.51 0.38 0.35 0.34 0.43 0.58 0.65 0.66 0.60 0.60 0.70 0.87 0.92 0.88 0.97 1.07 1.10 1.10 1.10 1.12 1.19 1.28 1.34 1.34
0.03 0.02 0.02 0.03 0.07 0.12 0.15 0.15 0.12 0.08 0.05 0.08 0.11 0.21 0.26 0.35 0.41 0.45 0.45 0.43 0.41 0.42 0.38 0.37 0.45 0.62 0.71 0.84 0.85 0.78 0.75 0.86 1.00 1.10 1.19 1.35 1.47 1.48 1.38 1.37 1.45 1.52 1.56 1.56
0.03 0.03 0.03 0.03 0.06 0.10 0.12 0.14 0.10 0.07 0.06 0.06 0.08 0.15 0.21 0.34 0.36 0.41 0.38 0.36 0.40 0.44 0.42 0.40 0.49 0.65 0.67 0.70 0.76 0.76 0.77 0.81 0.85 0.96 1.07 1.25 1.42 1.50 1.49 1.52 1.62 1.69 1.70 1.78
0.07 0.06 0.05 0.04 0.07 0.09 0.17 0.13 0.09 0.08 0.07 0.07 0.11 0.15 0.20 0.29 0.40 0.49 0.51 0.54 0.53 0.43 0.38 0.42 0.49 0.57 0.66 0.63 0.66 0.76 0.81 0.89 0.97 1.11 1.25 1.33 1.43 1.53 1.57 1.55 1.62 1.69 1.71 1.69
0.17 0.15 0.12 0.09 0.10 0.15 0.16 0.13 0.12 0.12 0.12 0.16 0.20 0.22 0.27 0.29 0.38 0.48 0.52 0.51 0.51 0.52 0.59 0.64 0.71 0.74 0.75 0.71 0.72 0.82 0.87 0.93 1.00 1.08 1.18 1.25 1.38 1.51 1.62 1.76 1.83 1.88 1.93 1.93
0.28 0.29 0.22 0.16 0.15 0.18 0.21 0.19 0.19 0.21 0.26 0.27 0.35 0.40 0.40 0.39 0.40 0.50 0.57 0.56 0.62 0.62 0.66 0.74 0.81 0.86 0.80 0.84 0.91 0.99 1.00 1.07 1.13 1.18 1.35 1.47 1.53 1.65 1.71 1.76 1.89 1.99 2.05 2.01
0.32 0.36 0.33 0.25 0.27 0.29 0.29 0.29 0.24 0.27 0.52 0.48 0.51 0.55 0.55 0.58 0.73 0.83 0.84 0.75 0.71 0.72 0.75 0.82 0.82 0.82 0.90 0.93 0.99 1.08 1.15 1.29 1.37 1.40 1.48 1.58 1.71 1.76 1.75 1.74 1.79 1.83 1.89 1.92
0.37 0.43 0.41 0.37 0.36 0.35 0.33 0.33 0.33 0.59 0.87 0.87 0.85 0.81 0.72 0.81 0.88 0.82 0.76 0.83 0.80 0.83 0.91 0.89 0.88 0.92 0.94 0.93 0.98 1.11 1.25 1.37 1.44 1.47 1.50 1.59 1.69 1.84 1.89 1.90 1.81 1.73 1.73 1.76
0.58 0.62 0.60 0.58 0.67 0.70 0.48 0.49 0.70 0.90 0.87 1.05 0.98 0.87 0.86 0.84 0.80 0.72 0.73 0.86 0.95 0.99 1.05 1.04 1.01 0.98 0.98 1.02 1.08 1.19 1.32 1.40 1.46 1.47 1.53 1.60 1.63 1.63 1.65 1.81 1.83 1.78 1.76 1.75
0.76 0.81 0.84 0.80 0.89 0.80 0.67 0.68 0.76 0.73 0.75 0.89 0.90 0.81 0.80 0.77 0.74 0.69 0.73 0.80 0.83 0.88 0.96 0.99 1.02 1.04 1.08 1.14 1.23 1.35 1.41 1.47 1.47 1.55 1.67 1.74 1.71 1.70 1.69 1.69 1.75 1.71 1.63 1.53
0.94 0.74 0.88 1.08 1.09 0.95 0.81 0.70 0.69 0.70 0.72 0.75 0.83 0.88 0.86 0.81 0.78 0.78 0.78 0.80 0.89 0.94 0.98 1.04 1.02 1.05 1.18 1.30 1.42 1.45 1.41 1.49 1.64 1.69 1.69 1.69 1.70 1.64 1.66 1.75 1.67 1.61 1.59 1.50
1.06 0.99 1.15 1.52 1.58 1.36 1.18 1.00 0.89 0.84 0.82 0.87 0.96 0.99 1.04 1.04 1.00 0.96 0.90 0.86 0.87 0.92 0.93 0.99 1.07 1.11 1.20 1.27 1.37 1.48 1.50 1.55 1.63 1.57 1.47 1.47 1.50 1.46 1.43 1.52 1.58 1.46 1.40 1.43
1.10 1.27 1.54 1.85 1.70 1.63 1.49 1.22 1.04 1.01 1.06 1.01 1.05 1.07 1.06 1.04 1.02 1.01 0.99 0.88 0.81 0.82 0.90 0.96 1.02 1.10 1.18 1.25 1.30 1.34 1.39 1.48 1.57 1.60 1.52 1.46 1.41 1.42 1.46 1.44 1.42 1.37 1.20 1.19

GEFSCGP_prec_meanprecacc_216.txt.gz
Total_Precipitation_Accumulation
0.00 0.00 0.01 0.01 0.02 0.02 0.05 0.11 0.23 0.27 0.21 0.29 0.38 0.61 0.71 0.82 1.02 1.02 0.88 0.93 1.23 1.43 1.72 2.18 2.73 3.57 4.65 5.55 5.82 5.30 4.79 4.45 4.02 3.60 3.02 2.65 2.59 2.48 2.19 1.91 1.65 1.54 1.47 1.54
0.00 0.02 0.02 0.02 0.02 0.04 0.07 0.10 0.21 0.27 0.19 0.22 0.38 0.71 1.02 1.00 0.93 0.89 0.95 0.95 1.06 1.43 1.88 2.60 3.63 4.21 4.45 4.57 4.34 3.99 3.73 3.51 3.06 2.68 2.44 2.19 2.15 1.96 1.77 1.67 1.63 1.37 1.29 1.34
0.02 0.03 0.02 0.02 0.04 0.09 0.11 0.13 0.20 0.26 0.17 0.18 0.39 0.89 1.18 1.17 0.95 0.82 0.86 0.86 1.04 1.47 2.06 2.86 3.43 3.56 3.28 2.96 2.86 2.81 2.88 2.63 2.50 2.44 2.33 2.21 2.18 1.96 1.70 1.57 1.52 1.31 1.14 1.16
0.01 0.02 0.02 0.02 0.04 0.08 0.09 0.08 0.07 0.10 0.16 0.35 0.54 1.12 1.32 1.09 1.07 0.89 0.88 0.90 0.95 1.23 1.58 2.00 2.24 2.14 2.26 2.39 2.41 2.53 2.62 2.36 2.33 2.27 1.98 1.87 1.77 1.66 1.50 1.44 1.43 1.50 1.26 1.11
0.02 0.03 0.02 0.02 0.03 0.04 0.05 0.04 0.05 0.12 0.23 0.43 0.63 0.90 1.07 0.90 1.09 0.88 0.74 0.74 0.72 0.89 0.97 1.08 1.21 1.37 1.58 1.69 1.86 2.16 2.41 2.33 2.17 2.00 1.93 1.97 1.84 1.77 1.73 1.74 1.68 1.64 1.50 1.27
0.03 0.04 0.03 0.03 0.02 0.03 0.04 0.06 0.13 0.24 0.41 0.90 0.86 0.85 1.09 1.03 1.09 0.85 0.67 0.58 0.64 0.75 0.83 0.87 0.93 1.06 1.24 1.36 1.53 1.78 2.09 2.22 2.15 1.98 1.90 1.91 1.94 1.87 1.76 1.74 1.69 1.52 1.42 1.35
0.09 0.07 0.05 0.04 0.03 0.05 0.06 0.08 0.24 0.59 0.99 1.16 0.74 0.82 1.08 0.84 0.77 0.64 0.42 0.41 0.53 0.72 0.86 0.93 0.89 0.85 0.91 1.06 1.21 1.31 1.49 1.75 1.87 1.84 1.81 1.82 1.91 1.80 1.60 1.50 1.40 1.35 1.18 1.10
0.14 0.12 0.06 0.04 0.05 0.06 0.05 0.04 0.11 0.23 0.35 0.54 0.72 1.10 1.21 0.86 0.58 0.35 0.27 0.36 0.53 0.68 0.73 0.77 0.76 0.72 0.70 0.77 0.95 1.08 1.26 1.44 1.64 1.66 1.63 1.63 1.69 1.61 1.49 1.46 1.25 1.18 1.13 1.07
0.05 0.05 0.04 0.04 0.06 0.07 0.05 0.04 0.04 0.08 0.13 0.34 0.71 1.02 0.97 0.76 0.57 0.40 0.33 0.35 0.45 0.50 0.53 0.64 0.70 0.77 0.75 0.71 0.82 0.94 1.15 1.33 1.51 1.62 1.65 1.58 1.57 1.56 1.54 1.48 1.30 1.15 1.23 1.16
0.02 0.02 0.04 0.05 0.06 0.06 0.05 0.05 0.04 0.05 0.12 0.26 0.55 0.96 1.15 0.94 0.70 0.51 0.43 0.43 0.50 0.51 0.52 0.72 0.85 0.82 0.68 0.57 0.63 0.78 0.95 1.19 1.34 1.50 1.52 1.41 1.58 1.55 1.55 1.48 1.36 1.22 1.22 1.21
0.02 0.02 0.05 0.06 0.07 0.08 0.07 0.07 0.06 0.05 0.08 0.15 0.38 0.61 0.59 0.55 0.47 0.43 0.49 0.47 0.38 0.44 0.55 0.72 0.91 0.86 0.64 0.51 0.52 0.62 0.81 0.99 1.09 1.19 1.29 1.29 1.36 1.35 1.37 1.40 1.39 1.35 1.33 1.29
0.02 0.02 0.03 0.07 0.09 0.08 0.09 0.09 0.09 0.08 0.08 0.09 0.18 0.37 0.32 0.36 0.38 0.39 0.50 0.56 0.50 0.51 0.59 0.56 0.65 0.78 0.70 0.61 0.51 0.58 0.74 0.87 0.91 0.97 0.99 1.05 1.14 1.19 1.19 1.19 1.28 1.35 1.31 1.25
0.03 0.02 0.03 0.11 0.18 0.15 0.10 0.08 0.09 0.10 0.09 0.08 0.21 0.41 0.34 0.29 0.39 0.38 0.42 0.65 0.76 0.48 0.41 0.43 0.52 0.60 0.68 0.63 0.54 0.63 0.73 0.79 0.87 0.86 0.88 0.94 1.01 1.04 1.06 1.11 1.21 1.31 1.34 1.34
0.03 0.02 0.03 0.10 0.19 0.20 0.16 0.11 0.11 0.10 0.07 0.07 0.13 0.34 0.34 0.34 0.38 0.53 0.59 0.65 0.52 0.39 0.36 0.35 0.44 0.60 0.68 0.68 0.62 0.62 0.73 0.90 0.95 0.92 1.01 1.12 1.15 1.17 1.18 1.20 1.30 1.39 1.44 1.41
0.03 0.02 0.02 0.03 0.07 0.12 0.15 0.15 0.12 0.08 0.05 0.08 0.11 0.21 0.26 0.35 0.42 0.48 0.46 0.45 0.42 0.43 0.39 0.38 0.46 0.63 0.72 0.85 0.86 0.79 0.77 0.87 1.01 1.12 1.22 1.39 1.53 1.54 1.43 1.44 1.56 1.66 1.71 1.66
0.03 0.03 0.03 0.03 0.06 0.10 0.12 0.14 0.10 0.07 0.06 0.06 0.08 0.15 0.21 0.35 0.37 0.43 0.40 0.37 0.42 0.45 0.43 0.41 0.51 0.66 0.69 0.71 0.77 0.77 0.78 0.82 0.86 0.98 1.10 1.31 1.49 1.55 1.55 1.60 1.72 1.77 1.76 1.85
0.07 0.06 0.05 0.04 0.07 0.09 0.17 0.13 0.09 0.09 0.08 0.07 0.11 0.16 0.20 0.30 0.42 0.51 0.53 0.56 0.55 0.45 0.40 0.44 0.50 0.57 0.67 0.64 0.66 0.76 0.82 0.90 0.99 1.13 1.28 1.39 1.48 1.57 1.61 1.62 1.70 1.77 1.78 1.76
0.17 0.15 0.12 0.10 0.11 0.16 0.17 0.13 0.12 0.12 0.13 0.16 0.20 0.23 0.28 0.31 0.40 0.51 0.54 0.54 0.54 0.55 0.61 0.66 0.73 0.75 0.75 0.71 0.72 0.82 0.87 0.94 1.01 1.10 1.21 1.29 1.45 1.58 1.67 1.81 1.89 1.96 2.02 2.03
0.28 0.29 0.23 0.17 0.15 0.18 0.21 0.20 0.20 0.22 0.26 0.28 0.36 0.41 0.41 0.40 0.42 0.53 0.60 0.59 0.65 0.64 0.68 0.77 0.83 0.87 0.81 0.85 0.92 0.99 1.00 1.07 1.14 1.20 1.37 1.50 1.58 1.71 1.77 1.82 1.95 2.09 2.18 2.14
0.32 0.36 0.33 0.26 0.27 0.29 0.30 0.31 0.26 0.28 0.53 0.50 0.52 0.57 0.56 0.60 0.76 0.86 0.86 0.78 0.75 0.75 0.77 0.85 0.85 0.84 0.91 0.94 1.01 1.09 1.16 1.30 1.38 1.41 1.50 1.60 1.75 1.81 1.80 1.80 1.88 1.94 2.00 2.04
0.37 0.43 0.41 0.37 0.36 0.36 0.35 0.35 0.35 0.61 0.89 0.88 0.87 0.84 0.76 0.84 0.91 0.84 0.78 0.86 0.83 0.86 0.94 0.91 0.90 0.94 0.96 0.95 1.00 1.12 1.26 1.39 1.46 1.48 1.53 1.63 1.72 1.88 1.94 1.96 1.88 1.80 1.82 1.87
0.59 0.62 0.61 0.58 0.68 0.70 0.49 0.52 0.73 0.93 0.90 1.07 1.02 0.92 0.91 0.89 0.84 0.76 0.76 0.89 0.98 1.02 1.09 1.07 1.04 1.00 1.00 1.05 1.11 1.21 1.34 1.42 1.48 1.49 1.56 1.64 1.67 1.68 1.70 1.86 1.90 1.86 1.84 1.84
0.77 0.81 0.85 0.81 0.90 0.81 0.68 0.70 0.79 0.76 0.78 0.93 0.94 0.85 0.84 0.82 0.78 0.74 0.78 0.84 0.87 0.93 1.02 1.04 1.07 1.08 1.11 1.17 1.25 1.37 1.42 1.49 1.50 1.57 1.70 1.79 1.77 1.75 1.74 1.75 1.81 1.80 1.72 1.61
0.94 0.76 0.90 1.09 1.11 0.97 0.83 0.72 0.72 0.72 0.74 0.78 0.86 0.91 0.89 0.85 0.82 0.82 0.82 0.84 0.93 0.98 1.03 1.09 1.07 1.10 1.21 1.32 1.44 1.46 1.42 1.51 1.67 1.73 1.74 1.75 1.76 1.70 1.73 1.82 1.76 1.71 1.70 1.60
1.06 1.00 1.17 1.53 1.60 1.40 1.22 1.04 0.93 0.88 0.85 0.89 0.99 1.02 1.07 1.06 1.03 1.00 0.93 0.90 0.91 0.96 0.97 1.03 1.11 1.15 1.24 1.30 1.40 1.50 1.53 1.58 1.67 1.63 1.54 1.54 1.57 1.54 1.52 1.62 1.69 1.57 1.53 1.55
1.10 1.27 1.54 1.85 1.72 1.68 1.55 1.27 1.11 1.07 1.10 1.04 1.08 1.10 1.09 1.07 1.06 1.04 1.03 0.92 0.85 0.85 0.94 0.99 1.05 1.13 1.21 1.27 1.33 1.36 1.42 1.51 1.61 1.66 1.59 1.53 1.49 1.50 1.53 1.53 1.53 1.49 1.33 1.32

GEFSCGP_prec_meanprecacc_222.txt.gz
Total_Precipitation_Accumulation
0.00 0.00 0.01 0.01 0.02 0.02 0.05 0.11 0.23 0.27 0.21 0.29 0.38 0.61 0.71 0.82 1.02 1.02 0.88 0.93 1.23 1.44 1.72 2.18 2.73 3.57 4.65 5.55 5.82 5.31 4.80 4.46 4.03 3.61 3.04 2.68 2.63 2.52 2.23 1.96 1.69 1.60 1.54 1.62
0.00 0.02 0.02 0.02 0.02 0.04 0.07 0.10 0.21 0.27 0.19 0.22 0.38 0.71 1.02 1.00 0.93 0.89 0.95 0.95 1.06 1.43 1.88 2.60 3.63 4.21 4.45 4.58 4.34 4.00 3.73 3.52 3.07 2.70 2.47 2.21 2.19 2.00 1.80 1.70 1.66 1.42 1.35 1.41
0.02 0.03 0.02 0.02 0.04 0.10 0.11 0.13 0.20 0.26 0.17 0.18 0.39 0.89 1.18 1.17 0.95 0.82 0.86 0.86 1.04 1.47 2.06 2.86 3.44 3.56 3.28 2.96 2.87 2.82 2.88 2.64 2.50 2.45 2.34 2.23 2.23 1.99 1.73 1.61 1.58 1.35 1.18 1.19
0.01 0.02 0.02 0.02 0.04 0.08 0.09 0.08 0.07 0.10 0.16 0.35 0.54 1.12 1.32 1.09 1.07 0.89 0.88 0.90 0.95 1.23 1.59 2.01 2.25 2.14 2.26 2.40 2.41 2.53 2.62 2.37 2.34 2.28 1.99 1.90 1.80 1.69 1.54 1.48 1.48 1.54 1.28 1.12
0.02 0.03 0.02 0.02 0.03 0.04 0.05 0.04 0.05 0.12 0.23 0.43 0.63 0.90 1.07 0.90 1.09 0.88 0.74 0.74 0.72 0.89 0.97 1.08 1.21 1.37 1.58 1.69 1.86 2.17 2.41 2.34 2.17 2.01 1.94 2.00 1.86 1.80 1.76 1.77 1.71 1.67 1.53 1.29
0.03 0.04 0.03 0.03 0.02 0.03 0.04 0.06 0.13 0.24 0.41 0.90 0.86 0.85 1.09 1.03 1.09 0.85 0.67 0.58 0.64 0.75 0.83 0.87 0.93 1.06 1.24 1.36 1.53 1.78 2.09 2.23 2.15 1.99 1.91 1.93 1.97 1.91 1.80 1.77 1.72 1.54 1.44 1.37
0.09 0.07 0.05 0.04 0.03 0.05 0.06 0.08 0.25 0.59 0.99 1.16 0.74 0.82 1.08 0.84 0.77 0.64 0.42 0.41 0.53 0.72 0.86 0.93 0.89 0.85 0.91 1.06 1.21 1.32 1.50 1.76 1.88 1.86 1.83 1.84 1.94 1.84 1.64 1.52 1.43 1.37 1.20 1.12
0.14 0.12 0.06 0.04 0.05 0.06 0.05 0.04 0.11 0.24 0.35 0.54 0.72 1.10 1.21 0.86 0.59 0.36 0.27 0.36 0.53 0.68 0.73 0.77 0.76 0.72 0.70 0.78 0.95 1.09 1.28 1.46 1.66 1.68 1.66 1.65 1.71 1.64 1.51 1.49 1.27 1.20 1.15 1.09
0.05 0.05 0.04 0.04 0.06 0.07 0.05 0.04 0.04 0.08 0.13 0.34 0.71 1.02 0.97 0.76 0.57 0.40 0.33 0.35 0.45 0.50 0.53 0.64 0.70 0.77 0.75 0.72 0.82 0.95 1.17 1.36 1.55 1.66 1.69 1.61 1.60 1.59 1.56 1.51 1.32 1.16 1.25 1.18
0.02 0.02 0.04 0.05 0.06 0.06 0.06 0.05 0.05 0.05 0.12 0.26 0.55 0.96 1.15 0.94 0.70 0.51 0.43 0.43 0.50 0.51 0.53 0.72 0.86 0.82 0.68 0.58 0.65 0.79 0.98 1.23 1.40 1.57 1.58 1.48 1.63 1.60 1.57 1.49 1.37 1.24 1.25 1.24
0.02 0.02 0.05 0.06 0.07 0.08 0.07 0.07 0.06 0.06 0.08 0.15 0.38 0.62 0.59 0.55 0.47 0.44 0.49 0.47 0.38 0.44 0.55 0.73 0.91 0.87 0.65 0.53 0.54 0.64 0.85 1.06 1.17 1.27 1.35 1.34 1.39 1.37 1.40 1.42 1.41 1.37 1.35 1.31
0.02 0.02 0.03 0.07 0.09 0.08 0.09 0.10 0.10 0.09 0.08 0.09 0.18 0.37 0.32 0.36 0.38 0.40 0.51 0.57 0.51 0.52 0.59 0.56 0.66 0.79 0.72 0.62 0.53 0.60 0.77 0.91 0.96 1.02 1.04 1.08 1.16 1.21 1.20 1.20 1.29 1.36 1.32 1.26
0.03 0.02 0.04 0.11 0.18 0.15 0.10 0.09 0.10 0.11 0.10 0.09 0.21 0.41 0.34 0.29 0.39 0.39 0.43 0.66 0.77 0.49 0.42 0.44 0.52 0.61 0.69 0.64 0.56 0.65 0.75 0.81 0.88 0.87 0.91 0.97 1.03 1.06 1.08 1.12 1.22 1.32 1.35 1.35
0.03 0.02 0.03 0.10 0.19 0.20 0.16 0.12 0.12 0.11 0.09 0.08 0.14 0.34 0.34 0.34 0.39 0.54 0.60 0.67 0.53 0.40 0.40 0.38 0.45 0.61 0.69 0.69 0.63 0.63 0.74 0.91 0.96 0.93 1.02 1.13 1.17 1.18 1.20 1.22 1.30 1.40 1.45 1.42
0.03 0.02 0.02 0.03 0.07 0.12 0.15 0.15 0.12 0.09 0.06 0.09 0.12 0.22 0.26 0.35 0.42 0.48 0.47 0.46 0.43 0.45 0.42 0.39 0.47 0.64 0.73 0.86 0.87 0.80 0.78 0.88 1.02 1.13 1.23 1.40 1.54 1.55 1.45 1.45 1.57 1.67 1.71 1.67
0.04 0.03 0.03 0.03 0.06 0.10 0.12 0.14 0.10 0.07 0.06 0.07 0.09 0.15 0.21 0.35 0.37 0.43 0.41 0.38 0.43 0.46 0.44 0.41 0.51 0.66 0.69 0.71 0.77 0.77 0.78 0.82 0.87 0.98 1.11 1.32 1.49 1.55 1.55 1.61 1.74 1.78 1.77 1.87
0.07 0.06 0.05 0.04 0.07 0.09 0.17 0.13 0.09 0.09 0.08 0.08 0.11 0.16 0.20 0.31 0.42 0.51 0.54 0.57 0.56 0.45 0.41 0.44 0.50 0.58 0.67 0.64 0.66 0.77 0.82 0.90 0.99 1.13 1.28 1.39 1.49 1.58 1.62 1.62 1.71 1.78 1.79 1.78
0.17 0.15 0.12 0.10 0.11 0.16 0.17 0.13 0.12 0.12 0.13 0.16 0.20 0.23 0.28 0.31 0.41 0.51 0.55 0.54 0.54 0.55 0.62 0.67 0.73 0.75 0.76 0.71 0.72 0.82 0.88 0.94 1.01 1.10 1.21 1.30 1.46 1.58 1.68 1.82 1.91 1.98 2.04 2.06
0.28 0.29 0.23 0.17 0.15 0.18 0.21 0.20 0.21 0.23 0.28 0.29 0.36 0.41 0.41 0.40 0.42 0.54 0.61 0.60 0.66 0.66 0.69 0.78 0.84 0.88 0.82 0.86 0.93 1.00 1.01 1.08 1.14 1.20 1.37 1.51 1.60 1.73 1.82 1.89 2.03 2.14 2.21 2.18
0.32 0.36 0.33 0.26 0.27 0.29 0.30 0.32 0.28 0.32 0.57 0.52 0.53 0.58 0.57 0.61 0.77 0.87 0.88 0.80 0.77 0.78 0.79 0.87 0.86 0.86 0.93 0.96 1.03 1.11 1.18 1.31 1.40 1.43 1.52 1.63 1.77 1.84 1.86 1.89 1.97 2.01 2.05 2.07
0.37 0.43 0.42 0.37 0.37 0.36 0.35 0.37 0.38 0.66 0.93 0.91 0.89 0.87 0.78 0.87 0.94 0.87 0.80 0.88 0.85 0.89 0.97 0.93 0.92 0.97 0.98 0.97 1.02 1.14 1.28 1.40 1.47 1.50 1.54 1.64 1.74 1.90 1.97 2.00 1.93 1.83 1.84 1.89
0.59 0.62 0.61 0.59 0.69 0.71 0.49 0.53 0.74 0.94 0.92 1.10 1.04 0.94 0.93 0.92 0.86 0.77 0.78 0.90 1.00 1.04 1.11 1.09 1.06 1.02 1.03 1.08 1.14 1.24 1.37 1.44 1.50 1.51 1.58 1.66 1.69 1.70 1.74 1.90 1.94 1.89 1.86 1.86
0.78 0.82 0.86 0.82 0.91 0.82 0.69 0.71 0.80 0.76 0.79 0.94 0.96 0.87 0.86 0.83 0.80 0.75 0.79 0.85 0.88 0.95 1.04 1.07 1.09 1.10 1.14 1.20 1.27 1.40 1.45 1.51 1.52 1.59 1.72 1.81 1.78 1.77 1.76 1.79 1.85 1.83 1.75 1.64
0.95 0.77 0.91 1.10 1.12 0.98 0.84 0.72 0.72 0.73 0.75 0.79 0.87 0.92 0.90 0.87 0.84 0.84 0.84 0.86 0.94 1.00 1.05 1.11 1.10 1.13 1.24 1.35 1.47 1.50 1.46 1.54 1.70 1.75 1.75 1.76 1.77 1.72 1.74 1.85 1.79 1.75 1.73 1.63
1.07 1.00 1.18 1.54 1.61 1.41 1.22 1.04 0.94 0.89 0.86 0.91 1.00 1.04 1.09 1.08 1.05 1.01 0.95 0.91 0.92 0.98 0.99 1.05 1.13 1.17 1.26 1.33 1.44 1.54 1.56 1.61 1.70 1.65 1.55 1.56 1.59 1.56 1.54 1.65 1.71 1.60 1.56 1.59
1.10 1.27 1.55 1.86 1.73 1.69 1.56 1.29 1.13 1.11 1.14 1.08 1.11 1.13 1.12 1.08 1.07 1.05 1.04 0.93 0.86 0.87 0.95 1.01 1.07 1.15 1.23 1.30 1.36 1.39 1.45 1.55 1.65 1.68 1.61 1.55 1.51 1.52 1.55 1.55 1.55 1.53 1.37 1.37

GEFSCGP_prec_meanprecacc_228.txt.gz
Total_Precipitation_Accumulation
0.00 0.00 0.01 0.01 0.02 0.03 0.06 0.11 0.24 0.28 0.21 0.31 0.39 0.61 0.71 0.82 1.02 1.02 0.88 0.93 1.23 1.44 1.72 2.18 2.73 3.57 4.65 5.55 5.83 5.32 4.83 4.49 4.07 3.66 3.09 2.73 2.70 2.59 2.30 2.03 1.75 1.68 1.63 1.71
0.01 0.02 0.02 0.02 0.02 0.04 0.07 0.11 0.21 0.27 0.19 0.23 0.39 0.72 1.02 1.00 0.93 0.89 0.95 0.95 1.06 1.43 1.88 2.60 3.63 4.21 4.45 4.58 4.34 4.00 3.75 3.54 3.09 2.73 2.50 2.27 2.25 2.04 1.85 1.76 1.74 1.48 1.41 1.47
0.02 0.04 0.02 0.02 0.04 0.10 0.11 0.13 0.21 0.26 0.17 0.19 0.39 0.90 1.19 1.17 0.96 0.82 0.86 0.86 1.04 1.47 2.06 2.87 3.44 3.57 3.28 2.96 2.87 2.82 2.89 2.65 2.51 2.48 2.37 2.27 2.27 2.03 1.77 1.67 1.63 1.39 1.21 1.22
0.03 0.02 0.02 0.02 0.05 0.09 0.10 0.08 0.07 0.10 0.17 0.35 0.54 1.13 1.33 1.10 1.07 0.90 0.88 0.90 0.95 1.23 1.59 2.01 2.25 2.14 2.26 2.40 2.41 2.53 2.63 2.37 2.35 2.30 2.02 1.93 1.82 1.72 1.59 1.53 1.51 1.58 1.32 1.15
0.04 0.03 0.02 0.02 0.03 0.04 0.05 0.04 0.05 0.12 0.24 0.44 0.64 0.91 1.09 0.92 1.10 0.89 0.75 0.74 0.72 0.89 0.97 1.08 1.21 1.37 1.59 1.70 1.87 2.17 2.41 2.35 2.18 2.03 1.96 2.03 1.89 1.83 1.80 1.80 1.76 1.72 1.57 1.32
0.05 0.04 0.04 0.03 0.02 0.04 0.04 0.06 0.14 0.25 0.41 0.91 0.87 0.86 1.11 1.04 1.11 0.86 0.68 0.59 0.64 0.75 0.83 0.87 0.93 1.07 1.24 1.36 1.53 1.78 2.09 2.23 2.16 2.00 1.92 1.96 2.00 1.95 1.85 1.81 1.76 1.58 1.47 1.40
0.10 0.08 0.06 0.04 0.04 0.06 0.06 0.08 0.25 0.60 1.01 1.17 0.75 0.83 1.08 0.85 0.78 0.65 0.43 0.41 0.53 0.72 0.86 0.93 0.89 0.86 0.91 1.06 1.22 1.32 1.50 1.77 1.89 1.86 1.84 1.85 1.97 1.88 1.68 1.56 1.47 1.41 1.23 1.14
0.14 0.12 0.06 0.04 0.05 0.07 0.05 0.04 0.12 0.25 0.37 0.55 0.74 1.10 1.21 0.87 0.59 0.36 0.27 0.36 0.53 0.68 0.73 0.77 0.76 0.73 0.71 0.78 0.96 1.09 1.28 1.46 1.66 1.68 1.67 1.67 1.73 1.66 1.54 1.52 1.30 1.22 1.17 1.11
0.05 0.05 0.04 0.04 0.06 0.07 0.06 0.04 0.05 0.09 0.15 0.36 0.73 1.03 0.99 0.77 0.57 0.40 0.33 0.35 0.45 0.50 0.53 0.64 0.70 0.77 0.75 0.72 0.83 0.96 1.19 1.39 1.57 1.67 1.70 1.63 1.61 1.61 1.59 1.54 1.34 1.18 1.27 1.20
0.02 0.03 0.05 0.05 0.06 0.06 0.06 0.06 0.05 0.06 0.14 0.28 0.57 0.99 1.16 0.95 0.70 0.51 0.43 0.43 0.50 0.51 0.53 0.72 0.86 0.82 0.69 0.58 0.65 0.80 1.01 1.27 1.44 1.60 1.60 1.49 1.65 1.62 1.61 1.52 1.40 1.27 1.27 1.26
0.02 0.03 0.06 0.06 0.07 0.08 0.07 0.07 0.07 0.07 0.09 0.16 0.41 0.63 0.60 0.56 0.48 0.45 0.50 0.48 0.39 0.45 0.55 0.73 0.91 0.87 0.65 0.54 0.55 0.66 0.88 1.11 1.22 1.30 1.38 1.37 1.42 1.40 1.42 1.44 1.43 1.40 1.38 1.33
0.02 0.02 0.04 0.07 0.09 0.09 0.10 0.11 0.12 0.11 0.10 0.11 0.21 0.40 0.33 0.37 0.40 0.43 0.53 0.59 0.52 0.53 0.60 0.57 0.67 0.80 0.74 0.65 0.56 0.65 0.82 0.96 1.01 1.07 1.09 1.16 1.23 1.25 1.23 1.23 1.31 1.38 1.33 1.28
0.03 0.02 0.04 0.12 0.18 0.15 0.11 0.10 0.11 0.13 0.13 0.11 0.23 0.44 0.36 0.31 0.44 0.45 0.48 0.70 0.82 0.53 0.45 0.46 0.54 0.63 0.72 0.67 0.59 0.69 0.79 0.87 0.94 0.91 0.94 1.00 1.05 1.08 1.10 1.14 1.24 1.33 1.36 1.36
0.03 0.02 0.03 0.10 0.19 0.21 0.16 0.12 0.13 0.11 0.10 0.09 0.15 0.38 0.38 0.37 0.45 0.63 0.67 0.72 0.60 0.52 0.49 0.42 0.46 0.62 0.71 0.71 0.65 0.66 0.76 0.93 0.98 0.95 1.04 1.14 1.18 1.20 1.22 1.24 1.32 1.41 1.46 1.43
0.03 0.02 0.02 0.03 0.07 0.12 0.15 0.16 0.13 0.10 0.07 0.10 0.13 0.25 0.30 0.39 0.47 0.56 0.54 0.51 0.46 0.50 0.49 0.42 0.48 0.65 0.74 0.87 0.88 0.81 0.79 0.88 1.03 1.14 1.24 1.40 1.55 1.57 1.46 1.47 1.58 1.68 1.73 1.68
0.04 0.03 0.03 0.03 0.06 0.10 0.12 0.14 0.10 0.07 0.07 0.08 0.10 0.17 0.24 0.40 0.46 0.53 0.48 0.46 0.50 0.50 0.47 0.43 0.52 0.67 0.69 0.71 0.77 0.78 0.79 0.83 0.88 0.99 1.12 1.33 1.51 1.57 1.57 1.63 1.75 1.80 1.79 1.89
0.07 0.06 0.05 0.04 0.07 0.09 0.17 0.14 0.10 0.09 0.08 0.08 0.12 0.17 0.22 0.33 0.47 0.57 0.59 0.64 0.64 0.53 0.47 0.47 0.51 0.58 0.67 0.64 0.67 0.77 0.82 0.90 1.00 1.14 1.30 1.41 1.51 1.59 1.63 1.64 1.73 1.81 1.82 1.81
0.17 0.15 0.12 0.10 0.11 0.16 0.18 0.14 0.13 0.14 0.14 0.17 0.21 0.25 0.30 0.33 0.43 0.55 0.60 0.58 0.61 0.61 0.66 0.69 0.75 0.78 0.78 0.73 0.74 0.83 0.89 0.95 1.02 1.12 1.24 1.33 1.49 1.61 1.70 1.85 1.93 2.01 2.08 2.10
0.28 0.29 0.23 0.17 0.15 0.19 0.22 0.21 0.21 0.24 0.29 0.29 0.37 0.42 0.42 0.41 0.44 0.56 0.65 0.66 0.75 0.72 0.73 0.81 0.87 0.90 0.85 0.89 0.97 1.04 1.05 1.12 1.18 1.24 1.41 1.56 1.65 1.78 1.86 1.93 2.07 2.19 2.28 2.24
0.32 0.36 0.34 0.26 0.28 0.31 0.32 0.34 0.28 0.33 0.59 0.52 0.54 0.58 0.58 0.63 0.80 0.90 0.92 0.86 0.83 0.82 0.83 0.90 0.88 0.87 0.95 1.00 1.08 1.15 1.23 1.37 1.45 1.48 1.57 1.68 1.84 1.92 1.93 1.96 2.04 2.08 2.13 2.14
0.37 0.43 0.43 0.38 0.38 0.37 0.36 0.37 0.38 0.68 0.98 0.93 0.90 0.87 0.78 0.88 0.96 0.90 0.84 0.92 0.90 0.94 1.00 0.96 0.94 0.98 1.01 1.00 1.07 1.20 1.34 1.47 1.54 1.57 1.62 1.73 1.82 1.99 2.06 2.07 2.00 1.91 1.92 1.97
0.60 0.63 0.62 0.60 0.71 0.74 0.50 0.53 0.76 0.96 0.93 1.11 1.04 0.95 0.95 0.94 0.88 0.79 0.81 0.93 1.03 1.08 1.14 1.11 1.07 1.04 1.06 1.12 1.18 1.29 1.43 1.51 1.57 1.58 1.66 1.76 1.80 1.79 1.79 1.97 2.01 1.96 1.93 1.93
0.80 0.84 0.87 0.84 0.93 0.84 0.70 0.71 0.81 0.77 0.80 0.94 0.96 0.87 0.87 0.85 0.83 0.78 0.81 0.87 0.91 0.97 1.06 1.09 1.11 1.13 1.18 1.23 1.32 1.46 1.52 1.58 1.60 1.67 1.81 1.91 1.88 1.84 1.81 1.83 1.89 1.87 1.79 1.67
0.97 0.79 0.92 1.11 1.13 0.98 0.85 0.73 0.73 0.73 0.76 0.80 0.88 0.93 0.91 0.87 0.85 0.85 0.85 0.87 0.96 1.02 1.07 1.13 1.13 1.16 1.28 1.39 1.52 1.56 1.53 1.63 1.79 1.85 1.85 1.87 1.88 1.80 1.79 1.89 1.83 1.78 1.76 1.65
1.08 1.01 1.19 1.57 1.64 1.43 1.24 1.06 0.95 0.90 0.87 0.92 1.02 1.06 1.10 1.09 1.06 1.02 0.96 0.92 0.94 1.01 1.02 1.08 1.16 1.21 1.30 1.37 1.48 1.59 1.62 1.68 1.77 1.72 1.62 1.63 1.67 1.65 1.63 1.70 1.74 1.62 1.58 1.60
1.11 1.29 1.57 1.90 1.77 1.72 1.58 1.31 1.14 1.12 1.15 1.10 1.14 1.16 1.13 1.10 1.09 1.07 1.06 0.95 0.88 0.89 0.98 1.04 1.10 1.18 1.27 1.33 1.39 1.42 1.49 1.59 1.70 1.73 1.65 1.58 1.55 1.57 1.62 1.60 1.59 1.57 1.40 1.39

GEFSCGP_prec_meanprecacc_234.txt.gz
Total_Precipitation_Accumulation
0.00 0.01 0.01 0.02 0.02 0.03 0.07 0.12 0.24 0.29 0.22 0.32 0.42 0.63 0.73 0.84 1.03 1.03 0.89 0.94 1.24 1.44 1.72 2.18 2.73 3.57 4.65 5.56 5.83 5.33 4.83 4.49 4.07 3.67 3.10 2.74 2.71 2.62 2.33 2.05 1.77 1.70 1.66 1.74
0.01 0.02 0.02 0.02 0.03 0.04 0.08 0.12 0.22 0.28 0.19 0.25 0.42 0.74 1.05 1.03 0.95 0.91 0.97 0.97 1.07 1.44 1.89 2.60 3.63 4.22 4.45 4.58 4.35 4.01 3.75 3.55 3.09 2.74 2.51 2.27 2.26 2.06 1.87 1.78 1.76 1.50 1.44 1.51
0.02 0.04 0.02 0.02 0.04 0.10 0.11 0.14 0.21 0.26 0.18 0.22 0.45 0.93 1.22 1.21 0.98 0.83 0.88 0.88 1.06 1.48 2.07 2.87 3.44 3.57 3.28 2.97 2.87 2.83 2.90 2.65 2.52 2.48 2.37 2.28 2.29 2.06 1.79 1.69 1.65 1.41 1.24 1.26
0.03 0.02 0.02 0.02 0.05 0.09 0.10 0.09 0.08 0.11 0.18 0.38 0.58 1.20 1.42 1.18 1.11 0.92 0.91 0.93 0.97 1.24 1.59 2.01 2.25 2.15 2.26 2.40 2.42 2.54 2.63 2.38 2.35 2.30 2.02 1.93 1.83 1.74 1.60 1.54 1.52 1.59 1.34 1.18
0.04 0.03 0.02 0.03 0.04 0.04 0.05 0.04 0.06 0.13 0.25 0.46 0.65 0.94 1.18 0.99 1.13 0.93 0.79 0.80 0.76 0.91 0.98 1.09 1.22 1.38 1.59 1.70 1.87 2.17 2.41 2.35 2.18 2.03 1.97 2.03 1.89 1.83 1.80 1.81 1.77 1.74 1.59 1.34
0.05 0.05 0.04 0.03 0.04 0.04 0.05 0.07 0.15 0.26 0.43 0.93 0.88 0.88 1.12 1.05 1.14 0.90 0.72 0.62 0.66 0.77 0.84 0.88 0.94 1.08 1.25 1.37 1.54 1.79 2.09 2.23 2.16 2.01 1.93 1.96 2.02 1.96 1.86 1.83 1.78 1.59 1.48 1.41
0.10 0.08 0.06 0.04 0.04 0.07 0.07 0.09 0.27 0.63 1.03 1.18 0.76 0.86 1.10 0.86 0.80 0.67 0.45 0.44 0.56 0.75 0.87 0.94 0.90 0.87 0.93 1.08 1.22 1.32 1.50 1.77 1.90 1.87 1.85 1.86 1.99 1.90 1.71 1.58 1.48 1.42 1.24 1.15
0.14 0.12 0.06 0.04 0.05 0.07 0.06 0.05 0.14 0.27 0.39 0.56 0.75 1.14 1.23 0.88 0.60 0.37 0.28 0.38 0.57 0.71 0.77 0.80 0.78 0.74 0.72 0.80 0.97 1.09 1.28 1.47 1.68 1.70 1.68 1.69 1.75 1.69 1.57 1.55 1.32 1.23 1.18 1.11
0.06 0.05 0.04 0.04 0.06 0.07 0.06 0.05 0.05 0.10 0.15 0.37 0.75 1.07 1.02 0.79 0.59 0.42 0.35 0.38 0.50 0.55 0.58 0.68 0.73 0.79 0.77 0.74 0.84 0.97 1.21 1.41 1.59 1.69 1.72 1.65 1.63 1.63 1.62 1.56 1.36 1.19 1.28 1.21
0.03 0.03 0.05 0.05 0.06 0.06 0.07 0.06 0.06 0.06 0.16 0.30 0.60 1.01 1.20 0.97 0.73 0.56 0.49 0.48 0.56 0.57 0.59 0.78 0.91 0.86 0.71 0.60 0.67 0.83 1.04 1.30 1.47 1.62 1.62 1.51 1.67 1.63 1.62 1.54 1.43 1.30 1.29 1.28
0.02 0.03 0.06 0.06 0.07 0.08 0.08 0.07 0.07 0.07 0.10 0.18 0.43 0.65 0.61 0.58 0.51 0.51 0.59 0.57 0.48 0.56 0.67 0.80 0.98 0.94 0.69 0.56 0.58 0.70 0.92 1.16 1.27 1.36 1.43 1.41 1.46 1.43 1.45 1.47 1.45 1.43 1.41 1.36
0.02 0.02 0.04 0.07 0.09 0.09 0.10 0.11 0.12 0.12 0.11 0.11 0.23 0.43 0.34 0.38 0.45 0.52 0.61 0.69 0.70 0.72 0.74 0.66 0.74 0.89 0.83 0.71 0.62 0.72 0.90 1.04 1.08 1.14 1.16 1.21 1.32 1.37 1.34 1.31 1.36 1.42 1.36 1.30
0.03 0.02 0.04 0.13 0.19 0.15 0.11 0.10 0.11 0.13 0.14 0.12 0.24 0.47 0.38 0.32 0.47 0.50 0.54 0.79 0.96 0.69 0.56 0.54 0.62 0.72 0.85 0.81 0.70 0.78 0.88 0.97 1.04 0.99 0.99 1.04 1.12 1.15 1.16 1.19 1.27 1.35 1.38 1.37
0.03 0.03 0.03 0.10 0.19 0.21 0.16 0.12 0.13 0.12 0.10 0.10 0.16 0.39 0.39 0.39 0.49 0.70 0.76 0.80 0.67 0.60 0.60 0.55 0.57 0.72 0.82 0.86 0.81 0.79 0.87 1.02 1.05 0.99 1.07 1.18 1.22 1.24 1.25 1.26 1.35 1.44 1.49 1.46
0.04 0.03 0.03 0.03 0.07 0.12 0.15 0.16 0.14 0.10 0.07 0.10 0.13 0.26 0.33 0.43 0.53 0.66 0.69 0.61 0.56 0.60 0.60 0.58 0.64 0.78 0.85 0.98 1.00 0.94 0.93 0.99 1.09 1.18 1.27 1.45 1.60 1.61 1.51 1.51 1.62 1.71 1.75 1.70
0.04 0.03 0.03 0.03 0.06 0.10 0.12 0.14 0.10 0.08 0.07 0.09 0.12 0.19 0.26 0.42 0.50 0.59 0.56 0.54 0.61 0.61 0.56 0.52 0.62 0.80 0.81 0.81 0.86 0.85 0.86 0.91 0.94 1.04 1.16 1.38 1.56 1.63 1.63 1.68 1.80 1.84 1.83 1.93
0.07 0.06 0.05 0.04 0.07 0.10 0.17 0.14 0.10 0.09 0.09 0.10 0.16 0.22 0.26 0.36 0.50 0.62 0.64 0.68 0.70 0.61 0.55 0.56 0.59 0.69 0.85 0.78 0.75 0.83 0.88 0.96 1.05 1.20 1.36 1.48 1.59 1.68 1.70 1.70 1.79 1.86 1.87 1.86
0.17 0.15 0.12 0.10 0.11 0.16 0.18 0.15 0.14 0.14 0.16 0.19 0.23 0.28 0.35 0.38 0.48 0.61 0.66 0.63 0.66 0.68 0.75 0.79 0.85 0.86 0.93 0.92 0.89 0.94 0.97 1.04 1.10 1.19 1.31 1.41 1.58 1.70 1.78 1.90 1.97 2.05 2.12 2.14
0.28 0.29 0.23 0.17 0.15 0.19 0.23 0.22 0.23 0.25 0.31 0.33 0.39 0.46 0.47 0.46 0.48 0.61 0.71 0.72 0.82 0.79 0.82 0.88 0.94 0.97 0.96 1.04 1.12 1.21 1.20 1.26 1.32 1.37 1.53 1.67 1.77 1.92 1.99 2.02 2.13 2.24 2.33 2.30
0.32 0.37 0.34 0.27 0.29 0.32 0.34 0.35 0.30 0.34 0.64 0.58 0.57 0.63 0.64 0.68 0.85 0.93 0.95 0.91 0.91 0.89 0.91 0.97 0.94 0.93 1.03 1.11 1.20 1.31 1.44 1.56 1.66 1.69 1.76 1.87 2.02 2.10 2.09 2.09 2.14 2.15 2.19 2.20
0.38 0.44 0.44 0.40 0.40 0.39 0.37 0.38 0.39 0.71 1.02 0.96 0.94 0.92 0.84 0.94 1.02 0.94 0.88 0.97 0.98 1.04 1.09 1.06 1.03 1.05 1.08 1.09 1.16 1.30 1.47 1.63 1.70 1.73 1.80 1.91 2.02 2.21 2.30 2.31 2.19 2.04 2.01 2.05
0.61 0.64 0.63 0.62 0.74 0.76 0.51 0.54 0.78 1.00 0.97 1.15 1.07 0.97 0.99 0.98 0.92 0.86 0.87 0.99 1.09 1.13 1.19 1.18 1.16 1.12 1.12 1.18 1.25 1.36 1.51 1.60 1.67 1.70 1.79 1.88 1.92 1.94 2.00 2.22 2.28 2.19 2.09 2.02
0.84 0.86 0.89 0.86 0.96 0.86 0.72 0.75 0.87 0.82 0.83 1.00 1.00 0.91 0.91 0.90 0.86 0.85 0.86 0.92 0.95 1.00 1.09 1.12 1.16 1.19 1.23 1.28 1.35 1.50 1.57 1.65 1.67 1.77 1.91 2.02 2.01 1.98 1.97 2.01 2.08 2.04 1.97 1.84
1.02 0.84 0.96 1.13 1.15 1.02 0.87 0.76 0.79 0.80 0.80 0.83 0.91 0.96 0.94 0.90 0.87 0.88 0.88 0.89 0.98 1.05 1.10 1.16 1.16 1.20 1.33 1.44 1.56 1.59 1.57 1.68 1.85 1.92 1.94 1.97 1.96 1.90 1.93 2.04 1.99 1.93 1.92 1.81
1.12 1.07 1.26 1.61 1.66 1.45 1.26 1.08 0.99 0.95 0.94 0.96 1.05 1.08 1.12 1.10 1.07 1.03 0.97 0.93 0.95 1.02 1.05 1.13 1.21 1.26 1.34 1.42 1.54 1.63 1.66 1.72 1.82 1.77 1.67 1.70 1.75 1.73 1.72 1.84 1.90 1.74 1.70 1.76
1.15 1.33 1.62 1.94 1.81 1.75 1.62 1.34 1.17 1.15 1.21 1.16 1.18 1.19 1.15 1.11 1.10 1.08 1.06 0.96 0.89 0.90 0.99 1.07 1.15 1.25 1.32 1.38 1.44 1.47 1.53 1.63 1.73 1.77 1.69 1.63 1.60 1.63 1.67 1.67 1.69 1.68 1.48 1.47

GEFSCGP_prec_meanprecacc_240.txt.gz
Total_Precipitation_Accumulation
0.01 0.01 0.01 0.02 0.03 0.03 0.07 0.12 0.24 0.29 0.22 0.33 0.42 0.63 0.73 0.85 1.04 1.04 0.89 0.95 1.24 1.45 1.73 2.19 2.74 3.59 4.66 5.57 5.84 5.34 4.85 4.50 4.07 3.67 3.10 2.74 2.71 2.63 2.35 2.07 1.80 1.72 1.68 1.77
0.01 0.02 0.02 0.02 0.03 0.05 0.08 0.12 0.22 0.28 0.20 0.25 0.42 0.74 1.05 1.03 0.96 0.91 0.97 0.97 1.07 1.44 1.89 2.61 3.64 4.22 4.46 4.58 4.35 4.01 3.76 3.55 3.09 2.74 2.51 2.27 2.27 2.07 1.89 1.80 1.79 1.52 1.46 1.54
0.02 0.04 0.02 0.02 0.04 0.10 0.12 0.15 0.22 0.27 0.18 0.22 0.45 0.94 1.22 1.21 0.98 0.84 0.89 0.88 1.06 1.48 2.07 2.87 3.45 3.57 3.28 2.97 2.88 2.83 2.90 2.65 2.52 2.48 2.38 2.28 2.29 2.06 1.80 1.70 1.66 1.43 1.27 1.30
0.03 0.02 0.02 0.03 0.05 0.09 0.10 0.09 0.08 0.11 0.18 0.38 0.58 1.20 1.42 1.18 1.11 0.92 0.92 0.93 0.97 1.24 1.60 2.02 2.25 2.15 2.26 2.40 2.42 2.54 2.63 2.38 2.35 2.30 2.03 1.93 1.83 1.74 1.61 1.55 1.53 1.62 1.37 1.22
0.04 0.03 0.02 0.03 0.04 0.05 0.05 0.05 0.06 0.13 0.26 0.46 0.66 0.94 1.18 0.99 1.14 0.93 0.80 0.80 0.76 0.91 0.98 1.09 1.22 1.38 1.60 1.71 1.87 2.17 2.41 2.35 2.19 2.03 1.97 2.03 1.89 1.84 1.81 1.82 1.79 1.76 1.62 1.38
0.05 0.05 0.04 0.04 0.04 0.04 0.05 0.07 0.15 0.27 0.43 0.93 0.88 0.88 1.12 1.05 1.14 0.90 0.72 0.63 0.67 0.77 0.84 0.88 0.94 1.09 1.26 1.38 1.54 1.79 2.10 2.24 2.17 2.01 1.93 1.97 2.02 1.97 1.87 1.83 1.79 1.60 1.50 1.44
0.10 0.08 0.06 0.04 0.04 0.07 0.07 0.09 0.28 0.63 1.03 1.19 0.77 0.87 1.10 0.87 0.80 0.67 0.45 0.44 0.56 0.75 0.88 0.95 0.90 0.88 0.94 1.08 1.23 1.33 1.52 1.79 1.91 1.88 1.86 1.88 2.01 1.92 1.72 1.59 1.49 1.43 1.25 1.17
0.14 0.12 0.06 0.04 0.05 0.07 0.06 0.05 0.14 0.28 0.39 0.57 0.75 1.15 1.23 0.88 0.60 0.37 0.29 0.39 0.57 0.72 0.77 0.81 0.79 0.75 0.73 0.81 0.99 1.12 1.32 1.50 1.69 1.72 1.71 1.72 1.78 1.71 1.58 1.56 1.34 1.25 1.20 1.14
0.06 0.05 0.04 0.04 0.06 0.07 0.07 0.05 0.06 0.10 0.16 0.37 0.76 1.07 1.02 0.79 0.59 0.42 0.36 0.39 0.51 0.56 0.59 0.70 0.74 0.82 0.79 0.76 0.87 1.01 1.26 1.45 1.63 1.74 1.76 1.68 1.67 1.66 1.64 1.60 1.40 1.23 1.32 1.24
0.03 0.03 0.05 0.05 0.06 0.06 0.07 0.07 0.06 0.07 0.16 0.30 0.60 1.01 1.20 0.97 0.73 0.57 0.49 0.49 0.57 0.59 0.63 0.82 0.95 0.91 0.76 0.64 0.71 0.88 1.08 1.35 1.52 1.67 1.67 1.55 1.71 1.67 1.66 1.59 1.47 1.34 1.33 1.31
0.02 0.03 0.06 0.06 0.07 0.08 0.08 0.08 0.07 0.07 0.10 0.18 0.43 0.65 0.61 0.58 0.52 0.52 0.60 0.58 0.50 0.60 0.72 0.87 1.03 0.99 0.77 0.65 0.63 0.75 0.98 1.22 1.34 1.43 1.52 1.49 1.53 1.50 1.51 1.53 1.51 1.47 1.44 1.37
0.02 0.02 0.04 0.07 0.09 0.09 0.10 0.11 0.12 0.12 0.11 0.12 0.23 0.43 0.34 0.38 0.46 0.52 0.62 0.70 0.72 0.75 0.77 0.70 0.80 0.96 0.90 0.78 0.68 0.79 1.00 1.15 1.19 1.27 1.30 1.33 1.41 1.43 1.39 1.35 1.40 1.44 1.38 1.31
0.03 0.02 0.04 0.13 0.19 0.15 0.11 0.10 0.11 0.13 0.14 0.12 0.25 0.48 0.38 0.33 0.47 0.51 0.56 0.80 0.97 0.70 0.58 0.57 0.66 0.79 0.94 0.90 0.80 0.90 1.01 1.09 1.17 1.13 1.13 1.15 1.20 1.21 1.21 1.23 1.30 1.39 1.41 1.39
0.03 0.03 0.03 0.10 0.19 0.21 0.16 0.12 0.13 0.12 0.10 0.10 0.17 0.40 0.39 0.39 0.50 0.71 0.77 0.81 0.68 0.61 0.61 0.58 0.63 0.79 0.90 0.95 0.92 0.90 0.97 1.12 1.15 1.08 1.15 1.26 1.29 1.31 1.31 1.31 1.39 1.48 1.53 1.48
0.04 0.03 0.03 0.03 0.07 0.12 0.15 0.16 0.14 0.10 0.07 0.11 0.14 0.27 0.33 0.43 0.54 0.67 0.70 0.63 0.57 0.61 0.62 0.61 0.68 0.84 0.92 1.05 1.09 1.04 1.01 1.07 1.18 1.25 1.34 1.51 1.65 1.65 1.55 1.56 1.66 1.74 1.78 1.72
0.04 0.03 0.03 0.03 0.06 0.11 0.12 0.14 0.10 0.08 0.07 0.09 0.13 0.20 0.27 0.43 0.51 0.60 0.57 0.55 0.63 0.63 0.58 0.55 0.66 0.85 0.87 0.87 0.93 0.92 0.93 0.97 1.00 1.09 1.22 1.42 1.62 1.71 1.72 1.78 1.88 1.91 1.88 1.97
0.07 0.06 0.05 0.04 0.07 0.10 0.17 0.14 0.10 0.10 0.09 0.10 0.16 0.23 0.26 0.36 0.51 0.63 0.66 0.71 0.73 0.64 0.57 0.59 0.63 0.74 0.90 0.82 0.79 0.87 0.93 1.02 1.10 1.26 1.43 1.56 1.74 1.87 1.89 1.86 1.89 1.93 1.93 1.91
0.17 0.15 0.12 0.10 0.11 0.16 0.19 0.15 0.15 0.15 0.16 0.19 0.23 0.28 0.35 0.40 0.50 0.63 0.68 0.66 0.70 0.72 0.78 0.83 0.89 0.90 0.98 0.96 0.93 0.99 1.03 1.15 1.21 1.27 1.40 1.51 1.70 1.83 1.90 2.00 2.06 2.13 2.16 2.16
0.29 0.30 0.23 0.17 0.15 0.19 0.23 0.23 0.24 0.26 0.32 0.34 0.40 0.46 0.48 0.47 0.49 0.62 0.72 0.74 0.84 0.83 0.86 0.92 0.98 1.02 1.02 1.10 1.18 1.26 1.24 1.35 1.47 1.49 1.64 1.77 1.84 1.97 2.05 2.09 2.20 2.30 2.37 2.33
0.33 0.37 0.35 0.27 0.29 0.32 0.34 0.36 0.30 0.35 0.65 0.59 0.58 0.65 0.65 0.69 0.87 0.95 0.96 0.92 0.93 0.92 0.96 1.01 0.98 0.98 1.09 1.16 1.26 1.37 1.51 1.64 1.80 1.87 1.91 1.97 2.09 2.14 2.13 2.12 2.17 2.19 2.22 2.23
0.38 0.45 0.44 0.40 0.40 0.39 0.38 0.39 0.40 0.72 1.03 0.98 0.95 0.94 0.87 0.96 1.03 0.95 0.89 0.99 1.00 1.07 1.14 1.11 1.09 1.12 1.15 1.15 1.23 1.39 1.59 1.74 1.81 1.87 1.93 2.02 2.11 2.27 2.34 2.35 2.22 2.08 2.05 2.10
0.62 0.65 0.64 0.62 0.74 0.76 0.52 0.55 0.79 1.01 0.98 1.16 1.08 0.99 1.01 1.00 0.94 0.87 0.89 1.01 1.11 1.17 1.23 1.23 1.22 1.19 1.20 1.26 1.32 1.43 1.59 1.70 1.78 1.80 1.90 1.99 2.03 2.05 2.08 2.29 2.34 2.25 2.15 2.09
0.85 0.87 0.90 0.87 0.96 0.86 0.72 0.75 0.87 0.83 0.85 1.02 1.03 0.94 0.93 0.92 0.89 0.86 0.88 0.95 1.00 1.05 1.12 1.16 1.20 1.24 1.28 1.33 1.41 1.54 1.62 1.71 1.74 1.85 2.00 2.11 2.12 2.15 2.13 2.13 2.19 2.14 2.06 1.92
1.03 0.85 0.97 1.14 1.16 1.03 0.88 0.77 0.79 0.81 0.81 0.85 0.95 0.99 0.97 0.93 0.90 0.91 0.90 0.92 1.04 1.10 1.14 1.19 1.19 1.23 1.37 1.47 1.59 1.62 1.61 1.72 1.89 1.96 2.00 2.03 2.04 2.02 2.09 2.19 2.12 2.04 2.03 1.96
1.13 1.09 1.27 1.63 1.69 1.48 1.28 1.10 1.00 0.96 0.96 0.98 1.09 1.13 1.16 1.14 1.10 1.06 0.99 0.96 1.00 1.06 1.08 1.16 1.25 1.29 1.37 1.45 1.57 1.66 1.68 1.75 1.84 1.79 1.71 1.74 1.81 1.82 1.82 1.96 2.02 1.84 1.78 1.84
1.17 1.35 1.65 1.97 1.84 1.79 1.65 1.36 1.19 1.17 1.23 1.19 1.21 1.26 1.20 1.13 1.12 1.10 1.07 0.97 0.91 0.92 1.01 1.09 1.18 1.29 1.35 1.40 1.46 1.50 1.55 1.65 1.76 1.80 1.73 1.66 1.64 1.68 1.73 1.74 1.77 1.75 1.53 1.52

GEFSCGP_prec_meanprecacc_246.txt.gz
Total_Precipitation_Accumulation
0.01 0.01 0.01 0.02 0.03 0.03 0.07 0.12 0.25 0.29 0.22 0.33 0.42 0.63 0.73 0.85 1.04 1.04 0.89 0.95 1.25 1.45 1.73 2.19 2.74 3.59 4.67 5.57 5.84 5.35 4.86 4.51 4.10 3.70 3.13 2.77 2.75 2.67 2.38 2.09 1.82 1.75 1.72 1.80
0.01 0.02 0.02 0.02 0.03 0.05 0.08 0.12 0.22 0.28 0.20 0.25 0.42 0.74 1.05 1.03 0.96 0.91 0.97 0.97 1.07 1.44 1.89 2.61 3.64 4.22 4.46 4.59 4.35 4.03 3.77 3.55 3.10 2.76 2.53 2.29 2.30 2.10 1.92 1.82 1.81 1.56 1.50 1.58
0.03 0.04 0.02 0.02 0.04 0.10 0.12 0.15 0.22 0.27 0.18 0.23 0.46 0.94 1.22 1.21 0.98 0.84 0.89 0.88 1.06 1.48 2.07 2.87 3.45 3.57 3.29 2.97 2.89 2.84 2.91 2.66 2.53 2.50 2.40 2.30 2.31 2.08 1.82 1.72 1.69 1.46 1.30 1.32
0.03 0.02 0.02 0.03 0.05 0.09 0.10 0.09 0.09 0.11 0.18 0.38 0.59 1.20 1.42 1.18 1.11 0.92 0.92 0.93 0.97 1.24 1.60 2.02 2.25 2.15 2.26 2.40 2.43 2.55 2.64 2.38 2.36 2.32 2.04 1.95 1.85 1.76 1.64 1.58 1.56 1.64 1.39 1.25
0.04 0.03 0.02 0.03 0.04 0.05 0.05 0.05 0.07 0.14 0.26 0.46 0.66 0.94 1.18 0.99 1.14 0.93 0.80 0.80 0.76 0.91 0.98 1.09 1.22 1.38 1.60 1.71 1.88 2.17 2.42 2.36 2.20 2.04 1.98 2.05 1.91 1.86 1.84 1.85 1.81 1.79 1.63 1.40
0.05 0.05 0.04 0.04 0.04 0.04 0.05 0.08 0.16 0.27 0.44 0.93 0.89 0.88 1.12 1.05 1.14 0.90 0.72 0.63 0.67 0.77 0.84 0.88 0.94 1.09 1.26 1.38 1.55 1.79 2.11 2.24 2.17 2.02 1.94 1.98 2.03 1.99 1.89 1.86 1.81 1.62 1.52 1.48
0.10 0.08 0.06 0.04 0.04 0.07 0.07 0.10 0.29 0.64 1.03 1.19 0.77 0.87 1.10 0.87 0.80 0.67 0.45 0.44 0.56 0.75 0.88 0.95 0.91 0.88 0.94 1.09 1.24 1.34 1.53 1.81 1.92 1.89 1.88 1.89 2.02 1.94 1.74 1.62 1.53 1.47 1.28 1.21
0.14 0.12 0.06 0.04 0.05 0.07 0.06 0.06 0.15 0.29 0.39 0.57 0.75 1.15 1.23 0.88 0.60 0.37 0.29 0.39 0.57 0.72 0.78 0.81 0.79 0.76 0.74 0.82 1.01 1.14 1.35 1.54 1.73 1.74 1.72 1.74 1.82 1.74 1.61 1.60 1.39 1.30 1.24 1.17
0.06 0.05 0.04 0.04 0.06 0.07 0.07 0.06 0.06 0.10 0.16 0.37 0.76 1.07 1.02 0.79 0.59 0.42 0.36 0.39 0.51 0.56 0.59 0.70 0.75 0.83 0.81 0.79 0.92 1.05 1.30 1.50 1.68 1.77 1.78 1.71 1.72 1.74 1.70 1.63 1.45 1.27 1.36 1.28
0.03 0.03 0.05 0.05 0.06 0.06 0.07 0.07 0.06 0.07 0.16 0.30 0.60 1.01 1.20 0.97 0.73 0.57 0.49 0.49 0.57 0.59 0.63 0.83 0.96 0.93 0.78 0.66 0.74 0.91 1.11 1.39 1.57 1.72 1.70 1.59 1.75 1.71 1.71 1.64 1.52 1.38 1.37 1.34
0.02 0.03 0.06 0.06 0.07 0.08 0.08 0.08 0.07 0.07 0.10 0.18 0.43 0.65 0.61 0.58 0.52 0.52 0.60 0.58 0.50 0.60 0.72 0.87 1.04 1.00 0.78 0.67 0.64 0.76 1.01 1.26 1.39 1.48 1.57 1.55 1.59 1.55 1.56 1.58 1.55 1.51 1.48 1.41
0.02 0.02 0.04 0.07 0.09 0.09 0.10 0.11 0.12 0.12 0.11 0.12 0.23 0.43 0.34 0.38 0.46 0.52 0.62 0.70 0.72 0.75 0.77 0.71 0.80 0.96 0.91 0.78 0.68 0.81 1.07 1.27 1.34 1.39 1.38 1.39 1.47 1.47 1.42 1.39 1.44 1.48 1.41 1.34
0.03 0.02 0.04 0.13 0.19 0.15 0.11 0.10 0.11 0.13 0.14 0.12 0.25 0.48 0.38 0.33 0.47 0.51 0.56 0.80 0.97 0.70 0.58 0.57 0.66 0.79 0.94 0.90 0.82 0.95 1.13 1.23 1.27 1.20 1.19 1.22 1.26 1.25 1.24 1.26 1.33 1.42 1.44 1.44
0.03 0.03 0.03 0.10 0.20 0.21 0.16 0.12 0.13 0.12 0.10 0.10 0.17 0.40 0.39 0.39 0.50 0.71 0.77 0.81 0.69 0.61 0.61 0.58 0.63 0.80 0.91 0.96 0.93 0.93 1.02 1.17 1.18 1.11 1.18 1.29 1.33 1.35 1.35 1.35 1.43 1.52 1.58 1.53
0.04 0.03 0.03 0.03 0.07 0.12 0.15 0.16 0.14 0.10 0.07 0.11 0.14 0.27 0.33 0.44 0.54 0.67 0.70 0.63 0.57 0.61 0.62 0.61 0.69 0.85 0.93 1.07 1.10 1.07 1.06 1.12 1.20 1.27 1.37 1.55 1.69 1.69 1.58 1.59 1.69 1.76 1.80 1.75
0.04 0.03 0.03 0.03 0.06 0.11 0.12 0.14 0.10 0.08 0.07 0.09 0.13 0.20 0.27 0.43 0.51 0.60 0.58 0.55 0.63 0.64 0.58 0.55 0.66 0.85 0.88 0.89 0.95 0.95 0.97 1.01 1.03 1.12 1.25 1.45 1.64 1.73 1.75 1.81 1.91 1.93 1.90 2.00
0.07 0.06 0.05 0.04 0.07 0.10 0.17 0.14 0.10 0.10 0.09 0.11 0.16 0.23 0.26 0.37 0.51 0.63 0.67 0.71 0.73 0.64 0.58 0.59 0.64 0.74 0.90 0.83 0.81 0.90 0.95 1.06 1.16 1.32 1.50 1.60 1.77 1.89 1.92 1.88 1.91 1.94 1.95 1.93
0.17 0.15 0.12 0.10 0.11 0.16 0.19 0.15 0.15 0.15 0.17 0.20 0.23 0.28 0.36 0.40 0.51 0.63 0.68 0.66 0.70 0.72 0.78 0.83 0.90 0.90 0.98 0.96 0.94 1.00 1.04 1.16 1.22 1.29 1.45 1.58 1.75 1.88 1.95 2.04 2.09 2.15 2.19 2.19
0.29 0.30 0.23 0.17 0.16 0.19 0.23 0.23 0.24 0.26 0.33 0.35 0.41 0.47 0.48 0.48 0.50 0.63 0.73 0.75 0.85 0.83 0.86 0.93 0.98 1.02 1.02 1.10 1.18 1.27 1.25 1.37 1.49 1.51 1.67 1.81 1.89 2.03 2.09 2.13 2.25 2.34 2.39 2.35
0.33 0.37 0.35 0.28 0.30 0.33 0.35 0.36 0.30 0.35 0.66 0.60 0.59 0.65 0.65 0.70 0.88 0.96 0.97 0.93 0.94 0.93 0.96 1.02 0.98 0.99 1.10 1.17 1.27 1.38 1.53 1.66 1.82 1.89 1.93 2.00 2.12 2.19 2.17 2.17 2.23 2.24 2.25 2.26
0.38 0.45 0.44 0.41 0.41 0.40 0.38 0.39 0.40 0.73 1.04 0.99 0.96 0.95 0.88 0.97 1.04 0.96 0.89 0.99 1.00 1.07 1.14 1.11 1.09 1.13 1.18 1.18 1.26 1.42 1.62 1.77 1.84 1.89 1.96 2.05 2.14 2.32 2.40 2.41 2.27 2.12 2.09 2.13
0.62 0.65 0.65 0.63 0.75 0.77 0.52 0.55 0.80 1.01 0.98 1.16 1.09 1.00 1.03 1.01 0.95 0.88 0.89 1.02 1.12 1.17 1.24 1.24 1.23 1.20 1.23 1.31 1.37 1.48 1.65 1.76 1.84 1.84 1.94 2.03 2.07 2.09 2.13 2.34 2.39 2.29 2.19 2.12
0.85 0.88 0.91 0.88 0.97 0.86 0.73 0.75 0.88 0.83 0.85 1.02 1.04 0.95 0.95 0.94 0.90 0.87 0.89 0.96 1.01 1.06 1.13 1.17 1.21 1.25 1.29 1.36 1.47 1.60 1.68 1.76 1.80 1.90 2.04 2.16 2.16 2.19 2.17 2.18 2.23 2.19 2.11 1.96
1.03 0.85 0.98 1.15 1.16 1.03 0.88 0.78 0.80 0.81 0.82 0.86 0.95 1.00 1.00 0.97 0.92 0.92 0.91 0.93 1.06 1.12 1.15 1.20 1.21 1.24 1.39 1.52 1.66 1.69 1.68 1.76 1.94 2.02 2.06 2.08 2.08 2.06 2.12 2.23 2.15 2.07 2.07 2.00
1.14 1.09 1.28 1.64 1.70 1.49 1.31 1.13 1.03 0.98 0.97 1.00 1.10 1.14 1.19 1.19 1.13 1.09 1.02 0.99 1.03 1.09 1.11 1.18 1.27 1.32 1.42 1.51 1.63 1.72 1.75 1.80 1.89 1.85 1.77 1.81 1.86 1.86 1.86 2.01 2.07 1.89 1.82 1.89
1.17 1.36 1.67 2.00 1.86 1.83 1.68 1.38 1.21 1.20 1.26 1.22 1.24 1.29 1.23 1.17 1.16 1.13 1.11 1.00 0.94 0.95 1.05 1.13 1.22 1.34 1.41 1.46 1.52 1.55 1.61 1.71 1.81 1.86 1.79 1.72 1.71 1.73 1.77 1.78 1.82 1.80 1.58 1.57

GEFSCGP_prec_meanprecacc_252.txt.gz
Total_Precipitation_Accumulation
0.01 0.01 0.01 0.02 0.03 0.04 0.08 0.13 0.25 0.30 0.23 0.33 0.43 0.64 0.74 0.85 1.04 1.04 0.90 0.95 1.25 1.45 1.73 2.19 2.74 3.59 4.67 5.57 5.85 5.36 4.88 4.55 4.14 3.75 3.17 2.82 2.80 2.72 2.42 2.13 1.86 1.80 1.75 1.84
0.01 0.02 0.02 0.02 0.03 0.05 0.09 0.14 0.24 0.29 0.21 0.26 0.42 0.74 1.05 1.03 0.96 0.91 0.97 0.98 1.07 1.44 1.89 2.61 3.64 4.22 4.46 4.59 4.36 4.03 3.78 3.59 3.13 2.79 2.58 2.35 2.36 2.15 1.97 1.88 1.88 1.60 1.53 1.62
0.03 0.04 0.02 0.02 0.04 0.10 0.12 0.16 0.23 0.29 0.20 0.24 0.46 0.94 1.22 1.21 0.98 0.84 0.89 0.88 1.06 1.48 2.07 2.88 3.45 3.57 3.29 2.97 2.89 2.84 2.91 2.68 2.57 2.55 2.44 2.34 2.38 2.13 1.89 1.80 1.78 1.52 1.35 1.37
0.03 0.03 0.02 0.03 0.05 0.09 0.10 0.09 0.09 0.12 0.21 0.40 0.59 1.20 1.42 1.18 1.11 0.92 0.92 0.93 0.97 1.25 1.61 2.02 2.26 2.15 2.26 2.41 2.43 2.55 2.64 2.39 2.38 2.35 2.08 1.99 1.91 1.82 1.71 1.66 1.63 1.71 1.46 1.31
0.04 0.03 0.02 0.03 0.04 0.05 0.05 0.05 0.07 0.15 0.28 0.48 0.67 0.96 1.18 0.99 1.14 0.93 0.80 0.81 0.77 0.91 0.99 1.10 1.22 1.38 1.60 1.71 1.88 2.17 2.42 2.37 2.21 2.06 2.01 2.09 1.95 1.91 1.89 1.90 1.88 1.85 1.69 1.46
0.05 0.05 0.04 0.04 0.04 0.04 0.05 0.08 0.17 0.28 0.44 0.94 0.90 0.90 1.12 1.06 1.15 0.91 0.72 0.63 0.67 0.77 0.85 0.88 0.94 1.09 1.26 1.38 1.55 1.80 2.11 2.25 2.18 2.03 1.95 2.00 2.07 2.05 1.97 1.95 1.90 1.70 1.59 1.55
0.10 0.08 0.06 0.04 0.04 0.07 0.07 0.10 0.31 0.65 1.04 1.19 0.77 0.87 1.10 0.87 0.81 0.68 0.46 0.44 0.56 0.75 0.88 0.95 0.91 0.88 0.94 1.09 1.24 1.34 1.53 1.82 1.93 1.90 1.89 1.91 2.06 1.99 1.81 1.69 1.62 1.56 1.37 1.29
0.14 0.12 0.06 0.04 0.05 0.07 0.06 0.06 0.17 0.32 0.41 0.58 0.76 1.15 1.23 0.89 0.61 0.38 0.29 0.39 0.57 0.72 0.78 0.81 0.79 0.76 0.74 0.83 1.01 1.14 1.36 1.55 1.73 1.75 1.74 1.78 1.86 1.80 1.67 1.69 1.51 1.45 1.37 1.29
0.06 0.05 0.04 0.04 0.06 0.07 0.07 0.06 0.06 0.12 0.17 0.39 0.77 1.08 1.03 0.80 0.61 0.43 0.36 0.40 0.51 0.56 0.59 0.70 0.75 0.83 0.82 0.80 0.92 1.06 1.30 1.51 1.70 1.80 1.82 1.76 1.77 1.81 1.80 1.74 1.55 1.38 1.49 1.38
0.03 0.03 0.05 0.05 0.06 0.07 0.07 0.07 0.06 0.07 0.17 0.33 0.61 1.02 1.21 0.99 0.75 0.59 0.51 0.50 0.57 0.59 0.63 0.83 0.97 0.93 0.78 0.67 0.74 0.92 1.13 1.43 1.62 1.80 1.82 1.71 1.86 1.82 1.81 1.74 1.61 1.46 1.46 1.44
0.02 0.03 0.06 0.06 0.07 0.09 0.08 0.08 0.08 0.07 0.10 0.20 0.46 0.68 0.64 0.60 0.56 0.59 0.64 0.59 0.50 0.60 0.72 0.87 1.04 1.00 0.78 0.67 0.65 0.77 1.05 1.32 1.50 1.64 1.73 1.67 1.66 1.61 1.62 1.65 1.63 1.59 1.56 1.49
0.02 0.03 0.05 0.07 0.09 0.09 0.10 0.11 0.12 0.13 0.11 0.12 0.24 0.46 0.36 0.42 0.50 0.56 0.63 0.71 0.72 0.75 0.78 0.71 0.80 0.96 0.91 0.79 0.70 0.84 1.11 1.32 1.41 1.46 1.44 1.44 1.50 1.50 1.45 1.42 1.48 1.53 1.45 1.38
0.03 0.02 0.05 0.13 0.19 0.16 0.11 0.11 0.12 0.13 0.14 0.12 0.27 0.51 0.39 0.34 0.51 0.54 0.56 0.80 0.97 0.70 0.58 0.57 0.66 0.79 0.95 0.91 0.84 0.97 1.14 1.25 1.29 1.21 1.20 1.23 1.27 1.28 1.28 1.29 1.36 1.44 1.47 1.46
0.03 0.03 0.04 0.11 0.20 0.21 0.17 0.13 0.13 0.12 0.10 0.10 0.18 0.42 0.40 0.40 0.52 0.72 0.77 0.81 0.69 0.62 0.62 0.58 0.64 0.80 0.91 0.96 0.94 0.94 1.03 1.17 1.19 1.12 1.19 1.31 1.36 1.38 1.40 1.39 1.46 1.55 1.61 1.56
0.04 0.03 0.03 0.03 0.07 0.12 0.15 0.16 0.14 0.10 0.08 0.11 0.14 0.27 0.35 0.44 0.55 0.68 0.70 0.63 0.57 0.61 0.63 0.62 0.69 0.86 0.93 1.08 1.11 1.07 1.07 1.12 1.21 1.28 1.38 1.56 1.71 1.71 1.61 1.61 1.71 1.79 1.83 1.77
0.04 0.03 0.03 0.03 0.06 0.11 0.13 0.14 0.11 0.08 0.07 0.09 0.13 0.21 0.28 0.43 0.51 0.60 0.58 0.56 0.63 0.64 0.59 0.55 0.66 0.86 0.88 0.89 0.96 0.95 0.98 1.02 1.04 1.12 1.26 1.46 1.66 1.76 1.77 1.83 1.94 1.95 1.92 2.02
0.07 0.07 0.05 0.05 0.07 0.10 0.18 0.14 0.10 0.10 0.09 0.11 0.17 0.23 0.27 0.37 0.52 0.64 0.67 0.71 0.73 0.65 0.58 0.59 0.64 0.75 0.91 0.84 0.81 0.90 0.96 1.06 1.16 1.33 1.51 1.63 1.79 1.92 1.94 1.90 1.94 1.98 1.98 1.97
0.17 0.16 0.13 0.11 0.12 0.18 0.19 0.15 0.15 0.15 0.17 0.20 0.24 0.29 0.36 0.40 0.51 0.63 0.68 0.66 0.71 0.73 0.78 0.84 0.90 0.91 0.99 0.97 0.94 1.00 1.05 1.17 1.23 1.30 1.46 1.59 1.78 1.90 1.97 2.06 2.11 2.18 2.23 2.24
0.29 0.31 0.25 0.20 0.19 0.22 0.24 0.24 0.24 0.26 0.33 0.35 0.42 0.47 0.48 0.48 0.50 0.63 0.75 0.77 0.87 0.85 0.87 0.93 0.99 1.03 1.03 1.11 1.19 1.27 1.26 1.37 1.50 1.52 1.68 1.82 1.91 2.05 2.11 2.16 2.28 2.38 2.45 2.40
0.33 0.38 0.37 0.30 0.35 0.38 0.38 0.38 0.31 0.36 0.67 0.61 0.61 0.66 0.66 0.71 0.89 0.97 0.99 0.95 0.96 0.95 0.98 1.02 0.98 0.99 1.10 1.17 1.27 1.39 1.54 1.67 1.83 1.91 1.96 2.03 2.15 2.22 2.20 2.21 2.28 2.31 2.34 2.34
0.39 0.46 0.46 0.42 0.42 0.43 0.42 0.41 0.41 0.74 1.06 1.00 0.99 0.97 0.89 0.99 1.06 0.97 0.90 1.00 1.02 1.09 1.16 1.12 1.10 1.14 1.18 1.19 1.27 1.43 1.63 1.79 1.86 1.92 1.99 2.09 2.19 2.38 2.47 2.48 2.35 2.20 2.19 2.24
0.64 0.67 0.66 0.64 0.76 0.79 0.53 0.57 0.82 1.04 1.00 1.18 1.11 1.01 1.04 1.03 0.96 0.89 0.90 1.03 1.14 1.20 1.25 1.25 1.24 1.22 1.24 1.33 1.39 1.50 1.67 1.79 1.87 1.88 1.99 2.10 2.15 2.16 2.20 2.42 2.47 2.38 2.28 2.20
0.88 0.90 0.92 0.90 0.99 0.89 0.74 0.78 0.91 0.85 0.87 1.04 1.06 0.97 0.96 0.95 0.91 0.89 0.90 0.97 1.03 1.08 1.16 1.18 1.23 1.27 1.32 1.38 1.49 1.63 1.70 1.78 1.82 1.93 2.09 2.23 2.25 2.29 2.26 2.26 2.32 2.28 2.20 2.06
1.06 0.88 1.00 1.18 1.17 1.04 0.90 0.79 0.82 0.83 0.83 0.87 0.97 1.02 1.01 0.98 0.93 0.94 0.93 0.95 1.09 1.16 1.19 1.24 1.24 1.28 1.42 1.54 1.68 1.71 1.70 1.78 1.96 2.05 2.11 2.15 2.17 2.15 2.21 2.30 2.22 2.15 2.14 2.07
1.19 1.14 1.34 1.69 1.72 1.51 1.34 1.15 1.06 1.00 0.98 1.00 1.10 1.15 1.21 1.22 1.16 1.12 1.05 1.02 1.07 1.14 1.15 1.24 1.32 1.36 1.45 1.54 1.66 1.74 1.77 1.83 1.92 1.88 1.83 1.89 1.97 1.97 1.95 2.09 2.14 1.95 1.87 1.94
1.23 1.42 1.75 2.06 1.89 1.86 1.72 1.41 1.24 1.23 1.30 1.24 1.25 1.31 1.26 1.21 1.20 1.19 1.17 1.06 0.98 0.99 1.10 1.19 1.27 1.38 1.44 1.48 1.54 1.57 1.63 1.74 1.86 1.91 1.87 1.84 1.86 1.89 1.89 1.88 1.91 1.87 1.66 1.64

GEFSCGP_prec_meanprecacc_258.txt.gz
Total_Precipitation_Accumulation
0.01 0.01 0.02 0.02 0.03 0.04 0.08 0.14 0.27 0.31 0.25 0.35 0.45 0.67 0.77 0.90 1.07 1.06 0.91 0.96 1.26 1.45 1.74 2.20 2.75 3.60 4.67 5.58 5.85 5.37 4.89 4.57 4.15 3.77 3.20 2.84 2.88 2.79 2.48 2.19 1.91 1.84 1.78 1.86
0.01 0.03 0.02 0.02 0.04 0.06 0.09 0.15 0.25 0.30 0.23 0.29 0.44 0.76 1.08 1.08 1.00 0.94 1.00 1.02 1.10 1.46 1.90 2.62 3.64 4.22 4.46 4.59 4.36 4.04 3.79 3.60 3.14 2.80 2.60 2.39 2.42 2.19 2.03 1.95 1.96 1.66 1.57 1.65
0.03 0.04 0.03 0.03 0.05 0.11 0.12 0.17 0.24 0.30 0.22 0.26 0.49 0.97 1.25 1.24 1.02 0.88 0.96 0.97 1.10 1.50 2.09 2.89 3.46 3.59 3.29 2.98 2.90 2.85 2.92 2.69 2.57 2.56 2.46 2.38 2.42 2.16 1.93 1.85 1.86 1.58 1.39 1.41
0.04 0.03 0.02 0.03 0.06 0.10 0.11 0.10 0.10 0.13 0.22 0.41 0.62 1.24 1.45 1.22 1.15 0.96 0.99 1.00 1.01 1.27 1.62 2.05 2.29 2.17 2.27 2.41 2.44 2.55 2.65 2.40 2.39 2.36 2.09 2.01 1.93 1.84 1.74 1.70 1.68 1.76 1.49 1.35
0.05 0.03 0.03 0.03 0.05 0.06 0.06 0.05 0.07 0.15 0.29 0.49 0.70 0.99 1.20 1.01 1.17 0.97 0.86 0.86 0.80 0.93 1.00 1.12 1.25 1.40 1.61 1.71 1.88 2.17 2.43 2.37 2.21 2.06 2.02 2.09 1.96 1.93 1.92 1.94 1.92 1.90 1.76 1.52
0.05 0.05 0.04 0.04 0.04 0.05 0.05 0.08 0.17 0.28 0.46 0.97 0.95 0.93 1.13 1.08 1.18 0.95 0.79 0.68 0.71 0.79 0.86 0.90 0.96 1.11 1.27 1.38 1.55 1.80 2.12 2.26 2.19 2.04 1.96 2.02 2.09 2.06 1.99 1.98 1.94 1.75 1.66 1.61
0.10 0.08 0.06 0.04 0.04 0.07 0.07 0.11 0.31 0.67 1.06 1.23 0.81 0.88 1.11 0.90 0.84 0.71 0.50 0.49 0.61 0.78 0.90 0.97 0.92 0.89 0.95 1.09 1.24 1.34 1.54 1.83 1.94 1.91 1.90 1.94 2.09 2.01 1.83 1.72 1.66 1.61 1.43 1.35
0.14 0.12 0.06 0.04 0.05 0.07 0.06 0.07 0.18 0.34 0.44 0.60 0.78 1.15 1.25 0.91 0.63 0.40 0.32 0.43 0.65 0.79 0.80 0.82 0.81 0.79 0.76 0.84 1.03 1.16 1.38 1.57 1.76 1.78 1.77 1.81 1.89 1.83 1.70 1.71 1.54 1.49 1.42 1.35
0.06 0.05 0.04 0.04 0.06 0.07 0.07 0.06 0.07 0.13 0.18 0.40 0.78 1.09 1.04 0.82 0.63 0.45 0.38 0.43 0.64 0.66 0.61 0.73 0.78 0.86 0.85 0.83 0.95 1.10 1.34 1.56 1.74 1.84 1.87 1.82 1.82 1.84 1.82 1.77 1.57 1.41 1.53 1.43
0.03 0.03 0.05 0.05 0.06 0.07 0.07 0.08 0.07 0.09 0.19 0.34 0.62 1.02 1.22 1.01 0.77 0.61 0.53 0.52 0.62 0.66 0.66 0.85 0.99 0.96 0.81 0.69 0.76 0.95 1.18 1.49 1.69 1.86 1.87 1.75 1.89 1.85 1.85 1.79 1.66 1.50 1.49 1.47
0.02 0.03 0.06 0.06 0.07 0.09 0.08 0.08 0.09 0.09 0.12 0.21 0.49 0.70 0.65 0.62 0.58 0.61 0.67 0.61 0.52 0.61 0.74 0.89 1.06 1.02 0.80 0.68 0.67 0.80 1.08 1.35 1.54 1.67 1.75 1.69 1.67 1.62 1.63 1.68 1.67 1.63 1.60 1.53
0.02 0.03 0.05 0.08 0.09 0.09 0.11 0.12 0.12 0.13 0.12 0.12 0.26 0.49 0.38 0.43 0.53 0.59 0.67 0.74 0.75 0.77 0.79 0.74 0.85 0.99 0.93 0.80 0.71 0.85 1.12 1.33 1.42 1.47 1.45 1.45 1.51 1.51 1.46 1.44 1.49 1.54 1.47 1.41
0.03 0.03 0.05 0.13 0.19 0.16 0.12 0.11 0.12 0.13 0.14 0.13 0.27 0.53 0.40 0.36 0.56 0.61 0.61 0.83 1.00 0.72 0.60 0.60 0.71 0.82 0.97 0.92 0.85 0.98 1.15 1.25 1.29 1.22 1.21 1.24 1.28 1.29 1.29 1.31 1.38 1.46 1.48 1.48
0.04 0.03 0.04 0.12 0.20 0.21 0.17 0.13 0.14 0.13 0.11 0.11 0.19 0.43 0.42 0.42 0.57 0.79 0.85 0.87 0.72 0.65 0.64 0.60 0.65 0.81 0.92 0.97 0.95 0.95 1.03 1.18 1.19 1.12 1.20 1.32 1.37 1.40 1.41 1.40 1.47 1.57 1.63 1.58
0.04 0.03 0.03 0.03 0.07 0.13 0.16 0.16 0.14 0.11 0.08 0.12 0.15 0.28 0.36 0.46 0.59 0.74 0.75 0.68 0.62 0.67 0.66 0.64 0.71 0.87 0.95 1.09 1.12 1.08 1.08 1.12 1.21 1.29 1.40 1.58 1.73 1.75 1.64 1.64 1.74 1.81 1.86 1.80
0.04 0.04 0.04 0.04 0.06 0.11 0.13 0.15 0.11 0.08 0.08 0.10 0.14 0.22 0.28 0.44 0.53 0.62 0.60 0.57 0.65 0.68 0.63 0.58 0.68 0.87 0.89 0.90 0.96 0.96 1.00 1.03 1.06 1.16 1.30 1.51 1.71 1.82 1.83 1.88 1.99 2.01 1.98 2.09
0.08 0.07 0.06 0.05 0.08 0.10 0.18 0.15 0.11 0.11 0.10 0.11 0.18 0.24 0.28 0.39 0.54 0.67 0.69 0.72 0.74 0.66 0.60 0.61 0.65 0.75 0.92 0.84 0.82 0.91 0.98 1.09 1.20 1.37 1.55 1.66 1.82 1.96 1.98 1.95 1.99 2.03 2.05 2.04
0.18 0.17 0.14 0.12 0.13 0.18 0.20 0.15 0.15 0.16 0.18 0.20 0.24 0.31 0.38 0.43 0.54 0.66 0.71 0.68 0.72 0.74 0.79 0.84 0.91 0.92 1.00 0.98 0.96 1.02 1.06 1.19 1.25 1.32 1.48 1.61 1.80 1.93 2.01 2.10 2.14 2.21 2.27 2.28
0.30 0.31 0.26 0.20 0.20 0.22 0.25 0.24 0.25 0.27 0.34 0.36 0.43 0.51 0.53 0.53 0.54 0.67 0.78 0.79 0.88 0.85 0.88 0.95 1.01 1.06 1.06 1.13 1.20 1.28 1.28 1.40 1.51 1.53 1.70 1.84 1.94 2.08 2.15 2.18 2.30 2.41 2.48 2.45
0.33 0.39 0.38 0.31 0.36 0.39 0.39 0.39 0.32 0.37 0.69 0.63 0.64 0.71 0.71 0.75 0.95 1.03 1.01 0.96 0.96 0.96 0.99 1.06 1.03 1.02 1.14 1.22 1.32 1.42 1.55 1.69 1.84 1.92 1.97 2.05 2.17 2.24 2.23 2.24 2.31 2.35 2.38 2.39
0.40 0.47 0.47 0.43 0.44 0.45 0.43 0.43 0.43 0.76 1.12 1.08 1.03 1.03 0.95 1.04 1.10 1.01 0.92 1.02 1.03 1.11 1.18 1.15 1.12 1.16 1.21 1.22 1.30 1.47 1.65 1.81 1.88 1.94 2.02 2.13 2.23 2.42 2.53 2.55 2.41 2.27 2.26 2.32
0.66 0.69 0.67 0.65 0.78 0.81 0.55 0.58 0.86 1.08 1.06 1.28 1.17 1.05 1.06 1.05 0.99 0.92 0.92 1.06 1.16 1.22 1.27 1.27 1.27 1.24 1.27 1.35 1.41 1.52 1.70 1.82 1.90 1.91 2.03 2.15 2.21 2.22 2.26 2.50 2.55 2.48 2.38 2.31
0.90 0.92 0.95 0.93 1.04 0.93 0.78 0.81 0.97 0.94 0.97 1.13 1.11 1.00 0.99 0.97 0.93 0.91 0.92 1.00 1.07 1.11 1.19 1.22 1.26 1.30 1.35 1.42 1.53 1.65 1.73 1.81 1.85 1.98 2.14 2.29 2.34 2.38 2.34 2.35 2.41 2.38 2.30 2.16
1.08 0.91 1.04 1.22 1.23 1.11 0.95 0.84 0.88 0.92 0.94 0.97 1.07 1.13 1.08 1.03 0.97 0.98 0.95 0.99 1.13 1.22 1.25 1.28 1.28 1.31 1.44 1.57 1.71 1.74 1.73 1.82 2.00 2.08 2.14 2.20 2.25 2.27 2.31 2.42 2.34 2.26 2.24 2.17
1.21 1.18 1.39 1.73 1.76 1.58 1.42 1.22 1.13 1.09 1.07 1.08 1.19 1.28 1.33 1.30 1.22 1.16 1.08 1.07 1.18 1.29 1.24 1.29 1.37 1.39 1.48 1.57 1.70 1.79 1.82 1.88 1.95 1.91 1.86 1.94 2.04 2.08 2.08 2.22 2.29 2.11 2.01 2.05
1.27 1.46 1.81 2.13 1.94 1.91 1.77 1.46 1.31 1.30 1.36 1.33 1.33 1.40 1.36 1.29 1.27 1.23 1.22 1.17 1.12 1.09 1.18 1.27 1.34 1.43 1.47 1.52 1.60 1.63 1.70 1.80 1.90 1.95 1.91 1.90 1.94 1.98 2.00 1.97 2.01 1.97 1.73 1.69

GEFSCGP_prec_meanprecacc_264.txt.gz
Total_Precipitation_Accumulation
0.02 0.02 0.02 0.03 0.03 0.04 0.08 0.14 0.27 0.32 0.26 0.35 0.46 0.68 0.78 0.91 1.09 1.07 0.92 0.98 1.27 1.47 1.75 2.21 2.76 3.60 4.68 5.58 5.86 5.37 4.90 4.58 4.16 3.78 3.22 2.87 2.92 2.81 2.51 2.24 1.96 1.88 1.82 1.90
0.02 0.03 0.03 0.02 0.04 0.06 0.09 0.15 0.25 0.31 0.23 0.29 0.45 0.76 1.09 1.08 1.00 0.95 1.01 1.03 1.12 1.47 1.91 2.63 3.66 4.23 4.47 4.60 4.37 4.04 3.80 3.61 3.16 2.84 2.67 2.45 2.50 2.25 2.08 2.01 2.03 1.71 1.62 1.69
0.03 0.04 0.03 0.03 0.05 0.11 0.12 0.17 0.24 0.30 0.22 0.26 0.49 0.97 1.25 1.24 1.02 0.88 0.96 0.97 1.12 1.52 2.10 2.90 3.47 3.59 3.30 3.00 2.92 2.86 2.93 2.69 2.59 2.61 2.54 2.47 2.52 2.24 2.00 1.91 1.95 1.64 1.44 1.46
0.04 0.03 0.02 0.03 0.06 0.10 0.11 0.10 0.10 0.13 0.23 0.42 0.62 1.24 1.45 1.22 1.15 0.96 0.99 1.00 1.01 1.28 1.63 2.06 2.30 2.19 2.30 2.45 2.46 2.57 2.65 2.40 2.39 2.37 2.11 2.05 2.02 1.90 1.78 1.75 1.80 1.88 1.55 1.38
0.05 0.04 0.03 0.03 0.05 0.06 0.06 0.05 0.08 0.15 0.29 0.50 0.70 1.00 1.20 1.02 1.17 0.97 0.86 0.86 0.80 0.93 1.01 1.13 1.26 1.42 1.62 1.73 1.90 2.19 2.44 2.38 2.22 2.07 2.03 2.11 1.99 1.95 1.94 1.96 1.98 2.01 1.81 1.56
0.05 0.05 0.04 0.04 0.04 0.05 0.06 0.08 0.17 0.29 0.46 0.97 0.95 0.94 1.13 1.08 1.18 0.95 0.79 0.69 0.71 0.80 0.87 0.90 0.97 1.12 1.28 1.40 1.56 1.81 2.14 2.28 2.20 2.05 1.97 2.03 2.10 2.08 2.01 2.00 1.97 1.78 1.69 1.64
0.10 0.08 0.06 0.04 0.05 0.07 0.07 0.11 0.32 0.68 1.06 1.23 0.81 0.88 1.11 0.90 0.84 0.71 0.51 0.50 0.61 0.79 0.91 0.97 0.93 0.91 0.97 1.11 1.26 1.36 1.58 1.87 1.97 1.93 1.91 1.94 2.10 2.03 1.86 1.75 1.68 1.62 1.44 1.38
0.15 0.13 0.07 0.04 0.05 0.07 0.06 0.07 0.18 0.34 0.45 0.61 0.78 1.15 1.25 0.91 0.64 0.40 0.32 0.43 0.66 0.79 0.81 0.83 0.83 0.81 0.78 0.86 1.04 1.18 1.40 1.59 1.79 1.81 1.79 1.83 1.92 1.85 1.72 1.73 1.55 1.50 1.43 1.37
0.06 0.05 0.04 0.04 0.06 0.07 0.07 0.06 0.07 0.13 0.18 0.40 0.78 1.09 1.05 0.82 0.63 0.45 0.39 0.43 0.64 0.67 0.62 0.74 0.79 0.88 0.87 0.85 0.97 1.11 1.35 1.57 1.76 1.87 1.90 1.85 1.85 1.87 1.84 1.78 1.58 1.42 1.54 1.45
0.03 0.03 0.05 0.05 0.06 0.07 0.07 0.08 0.07 0.09 0.19 0.34 0.62 1.03 1.22 1.01 0.77 0.61 0.54 0.52 0.63 0.66 0.67 0.86 1.00 0.98 0.82 0.70 0.78 0.97 1.20 1.51 1.71 1.89 1.89 1.77 1.91 1.86 1.86 1.81 1.68 1.52 1.50 1.49
0.02 0.03 0.06 0.06 0.07 0.09 0.08 0.08 0.09 0.09 0.12 0.21 0.49 0.70 0.65 0.62 0.58 0.61 0.68 0.62 0.53 0.62 0.75 0.90 1.08 1.03 0.81 0.70 0.69 0.83 1.14 1.40 1.56 1.68 1.76 1.70 1.68 1.62 1.64 1.68 1.68 1.64 1.61 1.54
0.02 0.03 0.05 0.08 0.09 0.09 0.11 0.12 0.12 0.13 0.12 0.13 0.26 0.49 0.38 0.43 0.53 0.60 0.67 0.75 0.76 0.78 0.80 0.75 0.87 1.00 0.94 0.81 0.74 0.92 1.19 1.37 1.44 1.48 1.46 1.46 1.51 1.51 1.46 1.44 1.50 1.55 1.48 1.42
0.03 0.03 0.05 0.13 0.19 0.16 0.12 0.11 0.12 0.13 0.14 0.13 0.28 0.53 0.40 0.37 0.56 0.61 0.62 0.84 1.00 0.72 0.60 0.60 0.72 0.83 0.98 0.95 0.90 1.03 1.18 1.27 1.32 1.24 1.22 1.24 1.28 1.29 1.30 1.32 1.38 1.47 1.49 1.49
0.04 0.03 0.04 0.12 0.20 0.22 0.17 0.13 0.14 0.13 0.11 0.11 0.19 0.43 0.42 0.42 0.58 0.80 0.85 0.87 0.73 0.65 0.64 0.61 0.66 0.82 0.94 1.00 0.99 0.98 1.06 1.20 1.21 1.14 1.22 1.33 1.37 1.41 1.43 1.42 1.48 1.58 1.64 1.59
0.04 0.03 0.03 0.04 0.07 0.13 0.16 0.16 0.14 0.11 0.08 0.12 0.15 0.28 0.36 0.46 0.59 0.74 0.75 0.68 0.63 0.68 0.67 0.65 0.72 0.88 0.96 1.11 1.14 1.10 1.10 1.15 1.23 1.30 1.41 1.59 1.75 1.79 1.69 1.67 1.76 1.84 1.88 1.82
0.04 0.04 0.04 0.04 0.06 0.11 0.13 0.15 0.11 0.09 0.08 0.10 0.14 0.22 0.29 0.44 0.53 0.63 0.60 0.58 0.66 0.69 0.65 0.60 0.70 0.89 0.91 0.92 0.99 0.99 1.02 1.05 1.08 1.18 1.33 1.55 1.75 1.87 1.87 1.92 2.03 2.06 2.02 2.13
0.08 0.07 0.06 0.05 0.08 0.10 0.18 0.15 0.11 0.11 0.10 0.11 0.18 0.24 0.28 0.40 0.54 0.67 0.70 0.73 0.75 0.68 0.63 0.66 0.69 0.79 0.95 0.87 0.84 0.93 1.01 1.12 1.22 1.40 1.59 1.71 1.87 2.00 2.03 2.00 2.03 2.08 2.11 2.09
0.18 0.17 0.15 0.12 0.13 0.19 0.20 0.16 0.15 0.16 0.18 0.20 0.24 0.31 0.38 0.43 0.54 0.68 0.73 0.70 0.74 0.76 0.82 0.89 0.97 0.96 1.04 1.01 0.98 1.04 1.09 1.22 1.28 1.36 1.53 1.66 1.85 1.98 2.05 2.14 2.19 2.26 2.33 2.34
0.30 0.32 0.26 0.21 0.21 0.22 0.25 0.25 0.26 0.28 0.34 0.36 0.43 0.51 0.54 0.54 0.56 0.68 0.79 0.81 0.90 0.88 0.91 0.99 1.05 1.11 1.10 1.17 1.23 1.31 1.30 1.42 1.55 1.57 1.74 1.88 1.98 2.11 2.18 2.22 2.34 2.45 2.53 2.50
0.33 0.39 0.38 0.32 0.37 0.40 0.39 0.40 0.34 0.39 0.71 0.64 0.64 0.72 0.73 0.77 0.96 1.04 1.03 0.98 0.99 0.99 1.02 1.09 1.05 1.05 1.19 1.26 1.34 1.44 1.59 1.72 1.87 1.95 2.01 2.09 2.20 2.27 2.26 2.28 2.36 2.39 2.42 2.43
0.40 0.47 0.47 0.44 0.45 0.45 0.44 0.44 0.46 0.79 1.14 1.10 1.06 1.06 0.98 1.07 1.12 1.03 0.95 1.05 1.05 1.13 1.20 1.16 1.13 1.17 1.24 1.25 1.33 1.50 1.69 1.84 1.91 1.97 2.05 2.15 2.25 2.45 2.56 2.59 2.47 2.33 2.32 2.39
0.66 0.69 0.68 0.66 0.79 0.82 0.57 0.62 0.91 1.13 1.10 1.32 1.20 1.08 1.09 1.08 1.01 0.94 0.95 1.08 1.18 1.24 1.29 1.29 1.28 1.26 1.29 1.38 1.44 1.55 1.72 1.84 1.92 1.93 2.05 2.17 2.24 2.25 2.30 2.56 2.62 2.57 2.48 2.40
0.90 0.92 0.96 0.94 1.05 0.95 0.80 0.85 1.02 1.01 1.02 1.16 1.15 1.03 1.02 1.00 0.95 0.94 0.95 1.02 1.09 1.13 1.20 1.23 1.27 1.32 1.37 1.43 1.54 1.67 1.74 1.82 1.87 1.99 2.16 2.31 2.38 2.42 2.39 2.42 2.50 2.47 2.39 2.25
1.09 0.91 1.05 1.23 1.26 1.14 0.98 0.87 0.92 0.96 0.98 1.01 1.10 1.16 1.11 1.05 0.99 1.00 0.99 1.02 1.15 1.23 1.26 1.29 1.29 1.31 1.45 1.58 1.72 1.74 1.74 1.83 2.01 2.09 2.16 2.22 2.27 2.30 2.34 2.47 2.40 2.33 2.32 2.25
1.23 1.19 1.40 1.75 1.78 1.60 1.44 1.24 1.15 1.12 1.10 1.12 1.23 1.32 1.37 1.33 1.25 1.19 1.12 1.10 1.20 1.30 1.25 1.31 1.39 1.41 1.49 1.58 1.71 1.80 1.83 1.88 1.96 1.93 1.87 1.96 2.07 2.12 2.13 2.29 2.36 2.18 2.08 2.13
1.28 1.48 1.83 2.15 1.95 1.92 1.80 1.48 1.33 1.33 1.40 1.36 1.37 1.44 1.40 1.32 1.29 1.26 1.26 1.21 1.16 1.15 1.24 1.33 1.38 1.46 1.51 1.54 1.61 1.65 1.71 1.81 1.92 1.97 1.94 1.93 1.97 2.03 2.06 2.05 2.09 2.05 1.82 1.77

GEFSCGP_prec_meanprecacc_270.txt.gz
Total_Precipitation_Accumulation
0.02 0.02 0.02 0.03 0.03 0.04 0.08 0.14 0.27 0.32 0.26 0.35 0.46 0.68 0.78 0.91 1.09 1.07 0.92 0.98 1.27 1.47 1.75 2.21 2.76 3.61 4.68 5.60 5.87 5.38 4.91 4.60 4.20 3.82 3.25 2.90 2.95 2.85 2.55 2.29 2.01 1.95 1.88 1.96
0.02 0.03 0.03 0.03 0.04 0.06 0.09 0.15 0.25 0.31 0.23 0.29 0.45 0.76 1.09 1.08 1.00 0.95 1.01 1.03 1.12 1.47 1.91 2.63 3.66 4.24 4.47 4.61 4.38 4.05 3.81 3.62 3.18 2.89 2.76 2.54 2.57 2.30 2.13 2.06 2.09 1.78 1.68 1.75
0.03 0.04 0.03 0.03 0.05 0.11 0.12 0.17 0.24 0.30 0.22 0.26 0.50 0.97 1.25 1.24 1.02 0.88 0.96 0.97 1.12 1.52 2.10 2.90 3.47 3.60 3.31 3.00 2.92 2.87 2.94 2.70 2.60 2.64 2.60 2.54 2.58 2.30 2.07 1.97 2.01 1.71 1.50 1.50
0.04 0.03 0.03 0.03 0.06 0.10 0.11 0.10 0.10 0.13 0.23 0.42 0.62 1.24 1.45 1.22 1.15 0.96 0.99 1.00 1.01 1.28 1.63 2.06 2.30 2.19 2.31 2.45 2.46 2.57 2.65 2.41 2.41 2.38 2.13 2.07 2.05 1.95 1.85 1.82 1.88 1.95 1.60 1.42
0.05 0.04 0.04 0.04 0.05 0.06 0.06 0.05 0.08 0.15 0.29 0.50 0.70 1.00 1.20 1.02 1.17 0.97 0.86 0.86 0.80 0.93 1.01 1.13 1.26 1.42 1.63 1.73 1.90 2.19 2.44 2.39 2.23 2.07 2.04 2.12 2.00 1.97 1.97 2.00 2.03 2.07 1.86 1.61
0.06 0.05 0.04 0.04 0.04 0.05 0.06 0.08 0.17 0.29 0.46 0.97 0.95 0.94 1.13 1.08 1.18 0.95 0.79 0.69 0.71 0.80 0.87 0.90 0.97 1.12 1.29 1.40 1.56 1.81 2.14 2.29 2.21 2.06 1.99 2.05 2.12 2.10 2.03 2.04 2.00 1.81 1.76 1.73
0.12 0.09 0.06 0.04 0.05 0.07 0.08 0.11 0.32 0.68 1.06 1.23 0.81 0.88 1.11 0.90 0.84 0.71 0.51 0.50 0.62 0.79 0.91 0.97 0.93 0.91 0.97 1.12 1.26 1.36 1.58 1.87 1.98 1.94 1.92 1.96 2.12 2.05 1.88 1.77 1.70 1.65 1.48 1.43
0.16 0.13 0.07 0.05 0.05 0.08 0.07 0.07 0.18 0.34 0.45 0.61 0.78 1.15 1.25 0.91 0.64 0.40 0.32 0.43 0.66 0.79 0.81 0.83 0.83 0.81 0.78 0.86 1.04 1.18 1.41 1.60 1.80 1.82 1.80 1.84 1.93 1.86 1.74 1.75 1.57 1.52 1.45 1.39
0.07 0.06 0.05 0.04 0.06 0.07 0.07 0.07 0.07 0.13 0.19 0.40 0.78 1.09 1.05 0.82 0.63 0.45 0.39 0.43 0.64 0.67 0.62 0.74 0.79 0.88 0.87 0.85 0.97 1.12 1.36 1.60 1.80 1.89 1.91 1.86 1.86 1.87 1.85 1.79 1.59 1.43 1.55 1.47
0.04 0.04 0.05 0.05 0.06 0.07 0.07 0.08 0.08 0.10 0.19 0.34 0.62 1.03 1.22 1.01 0.77 0.61 0.54 0.53 0.63 0.66 0.67 0.86 1.00 0.98 0.83 0.71 0.79 0.98 1.24 1.59 1.78 1.91 1.90 1.78 1.92 1.86 1.86 1.82 1.68 1.52 1.51 1.52
0.02 0.03 0.06 0.06 0.07 0.09 0.08 0.08 0.09 0.09 0.12 0.21 0.49 0.70 0.65 0.62 0.58 0.61 0.68 0.62 0.53 0.62 0.75 0.90 1.08 1.04 0.82 0.71 0.70 0.84 1.18 1.46 1.60 1.70 1.77 1.71 1.69 1.63 1.64 1.69 1.68 1.65 1.63 1.57
0.02 0.03 0.05 0.08 0.09 0.09 0.11 0.12 0.12 0.13 0.13 0.13 0.26 0.49 0.38 0.44 0.53 0.60 0.67 0.75 0.76 0.78 0.80 0.76 0.88 1.01 0.95 0.82 0.75 0.93 1.21 1.39 1.45 1.49 1.48 1.46 1.52 1.52 1.46 1.45 1.50 1.56 1.49 1.43
0.03 0.03 0.05 0.14 0.19 0.16 0.12 0.11 0.12 0.13 0.14 0.13 0.28 0.53 0.40 0.37 0.56 0.62 0.62 0.84 1.00 0.73 0.60 0.61 0.73 0.84 0.99 0.96 0.91 1.05 1.20 1.29 1.33 1.25 1.23 1.26 1.29 1.30 1.30 1.32 1.39 1.47 1.50 1.50
0.04 0.03 0.04 0.12 0.20 0.22 0.17 0.13 0.14 0.13 0.11 0.11 0.19 0.43 0.42 0.42 0.58 0.80 0.85 0.87 0.73 0.66 0.64 0.61 0.66 0.83 0.95 1.02 1.00 0.99 1.08 1.22 1.24 1.17 1.24 1.34 1.38 1.41 1.44 1.42 1.49 1.59 1.65 1.60
0.04 0.03 0.03 0.04 0.07 0.13 0.16 0.16 0.14 0.11 0.08 0.12 0.15 0.28 0.36 0.46 0.59 0.74 0.75 0.68 0.63 0.68 0.68 0.65 0.72 0.89 0.97 1.12 1.15 1.12 1.12 1.18 1.27 1.34 1.44 1.63 1.78 1.81 1.71 1.69 1.78 1.86 1.90 1.84
0.04 0.04 0.04 0.04 0.06 0.11 0.13 0.15 0.11 0.09 0.08 0.10 0.14 0.22 0.29 0.44 0.53 0.63 0.60 0.58 0.67 0.70 0.65 0.60 0.70 0.90 0.92 0.93 1.00 1.00 1.04 1.07 1.10 1.21 1.37 1.59 1.81 1.93 1.92 1.96 2.07 2.11 2.07 2.17
0.08 0.07 0.06 0.05 0.08 0.10 0.18 0.15 0.11 0.11 0.10 0.11 0.18 0.24 0.28 0.40 0.54 0.67 0.70 0.73 0.75 0.69 0.63 0.66 0.69 0.80 0.96 0.88 0.85 0.95 1.03 1.14 1.24 1.42 1.61 1.73 1.91 2.06 2.08 2.04 2.07 2.12 2.15 2.14
0.18 0.18 0.15 0.12 0.13 0.19 0.20 0.16 0.15 0.16 0.18 0.20 0.24 0.31 0.38 0.44 0.55 0.68 0.73 0.70 0.75 0.77 0.83 0.90 0.98 0.97 1.05 1.03 1.00 1.06 1.12 1.24 1.31 1.38 1.55 1.67 1.87 2.01 2.09 2.18 2.22 2.30 2.37 2.38
0.30 0.32 0.27 0.21 0.21 0.22 0.25 0.25 0.26 0.28 0.34 0.36 0.44 0.53 0.55 0.55 0.57 0.69 0.80 0.82 0.92 0.89 0.92 1.00 1.07 1.12 1.12 1.19 1.25 1.33 1.32 1.44 1.57 1.59 1.76 1.90 2.00 2.14 2.21 2.25 2.38 2.49 2.57 2.55
0.34 0.39 0.39 0.32 0.38 0.40 0.39 0.40 0.34 0.40 0.72 0.65 0.65 0.74 0.74 0.80 0.99 1.06 1.04 1.00 1.00 1.00 1.03 1.11 1.07 1.07 1.20 1.28 1.36 1.46 1.61 1.74 1.90 1.97 2.03 2.11 2.23 2.31 2.31 2.33 2.42 2.44 2.45 2.46
0.41 0.48 0.48 0.44 0.45 0.46 0.44 0.45 0.47 0.80 1.15 1.12 1.08 1.08 1.00 1.09 1.15 1.05 0.97 1.07 1.08 1.15 1.22 1.19 1.15 1.19 1.26 1.29 1.38 1.53 1.71 1.87 1.94 2.00 2.08 2.17 2.27 2.48 2.61 2.64 2.50 2.35 2.35 2.43
0.67 0.70 0.69 0.67 0.80 0.82 0.57 0.63 0.93 1.15 1.12 1.35 1.24 1.10 1.12 1.11 1.04 0.96 0.96 1.10 1.20 1.26 1.31 1.32 1.32 1.29 1.33 1.42 1.49 1.61 1.77 1.87 1.95 1.96 2.08 2.19 2.26 2.27 2.32 2.58 2.65 2.60 2.51 2.44
0.90 0.93 0.97 0.95 1.06 0.96 0.82 0.86 1.04 1.04 1.06 1.22 1.22 1.08 1.06 1.04 0.99 0.96 0.96 1.04 1.12 1.17 1.25 1.27 1.30 1.35 1.40 1.47 1.58 1.73 1.82 1.89 1.91 2.02 2.18 2.33 2.39 2.44 2.41 2.44 2.53 2.50 2.42 2.28
1.09 0.92 1.05 1.24 1.26 1.15 1.00 0.89 0.95 0.99 1.01 1.05 1.17 1.21 1.14 1.08 1.02 1.03 1.00 1.04 1.19 1.29 1.32 1.34 1.33 1.36 1.49 1.62 1.76 1.78 1.78 1.88 2.06 2.13 2.18 2.24 2.29 2.32 2.36 2.49 2.42 2.35 2.35 2.28
1.23 1.19 1.40 1.75 1.78 1.61 1.45 1.26 1.17 1.15 1.13 1.15 1.26 1.35 1.40 1.37 1.27 1.22 1.15 1.14 1.24 1.34 1.29 1.34 1.43 1.47 1.55 1.62 1.76 1.84 1.86 1.90 1.99 1.95 1.90 1.98 2.08 2.13 2.15 2.31 2.38 2.21 2.11 2.16
1.28 1.49 1.84 2.15 1.96 1.93 1.81 1.49 1.35 1.37 1.45 1.40 1.40 1.46 1.43 1.36 1.33 1.31 1.30 1.24 1.18 1.16 1.25 1.37 1.44 1.54 1.57 1.60 1.66 1.68 1.73 1.83 1.93 1.98 1.95 1.94 1.98 2.04 2.08 2.07 2.12 2.08 1.86 1.82

GEFSCGP_prec_meanprecacc_276.txt.gz
Total_Precipitation_Accumulation
0.02 0.02 0.02 0.03 0.04 0.05 0.08 0.14 0.27 0.32 0.26 0.35 0.46 0.68 0.78 0.91 1.09 1.07 0.93 0.98 1.28 1.47 1.75 2.21 2.76 3.61 4.68 5.60 5.87 5.38 4.91 4.60 4.22 3.84 3.28 2.95 2.99 2.90 2.62 2.36 2.07 2.00 1.95 2.04
0.02 0.03 0.03 0.03 0.04 0.06 0.09 0.15 0.25 0.31 0.23 0.29 0.45 0.76 1.09 1.08 1.00 0.95 1.01 1.03 1.13 1.48 1.91 2.63 3.66 4.24 4.48 4.62 4.38 4.06 3.81 3.62 3.18 2.92 2.79 2.59 2.61 2.34 2.18 2.12 2.16 1.84 1.74 1.81
0.04 0.05 0.03 0.03 0.05 0.12 0.13 0.17 0.24 0.30 0.22 0.26 0.50 0.98 1.25 1.24 1.02 0.88 0.96 0.98 1.12 1.52 2.10 2.90 3.47 3.60 3.31 3.00 2.92 2.88 2.95 2.71 2.61 2.66 2.62 2.56 2.62 2.34 2.10 2.02 2.08 1.77 1.54 1.54
0.06 0.05 0.03 0.03 0.06 0.10 0.12 0.10 0.10 0.13 0.23 0.43 0.62 1.26 1.46 1.22 1.15 0.96 0.99 1.00 1.01 1.28 1.63 2.06 2.30 2.19 2.31 2.45 2.46 2.57 2.67 2.43 2.42 2.39 2.14 2.09 2.08 1.98 1.90 1.87 1.93 2.00 1.64 1.45
0.06 0.05 0.04 0.04 0.06 0.06 0.06 0.05 0.08 0.15 0.30 0.51 0.70 1.00 1.20 1.02 1.17 0.97 0.86 0.86 0.80 0.94 1.02 1.13 1.26 1.42 1.63 1.73 1.90 2.19 2.45 2.40 2.25 2.09 2.06 2.15 2.02 2.01 2.01 2.04 2.08 2.11 1.91 1.65
0.06 0.05 0.04 0.04 0.04 0.05 0.06 0.08 0.18 0.29 0.47 0.99 0.96 0.94 1.14 1.08 1.18 0.95 0.79 0.69 0.71 0.80 0.88 0.91 0.97 1.12 1.29 1.40 1.56 1.81 2.15 2.30 2.23 2.08 2.00 2.07 2.15 2.14 2.08 2.08 2.05 1.85 1.80 1.79
0.12 0.09 0.06 0.04 0.05 0.07 0.08 0.12 0.33 0.69 1.07 1.23 0.81 0.89 1.11 0.91 0.85 0.71 0.51 0.50 0.62 0.79 0.92 0.98 0.94 0.91 0.97 1.12 1.26 1.36 1.59 1.88 2.00 1.96 1.94 1.98 2.14 2.07 1.92 1.81 1.74 1.69 1.53 1.48
0.16 0.13 0.07 0.05 0.05 0.08 0.07 0.08 0.19 0.35 0.46 0.61 0.78 1.16 1.26 0.92 0.64 0.40 0.32 0.43 0.66 0.79 0.81 0.84 0.84 0.81 0.78 0.86 1.04 1.18 1.41 1.61 1.82 1.84 1.81 1.85 1.94 1.87 1.75 1.77 1.59 1.55 1.48 1.42
0.07 0.06 0.05 0.04 0.06 0.07 0.07 0.07 0.08 0.14 0.19 0.40 0.78 1.09 1.05 0.82 0.63 0.45 0.39 0.43 0.64 0.67 0.62 0.74 0.80 0.89 0.88 0.85 0.97 1.12 1.37 1.61 1.82 1.90 1.92 1.86 1.86 1.88 1.86 1.81 1.61 1.44 1.57 1.49
0.04 0.05 0.05 0.05 0.06 0.07 0.07 0.08 0.09 0.11 0.20 0.35 0.63 1.03 1.22 1.01 0.78 0.62 0.54 0.53 0.63 0.66 0.67 0.86 1.01 0.98 0.84 0.73 0.80 0.99 1.25 1.61 1.80 1.93 1.91 1.78 1.93 1.87 1.87 1.82 1.69 1.54 1.53 1.53
0.03 0.03 0.07 0.06 0.07 0.09 0.08 0.09 0.10 0.10 0.12 0.22 0.49 0.70 0.66 0.62 0.59 0.62 0.68 0.62 0.53 0.62 0.75 0.91 1.09 1.04 0.82 0.72 0.70 0.85 1.19 1.48 1.62 1.71 1.78 1.72 1.69 1.64 1.65 1.70 1.70 1.67 1.64 1.58
0.02 0.03 0.05 0.08 0.09 0.09 0.11 0.12 0.13 0.14 0.14 0.13 0.26 0.50 0.39 0.44 0.54 0.61 0.68 0.75 0.76 0.78 0.81 0.77 0.90 1.03 0.95 0.83 0.75 0.93 1.22 1.40 1.46 1.50 1.48 1.47 1.53 1.53 1.47 1.46 1.51 1.57 1.50 1.44
0.03 0.03 0.06 0.14 0.19 0.16 0.12 0.11 0.12 0.15 0.18 0.14 0.28 0.53 0.41 0.37 0.57 0.62 0.62 0.84 1.00 0.73 0.61 0.63 0.78 0.89 1.01 0.96 0.91 1.05 1.20 1.30 1.34 1.26 1.25 1.27 1.30 1.31 1.31 1.34 1.41 1.49 1.52 1.52
0.04 0.03 0.04 0.13 0.21 0.22 0.17 0.13 0.14 0.13 0.11 0.12 0.20 0.44 0.42 0.42 0.58 0.80 0.85 0.87 0.73 0.66 0.65 0.61 0.69 0.89 0.98 1.03 1.01 1.00 1.08 1.23 1.25 1.18 1.25 1.36 1.41 1.44 1.47 1.45 1.51 1.61 1.68 1.62
0.04 0.03 0.03 0.04 0.08 0.13 0.16 0.16 0.14 0.11 0.09 0.14 0.16 0.28 0.36 0.46 0.60 0.74 0.75 0.68 0.63 0.68 0.68 0.65 0.73 0.91 1.03 1.18 1.20 1.15 1.13 1.19 1.29 1.37 1.48 1.67 1.81 1.84 1.75 1.73 1.81 1.88 1.92 1.85
0.04 0.04 0.04 0.04 0.06 0.11 0.13 0.15 0.11 0.09 0.08 0.11 0.14 0.22 0.29 0.45 0.53 0.63 0.61 0.59 0.67 0.70 0.65 0.60 0.70 0.91 0.95 0.98 1.06 1.05 1.07 1.10 1.12 1.23 1.41 1.64 1.86 1.97 1.96 1.99 2.11 2.14 2.09 2.19
0.08 0.07 0.06 0.05 0.08 0.10 0.18 0.15 0.11 0.11 0.10 0.11 0.18 0.24 0.28 0.40 0.54 0.68 0.71 0.74 0.76 0.69 0.64 0.67 0.71 0.81 0.97 0.90 0.89 1.01 1.09 1.18 1.27 1.45 1.65 1.77 1.96 2.11 2.13 2.09 2.13 2.18 2.20 2.17
0.18 0.18 0.15 0.12 0.13 0.19 0.20 0.16 0.15 0.16 0.18 0.20 0.24 0.31 0.39 0.45 0.56 0.69 0.74 0.71 0.76 0.79 0.86 0.93 1.00 0.99 1.06 1.04 1.03 1.12 1.19 1.33 1.37 1.43 1.59 1.72 1.92 2.06 2.16 2.26 2.29 2.38 2.46 2.46
0.30 0.32 0.27 0.22 0.22 0.23 0.25 0.25 0.26 0.28 0.34 0.36 0.44 0.53 0.55 0.55 0.57 0.70 0.82 0.85 0.95 0.91 0.95 1.04 1.09 1.13 1.13 1.21 1.30 1.42 1.42 1.52 1.66 1.67 1.84 1.96 2.06 2.19 2.26 2.31 2.46 2.58 2.67 2.63
0.34 0.39 0.39 0.33 0.38 0.40 0.40 0.40 0.34 0.40 0.73 0.65 0.66 0.74 0.75 0.80 1.01 1.08 1.07 1.03 1.03 1.03 1.05 1.13 1.10 1.09 1.22 1.31 1.39 1.52 1.69 1.80 1.96 2.05 2.12 2.19 2.29 2.36 2.37 2.40 2.50 2.54 2.57 2.56
0.41 0.48 0.48 0.45 0.46 0.46 0.44 0.45 0.47 0.81 1.18 1.14 1.09 1.09 1.01 1.12 1.17 1.07 0.99 1.10 1.11 1.18 1.24 1.21 1.18 1.22 1.28 1.32 1.41 1.57 1.76 1.93 2.01 2.08 2.16 2.26 2.34 2.54 2.68 2.73 2.59 2.46 2.46 2.53
0.67 0.70 0.70 0.68 0.80 0.83 0.57 0.63 0.94 1.18 1.14 1.37 1.26 1.12 1.14 1.14 1.06 0.99 0.99 1.13 1.24 1.30 1.35 1.35 1.34 1.32 1.36 1.45 1.53 1.66 1.82 1.92 2.01 2.03 2.14 2.26 2.32 2.32 2.38 2.64 2.72 2.68 2.60 2.52
0.91 0.94 0.98 0.96 1.07 0.96 0.82 0.86 1.05 1.05 1.09 1.24 1.24 1.10 1.09 1.07 1.01 0.99 1.01 1.10 1.16 1.22 1.30 1.31 1.33 1.38 1.43 1.50 1.62 1.77 1.87 1.95 1.97 2.07 2.23 2.38 2.44 2.48 2.45 2.49 2.58 2.56 2.50 2.38
1.10 0.93 1.07 1.25 1.27 1.15 1.00 0.89 0.95 1.00 1.02 1.06 1.19 1.24 1.17 1.11 1.04 1.08 1.07 1.08 1.21 1.31 1.35 1.38 1.37 1.39 1.52 1.65 1.80 1.84 1.85 1.95 2.13 2.20 2.24 2.30 2.35 2.37 2.42 2.54 2.47 2.40 2.39 2.33
1.25 1.21 1.42 1.76 1.79 1.61 1.46 1.26 1.17 1.15 1.14 1.15 1.28 1.38 1.42 1.39 1.30 1.28 1.19 1.16 1.26 1.36 1.31 1.38 1.46 1.50 1.59 1.65 1.79 1.91 1.95 1.97 2.06 2.05 2.00 2.07 2.17 2.21 2.22 2.36 2.43 2.25 2.15 2.19
1.29 1.50 1.86 2.17 1.97 1.95 1.82 1.49 1.36 1.38 1.46 1.42 1.42 1.48 1.44 1.38 1.36 1.36 1.33 1.26 1.19 1.18 1.28 1.39 1.47 1.57 1.60 1.63 1.72 1.75 1.81 1.90 2.00 2.07 2.04 2.03 2.07 2.12 2.15 2.12 2.16 2.13 1.90 1.85

GEFSCGP_prec_meanprecacc_282.txt.gz
Total_Precipitation_Accumulation
0.02 0.02 0.02 0.03 0.04 0.05 0.09 0.15 0.27 0.32 0.26 0.36 0.47 0.69 0.79 0.92 1.11 1.09 0.94 1.00 1.29 1.49 1.76 2.22 2.77 3.61 4.68 5.60 5.88 5.38 4.91 4.60 4.22 3.85 3.29 2.96 3.03 2.97 2.70 2.43 2.13 2.04 1.97 2.07
0.02 0.03 0.03 0.03 0.04 0.07 0.10 0.16 0.26 0.32 0.24 0.30 0.46 0.77 1.09 1.09 1.01 0.95 1.02 1.04 1.14 1.51 1.94 2.66 3.68 4.24 4.50 4.62 4.39 4.06 3.81 3.62 3.18 2.92 2.80 2.59 2.63 2.37 2.23 2.17 2.21 1.87 1.76 1.84
0.04 0.05 0.03 0.03 0.05 0.12 0.13 0.17 0.25 0.32 0.22 0.27 0.51 1.00 1.27 1.25 1.03 0.89 0.97 0.99 1.14 1.54 2.12 2.93 3.51 3.62 3.32 3.01 2.92 2.88 2.95 2.72 2.61 2.67 2.62 2.56 2.63 2.36 2.14 2.06 2.13 1.81 1.57 1.59
0.06 0.05 0.03 0.03 0.06 0.11 0.13 0.11 0.10 0.14 0.24 0.43 0.63 1.27 1.48 1.24 1.16 0.97 1.00 1.01 1.03 1.30 1.68 2.09 2.34 2.22 2.32 2.46 2.47 2.58 2.67 2.43 2.43 2.40 2.15 2.10 2.08 1.98 1.91 1.90 1.98 2.05 1.70 1.53
0.06 0.05 0.04 0.04 0.06 0.07 0.07 0.06 0.08 0.16 0.31 0.52 0.71 1.01 1.22 1.04 1.19 0.98 0.88 0.88 0.82 0.96 1.08 1.19 1.31 1.44 1.65 1.74 1.91 2.20 2.46 2.41 2.25 2.10 2.07 2.16 2.03 2.02 2.02 2.05 2.10 2.16 1.97 1.73
0.06 0.05 0.05 0.04 0.05 0.05 0.06 0.09 0.18 0.30 0.48 1.00 0.96 0.94 1.14 1.10 1.21 0.97 0.81 0.71 0.73 0.84 0.94 0.96 1.01 1.15 1.31 1.42 1.59 1.83 2.16 2.31 2.23 2.08 2.00 2.07 2.16 2.15 2.09 2.10 2.07 1.89 1.84 1.84
0.12 0.09 0.06 0.05 0.06 0.07 0.08 0.12 0.33 0.70 1.08 1.24 0.81 0.89 1.12 0.92 0.87 0.72 0.52 0.51 0.63 0.81 0.94 1.00 0.96 0.94 1.00 1.14 1.28 1.39 1.61 1.90 2.01 1.97 1.95 1.98 2.14 2.08 1.92 1.82 1.76 1.71 1.55 1.51
0.16 0.13 0.07 0.05 0.06 0.08 0.07 0.08 0.20 0.36 0.46 0.61 0.78 1.16 1.26 0.93 0.65 0.41 0.33 0.44 0.67 0.81 0.82 0.87 0.86 0.84 0.82 0.90 1.09 1.23 1.47 1.65 1.84 1.87 1.84 1.87 1.95 1.88 1.76 1.78 1.60 1.56 1.50 1.43
0.07 0.06 0.05 0.04 0.06 0.08 0.08 0.08 0.09 0.15 0.19 0.40 0.79 1.09 1.05 0.82 0.64 0.46 0.39 0.45 0.66 0.69 0.65 0.79 0.85 0.94 0.93 0.89 1.00 1.15 1.42 1.68 1.87 1.95 1.97 1.91 1.89 1.90 1.87 1.82 1.61 1.45 1.58 1.50
0.04 0.05 0.05 0.05 0.06 0.07 0.08 0.08 0.09 0.11 0.20 0.35 0.63 1.03 1.23 1.03 0.80 0.63 0.54 0.53 0.64 0.68 0.69 0.91 1.05 1.03 0.89 0.76 0.82 1.01 1.27 1.64 1.85 1.97 1.96 1.84 1.98 1.91 1.89 1.85 1.70 1.55 1.55 1.54
0.03 0.04 0.07 0.06 0.07 0.09 0.09 0.09 0.11 0.11 0.13 0.22 0.50 0.71 0.66 0.63 0.60 0.63 0.68 0.63 0.54 0.63 0.77 0.94 1.14 1.10 0.86 0.74 0.73 0.87 1.20 1.49 1.64 1.75 1.84 1.77 1.74 1.68 1.69 1.74 1.73 1.69 1.67 1.61
0.03 0.03 0.05 0.08 0.09 0.09 0.11 0.12 0.15 0.17 0.15 0.14 0.27 0.51 0.39 0.44 0.54 0.62 0.68 0.76 0.77 0.79 0.83 0.80 0.93 1.09 0.99 0.85 0.78 0.94 1.22 1.41 1.49 1.54 1.57 1.59 1.63 1.61 1.54 1.52 1.57 1.62 1.55 1.48
0.04 0.04 0.06 0.14 0.19 0.16 0.12 0.12 0.14 0.17 0.19 0.15 0.29 0.54 0.41 0.37 0.57 0.63 0.63 0.85 1.01 0.74 0.62 0.64 0.79 0.92 1.03 0.98 0.94 1.08 1.22 1.33 1.38 1.32 1.33 1.36 1.39 1.38 1.37 1.39 1.46 1.53 1.56 1.55
0.04 0.04 0.05 0.13 0.21 0.22 0.17 0.13 0.15 0.15 0.13 0.13 0.20 0.44 0.42 0.43 0.58 0.81 0.87 0.89 0.74 0.67 0.65 0.62 0.70 0.90 0.99 1.04 1.03 1.03 1.12 1.28 1.31 1.26 1.32 1.42 1.46 1.49 1.51 1.48 1.55 1.65 1.72 1.65
0.04 0.03 0.03 0.04 0.08 0.14 0.17 0.17 0.15 0.11 0.09 0.15 0.17 0.29 0.36 0.47 0.60 0.75 0.78 0.70 0.64 0.69 0.69 0.67 0.75 0.93 1.05 1.20 1.22 1.18 1.20 1.27 1.42 1.53 1.59 1.75 1.88 1.90 1.80 1.77 1.85 1.91 1.95 1.88
0.04 0.04 0.04 0.04 0.07 0.11 0.13 0.15 0.12 0.09 0.08 0.11 0.15 0.23 0.29 0.45 0.54 0.63 0.62 0.60 0.69 0.73 0.69 0.65 0.75 0.95 1.00 1.03 1.11 1.12 1.17 1.25 1.32 1.40 1.55 1.74 1.94 2.04 2.02 2.05 2.18 2.19 2.14 2.24
0.08 0.07 0.06 0.06 0.08 0.11 0.19 0.15 0.11 0.11 0.11 0.13 0.20 0.26 0.30 0.41 0.54 0.68 0.71 0.75 0.79 0.73 0.70 0.73 0.75 0.85 1.02 0.95 0.94 1.06 1.15 1.28 1.43 1.66 1.85 1.93 2.06 2.20 2.21 2.16 2.19 2.23 2.27 2.27
0.19 0.18 0.15 0.13 0.14 0.20 0.21 0.16 0.16 0.17 0.19 0.22 0.27 0.33 0.41 0.47 0.58 0.70 0.75 0.74 0.82 0.86 0.93 1.00 1.07 1.06 1.11 1.08 1.06 1.14 1.23 1.38 1.46 1.56 1.73 1.85 2.03 2.16 2.26 2.36 2.39 2.48 2.57 2.58
0.30 0.32 0.27 0.22 0.22 0.24 0.26 0.25 0.27 0.29 0.36 0.38 0.48 0.56 0.58 0.58 0.60 0.73 0.84 0.87 0.97 0.96 1.00 1.12 1.18 1.19 1.17 1.24 1.34 1.47 1.50 1.62 1.75 1.81 1.98 2.09 2.18 2.31 2.37 2.42 2.58 2.71 2.80 2.77
0.34 0.39 0.39 0.33 0.38 0.41 0.40 0.40 0.35 0.41 0.75 0.67 0.68 0.78 0.79 0.85 1.05 1.11 1.09 1.05 1.06 1.06 1.09 1.19 1.18 1.16 1.32 1.40 1.47 1.59 1.77 1.89 2.03 2.15 2.30 2.40 2.51 2.55 2.51 2.52 2.63 2.68 2.74 2.73
0.41 0.49 0.49 0.45 0.46 0.46 0.45 0.45 0.48 0.83 1.20 1.16 1.12 1.12 1.06 1.16 1.21 1.10 1.02 1.12 1.12 1.20 1.26 1.23 1.22 1.28 1.36 1.40 1.49 1.65 1.85 2.02 2.11 2.21 2.32 2.45 2.55 2.74 2.86 2.89 2.73 2.60 2.61 2.67
0.67 0.71 0.70 0.68 0.81 0.84 0.58 0.64 0.96 1.20 1.16 1.40 1.30 1.15 1.17 1.16 1.08 1.01 1.02 1.17 1.28 1.33 1.37 1.37 1.36 1.35 1.40 1.50 1.58 1.72 1.89 2.00 2.12 2.19 2.34 2.44 2.52 2.54 2.60 2.82 2.85 2.80 2.72 2.64
0.93 0.96 1.00 0.98 1.08 0.97 0.83 0.88 1.07 1.08 1.11 1.26 1.25 1.11 1.10 1.08 1.02 1.00 1.03 1.12 1.19 1.24 1.32 1.34 1.36 1.40 1.47 1.54 1.66 1.81 1.92 2.02 2.07 2.19 2.34 2.51 2.58 2.63 2.61 2.63 2.70 2.66 2.60 2.47
1.13 0.96 1.11 1.29 1.29 1.17 1.02 0.90 0.96 1.01 1.04 1.07 1.20 1.25 1.18 1.12 1.05 1.09 1.09 1.10 1.23 1.33 1.36 1.40 1.40 1.42 1.55 1.68 1.83 1.88 1.89 2.00 2.20 2.28 2.32 2.38 2.43 2.45 2.51 2.64 2.57 2.50 2.49 2.41
1.26 1.23 1.46 1.81 1.81 1.63 1.48 1.27 1.18 1.16 1.15 1.16 1.28 1.38 1.43 1.40 1.32 1.29 1.22 1.19 1.29 1.38 1.34 1.41 1.50 1.54 1.61 1.67 1.81 1.93 1.98 2.01 2.11 2.11 2.06 2.12 2.23 2.28 2.29 2.43 2.50 2.35 2.26 2.29
1.30 1.51 1.87 2.19 1.99 1.97 1.84 1.51 1.37 1.39 1.46 1.42 1.42 1.48 1.45 1.39 1.37 1.38 1.37 1.29 1.23 1.22 1.32 1.44 1.51 1.59 1.62 1.65 1.73 1.78 1.84 1.94 2.05 2.11 2.09 2.08 2.13 2.19 2.22 2.20 2.24 2.25 2.01 1.95

GEFSCGP_prec_meanprecacc_288.txt.gz
Total_Precipitation_Accumulation
0.02 0.02 0.02 0.03 0.04 0.05 0.09 0.15 0.27 0.32 0.26 0.36 0.47 0.69 0.80 0.93 1.11 1.10 0.96 1.00 1.29 1.49 1.77 2.23 2.78 3.62 4.70 5.63 5.90 5.40 4.93 4.61 4.22 3.86 3.31 3.00 3.09 3.03 2.76 2.48 2.16 2.07 2.01 2.10
0.02 0.03 0.03 0.03 0.04 0.07 0.10 0.16 0.26 0.32 0.24 0.30 0.47 0.77 1.09 1.10 1.03 0.97 1.03 1.05 1.15 1.51 1.95 2.68 3.69 4.27 4.55 4.68 4.42 4.08 3.83 3.63 3.19 2.92 2.81 2.63 2.69 2.44 2.29 2.21 2.24 1.89 1.79 1.88
0.04 0.05 0.03 0.03 0.05 0.12 0.13 0.17 0.25 0.32 0.23 0.27 0.51 1.00 1.27 1.26 1.04 0.89 0.97 0.99 1.15 1.55 2.14 2.96 3.54 3.66 3.42 3.09 2.96 2.90 2.97 2.73 2.62 2.68 2.63 2.58 2.65 2.39 2.18 2.10 2.16 1.84 1.61 1.62
0.06 0.05 0.03 0.03 0.06 0.11 0.13 0.11 0.10 0.14 0.24 0.43 0.63 1.27 1.48 1.24 1.16 0.98 1.01 1.02 1.04 1.32 1.71 2.14 2.41 2.28 2.37 2.50 2.50 2.61 2.70 2.45 2.44 2.41 2.16 2.11 2.09 2.00 1.94 1.95 2.04 2.10 1.74 1.57
0.06 0.05 0.04 0.04 0.06 0.07 0.07 0.06 0.08 0.16 0.31 0.52 0.71 1.01 1.22 1.04 1.19 0.98 0.88 0.89 0.83 1.00 1.14 1.28 1.40 1.52 1.71 1.82 2.00 2.26 2.51 2.45 2.28 2.11 2.08 2.17 2.04 2.03 2.03 2.07 2.14 2.20 2.00 1.75
0.06 0.05 0.05 0.04 0.05 0.05 0.06 0.09 0.19 0.30 0.48 1.00 0.96 0.94 1.14 1.10 1.21 0.97 0.81 0.72 0.75 0.87 1.01 1.06 1.10 1.22 1.37 1.51 1.74 1.99 2.32 2.37 2.25 2.10 2.03 2.10 2.17 2.16 2.10 2.11 2.09 1.91 1.86 1.86
0.12 0.09 0.06 0.05 0.06 0.07 0.08 0.13 0.35 0.71 1.08 1.24 0.81 0.89 1.12 0.92 0.87 0.73 0.52 0.51 0.64 0.83 0.98 1.06 1.00 0.97 1.02 1.18 1.33 1.43 1.66 1.93 2.03 1.99 1.96 2.00 2.16 2.10 1.94 1.85 1.79 1.75 1.59 1.54
0.16 0.13 0.07 0.05 0.06 0.08 0.07 0.08 0.20 0.36 0.46 0.62 0.78 1.16 1.26 0.93 0.65 0.41 0.33 0.45 0.68 0.82 0.84 0.90 0.90 0.86 0.83 0.93 1.11 1.25 1.48 1.66 1.86 1.89 1.87 1.92 2.01 1.94 1.80 1.82 1.64 1.61 1.55 1.47
0.07 0.06 0.05 0.04 0.06 0.08 0.08 0.08 0.09 0.15 0.19 0.40 0.79 1.09 1.05 0.82 0.64 0.46 0.39 0.45 0.66 0.69 0.66 0.80 0.87 0.94 0.94 0.92 1.03 1.18 1.44 1.70 1.90 2.00 2.04 1.99 2.01 2.02 1.97 1.90 1.68 1.49 1.61 1.53
0.04 0.05 0.05 0.05 0.06 0.07 0.08 0.09 0.09 0.11 0.20 0.35 0.63 1.03 1.23 1.03 0.80 0.63 0.54 0.53 0.64 0.68 0.69 0.91 1.06 1.03 0.90 0.78 0.85 1.04 1.30 1.67 1.88 2.02 2.01 1.91 2.08 2.01 1.97 1.91 1.75 1.58 1.58 1.57
0.03 0.04 0.07 0.06 0.07 0.09 0.09 0.09 0.11 0.11 0.13 0.22 0.50 0.71 0.66 0.63 0.60 0.63 0.68 0.63 0.54 0.64 0.77 0.94 1.14 1.11 0.88 0.77 0.76 0.90 1.23 1.52 1.68 1.80 1.88 1.80 1.77 1.71 1.72 1.78 1.77 1.74 1.72 1.66
0.03 0.03 0.05 0.08 0.09 0.09 0.11 0.12 0.15 0.17 0.15 0.14 0.27 0.51 0.39 0.44 0.55 0.62 0.69 0.76 0.77 0.79 0.83 0.80 0.94 1.10 1.01 0.89 0.83 0.99 1.27 1.45 1.54 1.60 1.62 1.62 1.66 1.64 1.58 1.56 1.65 1.71 1.62 1.53
0.04 0.04 0.06 0.14 0.19 0.16 0.12 0.12 0.14 0.17 0.19 0.15 0.29 0.54 0.41 0.37 0.57 0.63 0.63 0.85 1.01 0.74 0.62 0.65 0.81 0.95 1.07 1.04 1.01 1.15 1.29 1.38 1.44 1.37 1.38 1.40 1.42 1.41 1.41 1.43 1.50 1.58 1.60 1.59
0.04 0.04 0.05 0.13 0.21 0.22 0.17 0.13 0.15 0.15 0.13 0.13 0.20 0.44 0.42 0.43 0.58 0.81 0.88 0.90 0.75 0.67 0.66 0.64 0.74 0.96 1.06 1.11 1.11 1.10 1.18 1.35 1.37 1.30 1.34 1.45 1.50 1.54 1.56 1.53 1.58 1.68 1.76 1.69
0.04 0.03 0.03 0.04 0.08 0.14 0.17 0.17 0.15 0.12 0.09 0.15 0.17 0.29 0.36 0.47 0.60 0.76 0.78 0.71 0.65 0.72 0.73 0.71 0.79 0.98 1.13 1.28 1.30 1.25 1.24 1.31 1.45 1.57 1.62 1.78 1.93 1.96 1.85 1.81 1.89 1.95 1.99 1.92
0.04 0.04 0.04 0.04 0.07 0.12 0.14 0.15 0.12 0.09 0.08 0.12 0.16 0.23 0.29 0.46 0.54 0.64 0.62 0.61 0.70 0.75 0.73 0.70 0.81 1.02 1.06 1.08 1.16 1.17 1.21 1.27 1.34 1.42 1.58 1.78 1.98 2.08 2.05 2.09 2.24 2.26 2.21 2.31
0.08 0.07 0.06 0.06 0.08 0.11 0.19 0.15 0.12 0.12 0.11 0.13 0.20 0.27 0.30 0.41 0.55 0.68 0.72 0.76 0.80 0.75 0.72 0.75 0.77 0.87 1.05 0.99 0.98 1.10 1.18 1.30 1.44 1.68 1.87 1.96 2.11 2.24 2.26 2.23 2.27 2.31 2.36 2.37
0.19 0.18 0.15 0.13 0.14 0.22 0.21 0.17 0.17 0.17 0.19 0.23 0.28 0.34 0.42 0.48 0.59 0.71 0.76 0.75 0.83 0.87 0.95 1.02 1.09 1.08 1.13 1.09 1.08 1.17 1.25 1.40 1.48 1.58 1.75 1.89 2.08 2.23 2.34 2.45 2.47 2.56 2.66 2.68
0.30 0.32 0.27 0.22 0.23 0.25 0.26 0.26 0.27 0.30 0.37 0.39 0.49 0.59 0.60 0.60 0.61 0.74 0.85 0.88 0.99 0.98 1.03 1.16 1.21 1.22 1.18 1.26 1.36 1.50 1.52 1.65 1.78 1.84 2.01 2.13 2.23 2.39 2.48 2.54 2.68 2.79 2.89 2.87
0.34 0.39 0.39 0.33 0.39 0.41 0.41 0.41 0.35 0.41 0.76 0.68 0.69 0.80 0.82 0.87 1.07 1.13 1.11 1.07 1.08 1.08 1.11 1.23 1.21 1.18 1.34 1.42 1.49 1.61 1.80 1.92 2.06 2.18 2.34 2.47 2.60 2.67 2.65 2.67 2.76 2.80 2.84 2.84
0.41 0.49 0.49 0.45 0.46 0.47 0.45 0.46 0.48 0.83 1.21 1.17 1.13 1.14 1.08 1.19 1.24 1.12 1.03 1.14 1.16 1.24 1.30 1.27 1.25 1.31 1.38 1.42 1.52 1.68 1.89 2.07 2.18 2.29 2.39 2.54 2.66 2.87 3.02 3.06 2.88 2.71 2.70 2.76
0.68 0.71 0.70 0.69 0.82 0.85 0.58 0.65 0.97 1.21 1.17 1.41 1.31 1.17 1.19 1.17 1.10 1.03 1.04 1.18 1.30 1.36 1.41 1.41 1.39 1.38 1.42 1.52 1.61 1.76 1.94 2.06 2.19 2.26 2.41 2.52 2.60 2.62 2.68 2.92 2.97 2.91 2.82 2.74
0.93 0.96 1.01 0.99 1.09 0.98 0.84 0.89 1.09 1.10 1.12 1.28 1.27 1.13 1.11 1.09 1.03 1.01 1.05 1.14 1.20 1.26 1.34 1.36 1.39 1.43 1.50 1.57 1.69 1.84 1.94 2.05 2.11 2.23 2.38 2.55 2.62 2.68 2.66 2.68 2.76 2.75 2.70 2.56
1.14 0.97 1.12 1.30 1.30 1.19 1.04 0.93 0.99 1.04 1.05 1.09 1.21 1.26 1.20 1.13 1.06 1.10 1.10 1.11 1.25 1.34 1.38 1.42 1.42 1.44 1.58 1.71 1.85 1.90 1.91 2.02 2.22 2.30 2.35 2.41 2.45 2.48 2.55 2.68 2.63 2.57 2.57 2.51
1.27 1.24 1.47 1.82 1.82 1.65 1.50 1.30 1.21 1.18 1.17 1.18 1.29 1.39 1.44 1.41 1.33 1.30 1.23 1.21 1.31 1.41 1.36 1.43 1.52 1.55 1.63 1.69 1.82 1.95 2.00 2.03 2.13 2.14 2.09 2.15 2.26 2.32 2.33 2.48 2.55 2.41 2.32 2.37
1.31 1.52 1.88 2.20 2.00 1.98 1.87 1.54 1.40 1.41 1.48 1.44 1.44 1.49 1.46 1.40 1.38 1.39 1.39 1.31 1.25 1.25 1.35 1.47 1.54 1.63 1.66 1.68 1.76 1.80 1.86 1.97 2.08 2.15 2.13 2.13 2.18 2.25 2.29 2.26 2.32 2.34 2.10 2.04

GEFSCGP_prec_meanprecacc_294.txt.gz
Total_Precipitation_Accumulation
0.02 0.02 0.02 0.03 0.04 0.05 0.09 0.15 0.27 0.32 0.26 0.36 0.47 0.69 0.80 0.93 1.11 1.10 0.96 1.01 1.29 1.50 1.78 2.24 2.78 3.63 4.72 5.65 5.93 5.43 4.95 4.63 4.25 3.90 3.35 3.04 3.13 3.08 2.83 2.56 2.26 2.17 2.07 2.14
0.02 0.03 0.03 0.03 0.04 0.07 0.10 0.16 0.26 0.32 0.24 0.30 0.47 0.77 1.10 1.10 1.03 0.97 1.03 1.05 1.15 1.52 1.96 2.69 3.71 4.28 4.57 4.70 4.44 4.10 3.85 3.66 3.21 2.96 2.86 2.68 2.75 2.50 2.35 2.25 2.29 1.95 1.83 1.91
0.04 0.05 0.03 0.03 0.05 0.12 0.13 0.17 0.25 0.32 0.23 0.27 0.51 1.00 1.27 1.26 1.04 0.89 0.98 1.00 1.15 1.56 2.15 2.97 3.55 3.68 3.44 3.10 2.97 2.92 2.99 2.74 2.64 2.70 2.66 2.61 2.69 2.42 2.21 2.14 2.20 1.87 1.63 1.64
0.06 0.05 0.03 0.03 0.06 0.11 0.13 0.11 0.10 0.14 0.24 0.43 0.63 1.27 1.48 1.24 1.16 0.98 1.01 1.02 1.04 1.33 1.72 2.15 2.42 2.30 2.40 2.53 2.52 2.63 2.73 2.47 2.46 2.42 2.18 2.13 2.11 2.03 1.98 2.00 2.09 2.14 1.76 1.58
0.06 0.05 0.04 0.04 0.06 0.07 0.07 0.06 0.08 0.16 0.31 0.52 0.71 1.01 1.22 1.04 1.19 0.98 0.88 0.89 0.83 1.00 1.15 1.28 1.41 1.53 1.72 1.84 2.01 2.27 2.52 2.46 2.30 2.12 2.10 2.19 2.07 2.06 2.06 2.10 2.18 2.25 2.02 1.76
0.06 0.05 0.05 0.04 0.05 0.05 0.06 0.09 0.19 0.30 0.48 1.00 0.96 0.94 1.14 1.10 1.21 0.97 0.81 0.72 0.75 0.88 1.01 1.06 1.10 1.22 1.38 1.52 1.74 2.00 2.33 2.38 2.26 2.11 2.04 2.12 2.19 2.20 2.13 2.14 2.13 1.95 1.90 1.88
0.12 0.09 0.06 0.05 0.06 0.07 0.08 0.13 0.35 0.71 1.08 1.25 0.81 0.89 1.12 0.92 0.87 0.73 0.52 0.51 0.64 0.83 0.98 1.06 1.00 0.97 1.03 1.18 1.34 1.44 1.67 1.93 2.04 1.99 1.97 2.01 2.18 2.13 1.97 1.87 1.82 1.79 1.62 1.57
0.16 0.13 0.07 0.05 0.06 0.08 0.07 0.08 0.21 0.37 0.47 0.62 0.79 1.16 1.26 0.93 0.65 0.41 0.33 0.45 0.68 0.82 0.84 0.90 0.90 0.86 0.84 0.94 1.12 1.25 1.49 1.66 1.86 1.90 1.89 1.93 2.03 1.96 1.82 1.83 1.66 1.63 1.57 1.49
0.07 0.06 0.05 0.04 0.06 0.08 0.08 0.08 0.09 0.15 0.20 0.41 0.79 1.10 1.05 0.82 0.64 0.46 0.39 0.45 0.66 0.69 0.66 0.80 0.87 0.95 0.94 0.93 1.04 1.19 1.45 1.71 1.92 2.02 2.07 2.02 2.03 2.04 1.99 1.92 1.69 1.51 1.63 1.54
0.04 0.05 0.05 0.05 0.06 0.07 0.08 0.09 0.10 0.11 0.20 0.35 0.63 1.03 1.23 1.03 0.80 0.63 0.54 0.53 0.64 0.68 0.69 0.91 1.06 1.04 0.91 0.79 0.87 1.05 1.31 1.68 1.90 2.04 2.04 1.93 2.09 2.02 1.99 1.92 1.76 1.59 1.59 1.59
0.03 0.04 0.07 0.06 0.07 0.09 0.09 0.10 0.11 0.11 0.13 0.23 0.50 0.71 0.66 0.63 0.60 0.63 0.69 0.63 0.54 0.64 0.77 0.94 1.14 1.12 0.88 0.77 0.76 0.90 1.24 1.53 1.70 1.82 1.89 1.81 1.78 1.72 1.73 1.79 1.78 1.75 1.73 1.67
0.03 0.03 0.05 0.08 0.09 0.09 0.11 0.13 0.15 0.17 0.16 0.15 0.28 0.51 0.39 0.44 0.55 0.62 0.69 0.76 0.77 0.80 0.83 0.80 0.94 1.11 1.01 0.89 0.84 1.00 1.28 1.47 1.56 1.61 1.63 1.64 1.68 1.66 1.59 1.57 1.66 1.72 1.63 1.54
0.04 0.04 0.06 0.14 0.20 0.16 0.12 0.12 0.14 0.17 0.19 0.15 0.29 0.54 0.41 0.37 0.57 0.63 0.63 0.85 1.01 0.74 0.63 0.66 0.82 0.96 1.08 1.05 1.03 1.16 1.31 1.40 1.46 1.38 1.38 1.41 1.43 1.43 1.42 1.44 1.51 1.59 1.61 1.60
0.04 0.04 0.05 0.13 0.21 0.22 0.17 0.14 0.15 0.15 0.13 0.14 0.20 0.44 0.42 0.43 0.58 0.82 0.88 0.90 0.75 0.67 0.66 0.64 0.75 0.97 1.08 1.13 1.13 1.12 1.21 1.39 1.40 1.32 1.36 1.47 1.52 1.55 1.57 1.54 1.58 1.68 1.76 1.70
0.04 0.03 0.03 0.04 0.08 0.14 0.17 0.17 0.15 0.12 0.09 0.15 0.17 0.29 0.36 0.47 0.60 0.76 0.78 0.71 0.65 0.72 0.73 0.71 0.79 0.99 1.13 1.29 1.32 1.27 1.27 1.33 1.48 1.59 1.65 1.80 1.95 1.97 1.86 1.82 1.89 1.95 2.00 1.93
0.04 0.04 0.04 0.04 0.07 0.12 0.14 0.16 0.12 0.09 0.08 0.12 0.16 0.23 0.29 0.46 0.54 0.64 0.62 0.61 0.70 0.76 0.73 0.70 0.82 1.02 1.07 1.09 1.16 1.17 1.22 1.29 1.35 1.44 1.60 1.80 1.99 2.09 2.06 2.10 2.24 2.26 2.22 2.33
0.08 0.07 0.06 0.06 0.08 0.11 0.19 0.15 0.12 0.12 0.11 0.13 0.21 0.27 0.30 0.41 0.55 0.69 0.72 0.76 0.80 0.75 0.72 0.76 0.78 0.88 1.07 1.00 0.99 1.11 1.19 1.31 1.45 1.69 1.88 1.97 2.12 2.25 2.27 2.23 2.27 2.32 2.37 2.39
0.19 0.18 0.15 0.13 0.15 0.22 0.22 0.17 0.17 0.17 0.19 0.23 0.28 0.35 0.42 0.48 0.59 0.71 0.76 0.75 0.84 0.88 0.95 1.02 1.10 1.09 1.14 1.11 1.09 1.17 1.26 1.41 1.49 1.59 1.76 1.90 2.09 2.24 2.35 2.47 2.48 2.58 2.68 2.71
0.30 0.32 0.27 0.22 0.23 0.25 0.26 0.26 0.27 0.30 0.37 0.40 0.49 0.59 0.60 0.60 0.62 0.74 0.85 0.88 0.99 0.98 1.03 1.16 1.22 1.23 1.20 1.27 1.37 1.50 1.53 1.66 1.79 1.85 2.03 2.14 2.25 2.41 2.50 2.57 2.71 2.83 2.93 2.91
0.34 0.40 0.39 0.33 0.39 0.41 0.41 0.41 0.35 0.42 0.76 0.68 0.70 0.81 0.83 0.88 1.09 1.13 1.11 1.08 1.09 1.08 1.12 1.23 1.21 1.20 1.36 1.43 1.49 1.62 1.81 1.92 2.07 2.19 2.35 2.48 2.61 2.69 2.68 2.70 2.80 2.86 2.92 2.91
0.41 0.49 0.49 0.46 0.47 0.47 0.45 0.46 0.49 0.85 1.22 1.18 1.13 1.14 1.09 1.20 1.25 1.13 1.04 1.15 1.16 1.25 1.31 1.27 1.26 1.33 1.40 1.43 1.52 1.69 1.89 2.08 2.19 2.30 2.41 2.56 2.69 2.90 3.05 3.12 2.94 2.77 2.76 2.83
0.68 0.72 0.71 0.70 0.83 0.85 0.59 0.65 0.98 1.23 1.19 1.42 1.31 1.17 1.19 1.19 1.11 1.04 1.05 1.20 1.31 1.37 1.42 1.42 1.41 1.40 1.44 1.53 1.62 1.77 1.95 2.08 2.21 2.28 2.44 2.56 2.65 2.68 2.74 2.99 3.04 2.97 2.88 2.81
0.94 0.97 1.02 1.00 1.10 0.99 0.84 0.89 1.09 1.11 1.14 1.29 1.28 1.13 1.12 1.11 1.05 1.03 1.07 1.16 1.23 1.28 1.36 1.38 1.41 1.45 1.51 1.58 1.70 1.85 1.95 2.06 2.13 2.27 2.43 2.61 2.71 2.77 2.74 2.75 2.83 2.82 2.75 2.61
1.15 0.97 1.13 1.31 1.31 1.19 1.05 0.94 1.00 1.05 1.07 1.10 1.23 1.28 1.21 1.15 1.08 1.13 1.13 1.15 1.28 1.37 1.40 1.45 1.44 1.46 1.59 1.72 1.86 1.91 1.93 2.04 2.25 2.35 2.41 2.47 2.52 2.56 2.63 2.77 2.71 2.65 2.64 2.56
1.27 1.25 1.47 1.83 1.84 1.66 1.51 1.32 1.23 1.21 1.19 1.20 1.32 1.42 1.47 1.44 1.36 1.35 1.28 1.24 1.34 1.44 1.39 1.45 1.54 1.58 1.65 1.71 1.84 1.96 2.01 2.04 2.15 2.16 2.11 2.18 2.29 2.36 2.39 2.54 2.61 2.48 2.37 2.41
1.32 1.53 1.90 2.21 2.01 2.00 1.88 1.55 1.41 1.44 1.52 1.47 1.47 1.52 1.48 1.44 1.44 1.46 1.43 1.34 1.28 1.27 1.37 1.49 1.56 1.64 1.68 1.70 1.78 1.82 1.88 1.99 2.10 2.17 2.15 2.15 2.20 2.27 2.31 2.29 2.35 2.38 2.14 2.07